GFSSE_925_thetae_000.txt.gz
Theta_e
339 336 338 341 342 340 337 335 333 331 330 327 327 329 331 331 330 329 330 330 331 329 328 329 329 330 332 329 330 331 331 329 327 323 324 325 328 329 329 331 331 333 331
338 335 337 343 342 339 335 334 331 330 329 328 330 331 332 331 331 330 330 330 331 329 327 327 329 330 329 331 332 331 329 328 320 323 325 327 326 328 331 329 328 329 333
339 338 339 342 341 338 335 332 332 330 331 329 329 331 333 331 329 329 328 327 328 329 327 326 327 328 327 329 330 328 328 322 317 321 323 327 328 329 327 327 328 330 331
338 337 340 339 339 338 335 332 331 329 330 329 330 332 333 331 329 329 329 327 325 326 325 325 326 326 325 325 327 328 326 319 321 323 325 329 328 327 328 326 326 327 328
339 337 339 334 337 337 333 332 330 328 330 329 332 330 331 330 328 328 326 325 324 324 324 324 325 325 325 325 326 328 320 317 322 324 326 327 326 326 324 324 323 323 324
336 337 338 334 336 335 331 332 331 329 330 329 329 330 329 330 328 326 325 324 324 324 324 323 323 325 325 325 325 326 315 320 323 324 326 326 323 325 324 323 323 322 322
334 338 337 335 336 334 332 333 330 329 330 328 330 331 330 328 327 327 325 324 326 325 325 324 323 324 325 324 326 325 315 320 322 323 325 325 322 324 323 322 322 322 320
334 338 338 337 336 334 334 332 330 329 329 328 330 329 328 326 328 327 325 326 327 327 325 323 322 323 325 324 324 323 313 318 320 321 323 324 322 323 322 321 321 321 320
333 334 336 336 334 332 333 330 330 329 329 328 329 328 327 326 326 326 325 327 329 326 323 319 319 321 324 324 323 322 313 315 320 320 321 321 317 322 322 319 318 319 319
332 332 334 334 334 332 327 330 329 327 329 327 328 327 326 325 326 326 323 325 327 325 322 316 314 318 322 324 323 317 313 311 319 320 320 322 318 321 320 317 314 314 315
331 331 330 332 333 332 328 330 329 327 329 327 327 327 326 324 325 326 325 326 325 322 319 315 315 319 319 318 316 313 311 308 316 320 320 321 317 320 318 315 309 309 311
332 331 330 330 331 330 328 331 327 326 328 327 327 326 325 324 325 327 326 325 325 322 318 315 313 313 313 313 314 312 309 311 313 317 320 321 318 320 320 318 311 309 312
333 332 332 331 331 330 325 328 329 328 328 328 327 326 326 325 326 325 325 325 324 320 318 318 311 309 310 314 315 318 315 313 313 312 317 319 320 316 323 322 321 318 317
331 332 332 332 332 331 328 324 328 327 329 327 328 327 326 326 324 325 324 323 324 322 322 322 319 318 315 314 314 313 315 314 313 311 311 315 317 315 318 323 323 322 319
330 330 331 332 332 332 330 326 324 326 327 327 327 326 326 326 324 323 323 323 323 321 322 321 320 318 318 317 313 312 311 311 311 311 309 309 311 312 311 318 320 321 321
328 329 329 331 331 334 333 330 326 325 326 326 326 326 326 325 325 324 322 322 322 321 320 321 319 318 318 319 319 315 313 311 310 310 310 310 309 309 309 308 315 317 318
329 328 328 329 332 332 334 334 331 328 326 326 325 326 326 325 325 325 323 321 322 322 322 322 321 320 319 319 319 320 315 313 312 311 310 310 310 311 310 310 312 314 316
330 329 329 328 330 333 332 334 334 332 330 328 327 326 325 326 325 325 325 322 322 322 323 323 323 322 321 320 320 320 319 315 314 313 312 311 311 310 310 310 310 311 315
329 330 330 329 328 330 333 333 334 334 333 331 329 328 326 326 326 326 325 325 322 322 323 323 323 323 323 322 322 320 319 319 318 316 314 313 312 312 311 311 310 309 309
325 327 329 330 330 328 330 333 335 335 334 333 332 331 329 327 327 326 326 326 326 323 323 324 324 323 323 323 323 322 322 320 319 319 319 318 317 315 313 312 311 311 310
318 320 326 327 329 330 330 332 335 335 334 334 334 332 332 330 329 328 327 327 327 326 324 324 325 324 324 323 323 323 323 322 321 320 319 318 318 318 318 316 315 313 312
319 319 320 322 326 328 330 332 333 334 334 333 333 333 332 332 331 330 329 328 328 328 328 325 325 325 325 325 324 322 321 322 322 322 321 320 320 320 319 319 317 314 313
320 319 319 320 321 326 328 330 331 333 333 333 333 333 333 332 332 332 331 330 329 329 329 329 326 326 326 326 326 324 320 321 316 320 320 321 321 321 321 320 318 316 315
319 319 319 319 320 322 325 328 330 330 331 332 332 332 332 332 333 332 332 332 331 331 330 331 330 328 327 327 326 325 324 322 318 320 320 320 320 319 317 315 314 314 313
318 316 317 319 320 320 320 321 323 327 330 330 331 332 331 330 331 332 332 332 332 332 332 332 332 331 330 328 327 326 325 324 323 322 323 321 319 318 317 315 315 317 317
317 317 317 316 316 316 318 322 323 323 323 323 325 327 328 328 329 330 331 332 332 332 332 332 333 333 331 330 329 328 327 325 324 323 323 322 321 321 320 319 319 318 317

GFSSE_925_thetae_003.txt.gz
Theta_e
339 334 335 342 342 342 339 337 335 332 330 327 331 330 332 331 330 330 331 331 329 329 329 329 331 332 332 330 331 332 331 329 326 325 325 327 329 330 332 330 331 332 333
338 333 334 341 342 341 338 335 333 331 329 328 330 330 333 332 331 331 331 331 331 329 328 328 329 331 329 331 330 331 330 323 320 324 327 328 329 330 329 328 329 332 333
338 332 334 341 342 339 337 335 332 329 330 329 331 332 333 332 331 330 329 329 330 329 327 327 327 329 328 332 331 327 326 317 320 321 324 329 328 328 328 329 331 332 333
337 332 337 341 341 338 335 334 332 332 331 330 331 334 333 333 331 331 329 327 326 327 326 326 326 326 325 326 327 327 319 318 322 325 329 328 326 328 327 326 328 329 329
337 332 335 340 340 339 335 333 332 330 332 330 331 330 332 332 330 329 327 325 326 325 325 325 325 325 325 324 326 326 316 321 324 325 328 327 325 324 325 324 324 324 324
338 336 335 334 338 337 334 333 332 330 330 330 330 331 328 330 329 328 325 324 325 325 324 323 324 325 324 325 325 325 316 323 324 326 326 325 319 325 324 323 323 323 321
337 336 338 334 335 335 334 333 332 331 331 330 330 330 330 329 328 328 325 324 326 324 324 322 322 324 325 324 325 325 315 322 323 324 326 325 322 324 323 323 323 321 321
336 336 336 335 338 334 333 334 331 331 330 329 330 331 329 329 327 327 325 326 326 328 327 324 323 323 325 324 325 325 314 321 321 322 325 324 322 324 322 321 321 322 320
335 337 336 335 337 334 333 333 330 329 329 328 330 330 328 327 326 327 325 326 328 329 326 324 321 322 324 325 324 324 313 318 320 320 323 322 319 323 322 320 320 320 321
335 335 335 334 335 334 333 332 328 329 329 328 328 327 326 326 325 325 325 325 328 327 325 322 317 318 320 324 325 320 314 312 319 320 319 321 317 322 321 317 317 318 318
332 333 334 333 332 331 329 329 328 327 329 328 327 328 326 325 324 323 325 324 325 325 323 320 316 317 321 322 322 318 313 309 317 319 319 321 321 322 320 319 315 316 316
332 331 332 333 333 332 331 328 328 327 327 329 327 327 327 325 323 325 326 325 325 325 324 320 317 316 314 315 316 312 311 308 314 317 320 321 322 321 321 319 317 315 316
333 331 331 332 332 332 332 330 330 326 324 328 327 326 325 324 324 325 327 326 325 325 324 320 318 314 310 311 312 314 316 311 310 314 316 320 320 323 322 322 321 320 318
333 332 331 331 331 332 331 327 330 328 326 327 325 326 327 326 324 325 326 325 324 323 321 322 321 320 311 309 314 315 315 316 311 313 312 315 319 322 323 323 324 324 323
332 332 333 332 332 332 331 328 326 328 327 328 327 327 327 326 326 325 324 324 323 323 322 321 321 321 318 317 314 314 314 313 314 313 312 310 312 316 321 322 322 323 324
329 331 330 333 333 333 332 330 327 325 327 328 328 327 328 326 326 325 324 323 322 323 322 320 321 321 320 318 317 317 313 312 311 311 311 311 309 309 310 319 320 321 322
330 329 329 330 332 333 333 332 330 327 325 327 326 326 326 326 326 326 325 324 322 322 322 321 320 321 320 318 317 318 319 316 314 312 310 310 310 310 310 311 316 318 319
330 328 328 329 330 331 333 334 333 331 328 325 325 325 325 325 326 325 325 325 324 321 322 322 321 321 321 320 319 318 318 319 319 315 313 313 312 310 310 310 310 311 314
327 329 329 328 328 328 330 332 334 334 332 330 328 327 326 325 325 325 325 325 325 323 321 322 322 323 323 322 321 321 320 319 319 319 317 315 314 313 312 312 311 310 310
319 323 328 329 328 328 328 332 332 334 334 333 332 330 329 328 326 325 326 325 325 325 322 322 323 323 323 323 323 322 322 322 321 320 319 319 318 316 314 313 313 312 311
319 319 320 323 328 328 330 332 333 333 334 334 333 333 331 330 329 327 326 326 326 326 326 324 323 323 324 323 323 322 322 323 322 322 321 320 319 318 318 318 316 315 314
320 319 319 320 321 327 328 329 331 333 334 334 334 334 333 333 332 331 329 328 327 326 326 326 324 323 323 323 323 321 323 322 322 322 322 321 320 319 318 318 317 318 317
318 319 320 319 321 323 328 330 331 333 333 333 333 333 333 332 332 332 332 331 329 327 327 327 326 324 324 325 324 323 322 322 314 320 321 321 321 320 320 319 319 319 319
317 317 317 319 320 321 321 322 327 329 329 330 331 331 331 332 332 332 332 332 331 330 329 328 328 328 325 326 325 324 324 322 318 319 320 320 319 319 319 320 320 320 320
317 317 316 316 316 317 320 321 322 323 323 324 325 325 326 327 327 328 330 332 332 332 332 331 331 330 329 327 327 326 324 324 324 322 325 322 322 322 321 319 320 320 318
317 317 317 317 316 316 315 316 316 315 315 316 317 317 318 320 323 325 327 330 332 332 332 332 332 332 331 331 330 328 327 324 325 323 324 323 323 322 321 321 319 318 317

GFSSE_925_thetae_006.txt.gz
Theta_e
337 337 337 343 342 341 340 338 336 333 331 329 331 330 331 331 330 330 329 329 328 329 330 329 331 332 331 333 332 332 330 327 328 326 325 329 329 332 331 329 331 331 332
337 335 336 342 342 342 340 338 335 332 329 327 329 329 332 332 331 331 332 331 331 328 327 328 328 330 329 330 329 330 329 326 326 325 327 328 329 328 329 329 332 333 334
337 334 335 341 342 341 338 336 334 331 329 328 331 331 334 332 331 330 329 329 328 327 326 327 327 328 329 333 330 327 320 321 323 323 326 330 329 329 329 331 332 333 333
336 333 334 339 342 340 338 335 333 331 331 329 330 334 334 332 331 330 328 327 327 326 326 327 326 326 327 328 327 327 317 319 323 327 325 327 327 328 327 327 329 330 330
336 333 332 340 341 339 336 335 332 332 331 330 331 330 333 331 329 329 328 326 326 326 325 327 325 325 325 325 326 326 317 320 323 327 328 327 326 325 326 325 327 326 326
336 332 334 340 340 338 336 334 332 330 331 330 332 330 331 329 328 328 325 325 325 325 324 324 325 325 325 324 325 326 315 321 323 325 327 325 319 325 324 324 323 323 321
337 334 333 337 337 338 336 335 333 330 331 330 330 330 329 333 328 327 326 325 326 325 325 323 323 324 324 324 325 325 316 321 322 325 325 325 323 326 324 324 323 322 320
337 336 335 334 335 336 335 335 333 331 332 330 330 329 329 330 328 327 327 326 327 328 327 325 323 323 325 325 324 326 316 320 321 322 325 324 321 324 323 322 322 322 320
336 336 337 336 336 337 333 334 332 330 330 329 329 330 329 328 327 330 327 326 329 329 328 326 323 323 323 325 324 325 319 318 320 320 325 324 323 323 323 322 321 322 321
335 336 337 336 336 336 333 333 331 327 327 329 328 329 328 326 326 325 326 325 327 329 328 326 323 321 321 324 325 324 321 313 319 319 323 323 322 322 324 321 320 320 320
336 337 336 335 335 335 334 332 331 326 325 329 327 328 326 325 324 324 324 325 323 324 326 324 322 320 317 318 322 324 320 313 314 319 319 320 321 323 323 322 319 318 319
336 337 335 334 333 333 332 330 330 328 325 328 328 327 327 326 324 324 322 325 325 322 323 324 323 319 316 317 318 320 320 314 310 315 319 319 322 325 324 322 321 318 317
332 332 335 334 333 332 331 329 326 325 325 327 329 327 326 326 325 323 324 326 326 325 324 324 323 320 317 313 312 314 315 312 310 309 317 318 319 326 326 323 322 320 318
332 332 331 332 333 333 331 330 329 329 328 325 325 327 326 325 324 323 324 325 326 325 325 323 321 319 318 315 310 311 311 313 315 310 310 316 318 326 326 325 323 323 322
331 332 332 330 330 332 332 331 329 329 329 326 323 326 325 325 325 324 324 325 325 324 323 322 321 321 320 320 313 309 312 314 314 316 309 312 312 316 323 325 325 325 325
331 331 332 332 331 331 331 331 330 327 327 327 326 327 326 326 326 326 325 324 324 324 322 322 322 320 320 320 319 317 315 314 314 313 313 314 313 311 311 320 323 324 324
330 329 329 331 332 332 331 331 331 330 326 326 325 326 327 326 327 327 326 325 324 324 323 322 323 321 320 321 320 319 317 317 316 314 312 311 311 311 310 315 318 320 322
328 329 329 329 330 331 332 332 332 331 328 327 325 325 326 326 326 327 326 325 325 325 324 322 322 321 320 320 320 320 319 317 317 318 318 316 313 311 310 309 310 312 316
319 324 328 327 328 329 331 331 332 332 331 330 329 327 325 325 325 325 326 325 325 325 325 324 322 321 320 320 321 321 321 320 319 319 318 319 319 316 314 313 312 311 310
319 320 323 326 327 329 330 331 332 333 333 333 332 332 330 328 327 326 325 325 325 325 325 324 324 321 321 321 321 321 321 321 322 321 320 320 319 319 318 317 316 315 314
319 319 319 321 323 326 329 331 331 332 333 333 333 333 332 332 331 328 328 327 327 325 325 325 324 322 322 321 321 321 321 322 322 321 320 320 320 319 319 319 318 317 316
317 319 319 320 322 325 326 329 331 332 332 332 332 333 333 333 333 332 331 331 329 327 326 325 324 323 322 322 322 322 323 324 323 323 322 321 320 319 318 318 319 318 316
315 315 316 319 321 322 326 327 329 331 332 332 332 332 332 332 332 332 332 332 331 329 327 327 326 323 324 325 323 323 324 325 315 322 321 321 321 321 321 320 318 319 319
315 316 316 315 315 316 319 321 321 322 323 323 324 325 325 325 326 326 327 329 330 330 328 329 328 326 325 324 326 323 323 325 325 327 325 322 322 321 321 320 320 319 319
316 316 316 316 315 315 315 315 314 314 314 315 315 315 315 315 315 315 315 317 325 329 329 329 329 328 328 327 327 327 324 323 324 324 326 324 324 323 322 321 321 321 319
316 316 316 315 315 315 315 315 315 315 315 315 314 314 315 315 314 314 314 314 313 316 323 327 329 330 330 330 329 329 327 326 325 325 325 325 325 324 324 323 322 322 321

GFSSE_925_thetae_009.txt.gz
Theta_e
337 334 340 344 344 343 342 340 337 334 333 329 330 329 329 328 329 329 329 327 327 329 330 330 333 334 333 332 333 332 330 328 328 326 326 329 330 331 330 329 330 330 331
334 336 337 343 342 342 341 339 336 333 330 329 329 329 330 330 330 330 329 330 328 328 327 327 329 329 329 329 329 328 329 327 327 326 324 327 329 329 328 329 331 333 334
335 337 335 340 342 342 341 339 335 333 330 328 330 328 332 329 331 331 330 329 329 327 325 327 327 329 327 330 332 328 324 326 325 323 327 328 329 329 330 331 332 334 333
335 335 334 337 342 342 338 337 335 332 330 328 330 332 334 331 330 329 327 328 327 326 326 327 326 327 326 331 330 327 322 323 323 325 323 328 327 328 328 329 331 332 331
336 334 332 337 341 341 339 336 334 332 331 330 329 332 334 333 329 330 328 327 326 326 326 327 326 325 325 326 326 326 321 321 322 326 326 326 327 325 326 326 328 328 327
335 333 332 337 341 341 338 337 334 332 331 330 331 327 335 333 329 329 327 326 326 325 325 325 325 325 325 325 325 326 324 320 322 324 327 327 325 323 325 324 324 323 323
335 334 332 339 341 340 338 336 333 330 331 330 330 331 330 332 330 327 326 325 326 325 325 324 324 325 325 324 325 326 326 320 322 323 326 326 319 325 325 324 324 323 321
336 334 334 340 340 339 338 336 334 331 331 330 330 329 329 330 331 328 328 327 326 327 326 325 324 323 325 325 325 325 327 321 320 321 325 324 323 325 325 325 323 322 321
336 335 335 338 339 338 336 335 334 333 331 331 330 330 328 328 330 329 329 328 328 328 329 328 327 324 323 324 325 324 326 320 318 320 322 325 323 325 324 324 323 323 322
336 336 336 336 336 338 336 334 334 331 329 330 329 329 329 326 327 326 328 326 327 329 329 329 327 326 323 323 324 325 324 322 317 318 319 324 323 326 324 324 323 322 322
336 336 336 337 336 336 336 333 334 332 328 326 329 328 328 326 324 323 323 323 324 325 329 329 328 326 323 320 320 323 324 322 316 315 318 320 322 325 324 324 324 322 322
335 336 337 337 336 336 336 334 333 332 328 324 328 328 327 327 326 324 323 322 323 324 325 327 327 327 324 320 316 316 319 323 320 314 314 318 319 324 325 324 325 322 321
331 335 336 336 335 335 334 333 333 331 328 325 325 327 326 326 326 325 324 322 321 325 325 324 324 324 324 321 317 314 315 318 318 316 312 311 318 321 326 327 326 325 322
330 331 335 335 334 334 333 332 329 328 326 325 324 327 328 327 326 325 324 322 323 324 325 325 324 324 323 321 319 317 312 311 313 313 311 310 311 318 322 326 327 326 324
330 331 331 331 333 333 333 332 330 329 327 327 326 325 324 326 326 325 324 324 323 324 324 325 324 323 322 320 320 319 318 310 309 310 312 314 312 310 317 323 327 327 326
329 329 331 331 331 330 332 332 331 330 329 327 327 326 324 324 325 324 325 325 325 324 324 325 324 323 322 322 321 320 320 318 315 312 313 313 313 313 310 316 322 325 326
329 329 329 330 331 331 330 330 331 331 330 329 326 325 325 325 326 326 326 326 326 326 325 324 324 323 322 322 322 321 320 320 319 318 317 316 315 313 312 313 318 320 322
317 324 328 328 329 331 331 330 330 331 330 330 329 327 325 325 325 326 326 326 326 326 325 324 324 323 323 322 321 321 320 320 320 320 319 317 316 317 317 314 311 311 316
318 319 319 324 327 328 330 331 331 331 331 330 330 329 328 326 325 326 326 325 325 325 325 324 324 323 322 321 320 320 320 320 321 321 321 321 320 319 318 318 318 318 314
318 319 320 323 325 326 328 330 331 331 331 331 331 330 328 328 328 326 325 325 325 325 324 324 324 323 323 322 320 320 320 320 320 321 321 320 320 320 321 321 319 317 318
318 318 319 321 323 324 327 329 329 330 331 331 332 332 332 331 331 329 328 328 327 326 326 325 324 322 322 321 319 321 321 321 321 321 321 321 321 321 319 319 318 318 317
315 316 318 320 322 325 324 328 330 330 331 331 331 331 331 331 332 331 331 330 329 327 327 326 325 323 322 322 322 322 324 324 324 324 323 322 323 323 321 320 319 318 318
314 314 314 315 317 319 325 327 328 329 328 322 322 322 321 322 322 322 323 324 326 327 327 326 326 324 323 324 324 322 325 325 320 324 324 323 322 322 322 323 323 321 320
314 314 314 314 314 314 314 315 314 314 315 314 314 314 314 314 314 313 313 313 314 319 326 327 327 325 324 324 325 325 323 325 327 328 326 324 323 321 322 322 322 323 323
314 314 314 314 315 315 315 315 315 314 314 314 314 315 314 313 311 309 308 307 307 308 309 311 317 324 325 326 326 327 327 324 323 324 326 325 325 324 324 322 322 322 322
314 314 314 314 313 314 314 314 314 314 314 314 313 312 311 309 308 306 306 305 306 306 307 307 307 308 312 319 323 324 324 324 325 324 326 326 325 325 325 324 323 322 322

GFSSE_925_thetae_012.txt.gz
Theta_e
336 332 342 345 345 342 342 341 339 337 333 330 330 329 329 328 327 328 328 328 327 328 329 330 330 336 333 335 333 331 329 328 328 325 324 328 329 329 329 329 328 329 331
334 332 339 344 344 343 341 341 337 335 332 330 329 327 328 329 328 328 328 330 328 327 326 327 330 330 330 328 329 327 328 327 327 325 323 326 327 329 327 329 328 330 332
334 334 336 342 342 342 340 339 337 334 330 328 329 328 330 328 329 330 329 329 330 328 325 326 327 328 328 327 330 328 328 326 325 324 325 325 327 328 328 327 330 333 334
334 335 335 340 341 342 339 338 336 334 331 329 329 330 333 333 328 328 328 327 328 326 325 326 326 327 327 328 331 328 326 324 324 322 322 326 327 327 328 329 331 332 332
335 335 333 337 340 340 339 337 336 333 331 330 329 331 334 334 330 327 326 327 327 326 325 326 326 326 326 326 328 327 326 322 321 323 326 325 325 328 327 326 328 329 328
335 334 332 333 339 342 339 337 336 333 332 330 330 332 331 334 332 327 328 326 326 326 325 325 326 326 326 326 325 326 326 323 319 322 326 325 326 325 326 325 326 326 324
334 334 332 333 339 341 340 338 336 333 332 330 330 332 332 332 329 329 327 325 325 326 325 325 324 326 326 325 325 325 326 325 319 321 323 326 327 322 325 325 324 323 322
334 334 332 334 339 339 339 338 336 332 331 330 331 331 329 328 332 329 328 328 327 326 326 326 325 324 324 325 325 325 325 326 323 320 321 325 325 322 326 326 325 324 323
335 335 332 335 339 339 338 337 335 333 332 330 329 330 328 328 329 330 329 329 328 328 327 329 328 327 325 324 324 325 325 324 325 319 320 322 324 324 327 326 325 324 323
335 335 334 336 338 338 337 336 335 333 331 329 329 329 329 327 327 328 327 328 328 328 328 327 329 328 327 326 324 324 324 324 323 321 318 319 322 324 327 326 325 325 324
335 336 336 336 337 338 337 336 334 333 332 330 328 328 329 327 326 322 322 323 324 324 328 329 328 328 327 325 322 319 318 322 324 321 318 317 318 323 326 327 326 326 324
333 335 336 336 336 337 337 336 335 333 333 331 326 328 328 327 327 326 325 323 323 323 324 326 327 327 326 326 324 321 317 316 318 320 320 316 315 320 324 326 327 325 326
329 333 335 335 336 337 336 335 334 333 333 331 327 324 327 327 326 326 326 325 323 323 322 324 325 324 324 324 323 322 319 317 315 315 316 317 316 318 321 324 326 327 326
328 329 332 334 336 336 335 334 333 332 331 329 327 324 324 325 326 326 325 325 324 323 322 323 324 324 324 324 323 321 319 318 317 313 309 311 313 314 318 320 324 326 327
327 328 330 331 334 335 335 333 333 331 330 328 326 325 324 324 323 324 324 324 324 324 324 323 323 324 324 323 323 322 321 320 319 318 315 309 308 310 314 318 319 323 325
328 328 328 329 330 331 332 333 332 331 331 329 328 327 327 326 325 322 324 325 324 325 325 325 325 324 324 324 323 322 322 321 321 319 319 318 316 313 312 315 319 318 321
319 319 325 328 329 330 330 330 331 331 331 330 330 329 327 326 325 325 324 326 326 326 325 325 325 324 324 323 323 323 323 322 321 321 320 320 320 319 317 315 318 319 318
317 319 319 321 328 328 329 330 330 330 330 330 330 330 329 327 326 325 325 325 325 325 325 324 324 324 323 322 322 322 322 322 322 322 321 321 321 321 321 320 318 317 318
317 319 321 320 322 326 327 329 330 330 330 330 330 329 329 328 327 326 325 326 325 325 324 324 323 322 322 321 321 321 321 321 322 323 322 323 323 323 322 323 323 322 320
317 319 321 322 323 324 325 327 328 329 329 329 329 328 328 328 327 325 325 326 325 324 325 325 324 323 322 322 321 321 321 321 321 321 322 322 322 322 321 321 321 320 321
316 318 320 323 324 323 326 328 328 329 329 329 329 329 330 330 329 329 329 328 328 327 327 326 324 322 322 322 320 321 322 323 323 324 324 323 323 323 322 322 322 321 320
313 314 316 318 322 326 325 328 329 330 328 320 318 318 319 318 318 318 317 318 319 321 323 325 325 323 323 323 321 322 324 325 325 325 325 323 323 322 321 322 321 321 322
313 313 314 314 315 317 321 323 323 317 314 314 313 313 313 312 311 311 310 309 308 308 311 313 319 323 323 323 323 322 325 327 326 325 326 324 324 324 324 323 322 322 321
312 313 314 314 314 314 314 314 314 313 312 312 313 312 311 310 308 307 305 305 305 306 307 307 307 309 314 321 322 324 324 323 325 325 324 325 325 324 323 323 324 324 323
313 313 313 314 314 314 314 314 314 313 312 312 310 309 308 307 306 305 304 304 303 304 304 306 306 306 306 310 313 316 318 318 320 321 321 319 319 322 324 324 323 322 323
312 312 313 313 312 313 313 312 311 310 309 308 307 306 305 304 303 302 301 301 301 302 302 303 303 302 304 306 307 308 310 313 314 315 316 315 316 317 318 320 322 323 322

GFSSE_925_thetae_015.txt.gz
Theta_e
334 332 339 345 344 339 341 341 339 336 333 331 330 329 327 327 328 328 328 327 327 327 328 331 330 337 334 333 332 331 329 329 326 322 321 325 329 330 329 329 328 328 330
333 330 341 346 342 340 341 340 339 336 332 331 330 329 328 328 328 327 328 330 328 327 326 328 328 332 332 330 328 328 327 328 327 323 323 322 327 329 328 327 329 330 332
333 331 340 344 343 343 341 338 336 335 332 330 329 328 329 330 329 327 329 328 329 327 325 326 328 328 328 327 329 330 327 326 325 323 324 326 328 327 327 326 330 331 335
333 333 333 342 342 341 338 335 335 334 332 329 329 329 331 333 329 327 327 327 327 326 325 325 326 326 328 326 332 330 327 325 324 321 323 324 327 327 327 328 328 331 333
334 334 333 340 340 338 339 336 336 334 334 330 329 331 333 333 331 328 327 326 326 326 325 325 326 325 327 326 328 329 326 325 323 320 322 325 326 325 328 327 328 331 330
334 334 333 335 338 338 339 337 336 334 333 331 329 331 334 334 331 328 328 326 325 324 326 326 325 327 326 326 327 327 326 326 323 319 321 325 326 325 328 327 327 328 328
334 334 331 332 336 341 339 338 335 334 333 330 331 331 332 335 331 329 328 326 326 326 326 325 325 324 326 326 326 326 326 324 325 322 320 324 326 326 328 326 326 325 325
333 333 331 330 337 339 339 338 336 334 333 331 330 331 332 333 330 332 329 328 328 327 327 326 327 326 325 324 325 325 325 324 325 325 320 320 323 326 326 327 326 326 325
334 333 331 331 338 339 339 337 336 335 332 332 330 331 330 329 328 329 329 330 330 329 326 326 327 327 328 327 326 325 324 324 324 326 323 319 321 324 327 328 328 327 326
334 334 333 332 337 339 340 337 336 334 333 331 329 328 329 328 327 327 328 328 329 329 328 327 327 327 327 326 326 326 324 322 324 324 324 322 319 320 327 328 328 327 326
335 335 335 334 335 337 338 338 336 335 333 332 330 327 329 329 328 326 323 322 323 323 326 328 327 329 326 325 325 324 323 321 321 321 323 321 319 320 323 326 327 328 327
333 334 335 335 335 336 338 337 337 335 335 333 331 327 328 328 327 326 326 325 325 323 322 321 323 325 325 327 326 324 323 321 320 319 318 314 318 323 322 323 326 327 328
328 331 333 334 335 335 336 336 336 336 334 333 332 329 325 326 327 326 325 325 324 324 323 322 322 323 324 325 325 324 322 321 319 318 316 313 311 320 323 322 323 325 326
327 327 329 332 334 335 336 336 335 334 333 332 330 329 327 324 324 325 326 325 325 324 323 323 323 322 323 323 324 324 323 322 321 320 319 317 315 310 317 321 322 321 324
327 327 327 328 331 334 336 335 334 333 332 331 329 328 327 325 324 324 324 323 324 324 324 324 324 325 324 324 324 324 323 323 322 321 321 321 319 318 315 316 318 320 320
326 326 326 327 328 330 333 334 334 333 331 331 330 329 328 327 326 326 325 324 324 324 325 325 325 324 324 324 323 323 323 323 323 323 322 322 322 321 320 319 319 319 321
316 317 318 318 326 328 329 331 332 332 332 331 330 330 329 328 328 327 326 325 325 325 325 325 324 324 323 323 322 322 323 322 323 324 323 323 323 323 323 321 322 323 322
316 319 320 320 319 326 328 329 329 330 330 330 330 330 329 328 327 327 326 326 325 324 324 324 323 323 323 323 323 324 323 322 324 325 325 325 325 326 325 326 326 324 324
318 320 322 322 319 324 326 327 327 328 328 328 328 327 327 327 326 326 325 326 325 325 325 324 323 322 322 323 322 322 322 322 322 322 321 321 323 324 323 323 324 324 323
318 321 323 322 323 324 325 326 327 328 328 328 328 329 329 329 328 328 327 327 326 326 324 323 322 323 322 323 322 322 323 324 323 322 322 321 321 321 321 321 321 319 321
316 318 322 324 324 325 326 327 329 327 323 320 319 318 318 317 317 315 314 313 313 317 319 320 320 321 322 323 321 321 322 322 324 324 324 323 322 323 322 321 320 320 320
313 314 315 317 323 326 328 328 327 317 314 313 312 311 310 309 308 307 306 306 306 308 309 311 314 315 317 318 321 322 324 322 322 323 323 324 323 323 323 322 322 321 320
312 313 313 314 314 316 321 316 314 313 313 312 310 309 307 307 306 305 304 304 304 304 306 307 308 309 310 310 312 317 319 321 319 316 319 320 322 323 322 322 322 322 321
312 313 314 314 314 314 314 314 313 311 310 308 307 306 305 305 304 303 302 301 301 302 304 305 305 306 306 307 308 309 310 312 313 315 311 313 314 317 319 318 320 320 320
312 312 313 313 313 312 312 312 310 308 307 306 305 305 304 302 301 299 298 297 298 299 300 301 302 303 304 305 306 306 307 308 309 312 314 311 311 311 312 314 315 317 319
311 312 311 311 310 310 309 308 307 306 304 303 302 301 300 298 298 294 293 294 296 297 298 298 299 301 301 302 303 304 305 307 309 309 310 310 310 308 309 311 312 313 315

GFSSE_925_thetae_018.txt.gz
Theta_e
337 336 343 346 344 342 340 341 340 336 334 332 330 329 328 330 330 329 329 328 328 328 328 331 332 334 336 333 331 331 328 329 327 322 320 320 329 332 331 328 329 329 325
336 335 338 344 345 343 342 339 339 336 333 332 331 329 329 326 326 327 327 329 330 327 326 328 330 333 333 331 330 328 328 327 327 323 322 321 323 328 331 326 329 331 328
336 335 342 346 342 340 342 340 336 335 333 331 330 328 329 331 331 329 330 329 330 328 326 327 329 329 329 328 329 331 329 326 325 324 320 324 325 328 330 328 329 331 331
336 335 342 345 343 340 342 337 333 334 333 331 329 329 331 333 331 330 327 327 328 327 326 326 327 328 327 327 329 331 329 326 325 323 322 323 325 326 328 328 328 331 333
336 336 340 342 343 339 339 335 334 335 335 332 329 331 332 335 331 329 328 327 325 325 326 325 322 327 326 328 328 329 329 326 324 324 321 323 327 327 326 330 328 330 330
336 337 340 341 340 337 338 337 336 335 334 332 331 330 332 335 332 330 327 326 324 324 326 326 325 326 327 327 327 328 328 327 326 325 322 322 326 327 327 329 328 327 330
336 337 338 337 338 339 339 338 337 334 333 333 330 330 332 334 334 332 329 327 326 327 327 326 326 326 325 326 327 327 327 326 323 325 324 321 324 328 329 329 328 327 327
337 338 337 334 336 340 340 338 337 334 333 333 330 329 332 334 334 332 331 328 328 328 327 326 326 327 327 326 326 325 324 324 323 324 325 323 321 324 328 329 328 328 327
337 338 337 336 338 340 339 336 335 334 332 333 331 331 331 330 328 328 329 330 330 327 328 328 328 328 327 326 327 326 325 324 323 323 324 324 321 321 326 329 328 330 329
337 338 337 337 339 341 341 337 336 335 333 331 330 328 328 328 327 327 327 328 328 326 326 323 325 329 329 328 326 325 324 323 323 322 323 323 323 323 323 326 328 329 329
336 337 338 338 339 340 340 339 336 335 334 333 332 330 328 329 330 329 327 324 322 322 321 322 322 325 326 326 325 325 325 324 322 321 320 320 323 324 324 324 326 328 328
334 336 337 338 338 340 339 339 338 337 335 334 333 331 329 328 329 329 328 326 325 324 323 322 321 321 323 327 327 327 327 325 324 322 320 319 320 322 323 324 324 326 328
331 333 335 337 338 339 339 338 338 337 335 334 333 332 330 327 327 328 328 328 327 327 326 326 326 326 326 327 327 327 327 326 325 324 323 320 320 322 321 322 325 324 325
330 330 332 335 337 338 338 339 338 337 336 335 334 332 331 329 328 327 327 327 327 327 327 327 327 327 327 327 327 327 327 327 326 326 325 323 321 321 322 322 321 324 324
330 330 330 331 334 336 338 338 338 337 335 334 334 333 331 330 329 328 328 328 327 327 327 328 328 328 328 328 328 328 328 328 327 327 327 325 323 323 323 323 324 322 321
329 329 328 329 330 333 336 337 337 336 335 335 334 333 332 331 330 330 329 329 329 328 328 328 328 328 328 328 329 329 328 328 328 327 327 327 326 324 326 325 325 326 325
320 320 320 320 325 331 334 335 336 336 335 334 333 332 331 330 330 330 330 330 329 329 328 328 329 328 329 329 329 328 328 328 327 327 327 327 327 326 324 324 326 327 327
320 322 323 322 320 327 332 333 334 334 333 333 332 331 331 330 329 329 329 329 329 328 328 328 329 329 329 328 328 328 327 326 326 327 327 326 326 326 325 324 323 323 326
320 323 324 324 324 328 330 331 330 330 330 329 329 329 328 328 327 328 328 329 328 328 328 327 326 326 326 326 325 324 324 324 326 327 327 326 325 325 325 324 323 322 321
321 323 325 327 328 328 329 329 329 330 329 329 328 327 327 326 325 326 323 321 321 321 320 320 320 320 321 321 321 321 321 321 322 323 325 325 326 326 325 325 325 324 323
318 320 324 328 329 329 330 331 328 323 321 317 315 313 312 312 312 312 312 311 311 312 312 311 312 312 312 314 312 314 315 316 321 319 323 324 321 322 323 325 323 325 325
316 316 318 322 327 329 330 327 321 318 315 314 312 311 310 309 308 308 308 308 308 309 309 309 309 309 309 309 310 311 314 313 313 314 311 311 314 314 318 321 322 322 323
316 316 316 316 318 318 318 317 316 316 315 313 311 310 308 307 306 306 306 306 306 306 306 306 306 306 306 306 307 308 312 313 312 308 309 309 311 312 311 312 315 316 316
315 315 315 315 315 315 316 316 315 314 312 310 309 308 307 305 303 301 301 302 302 302 302 302 301 302 302 303 303 304 305 306 308 309 307 307 308 309 309 309 310 310 311
315 315 314 313 313 312 312 312 311 310 309 307 306 305 304 303 301 298 298 298 298 298 298 298 298 298 300 300 300 302 303 304 304 307 309 305 303 303 304 305 306 308 310
314 314 312 311 310 310 309 308 308 307 305 305 303 302 300 299 298 296 295 295 295 295 295 295 295 297 299 297 298 300 302 303 303 302 302 303 303 301 301 303 304 306 309

GFSSE_925_thetae_021.txt.gz
Theta_e
338 344 345 348 345 343 341 341 340 336 335 332 331 330 330 330 330 330 330 328 329 328 328 330 332 333 337 336 333 329 330 328 327 326 321 318 323 330 332 329 329 332 327
337 340 345 346 345 344 344 339 338 335 334 332 331 329 330 326 326 325 329 330 331 328 328 329 331 334 334 331 332 330 329 328 326 325 322 321 319 327 331 330 329 333 331
336 338 343 345 346 344 341 340 336 335 333 331 331 329 328 330 331 328 330 330 331 328 327 328 330 330 330 331 330 328 330 329 326 325 321 322 326 326 327 329 329 331 333
335 337 341 343 345 341 340 339 334 335 334 331 330 330 330 333 332 331 329 328 329 329 327 325 327 328 329 329 329 331 330 328 326 324 326 323 324 327 326 328 329 331 333
335 336 344 345 343 341 340 336 335 334 334 332 330 330 333 333 335 330 328 328 326 324 327 327 325 325 327 325 329 329 330 328 325 325 326 323 324 327 328 327 330 328 331
335 336 344 341 343 340 337 338 335 335 336 333 332 330 332 334 336 333 329 325 326 325 327 326 326 324 325 328 328 327 328 328 327 325 326 323 322 326 329 328 330 329 328
336 337 342 338 342 339 339 339 337 336 333 332 331 330 331 334 336 334 331 328 328 327 328 328 327 327 327 326 326 326 327 326 325 324 324 326 322 324 328 330 329 329 329
337 337 338 337 338 339 339 339 337 336 332 332 329 330 331 332 335 333 332 330 329 327 327 327 326 327 328 327 327 327 325 323 323 324 324 325 325 323 325 328 330 328 329
337 337 337 336 337 335 341 338 335 334 332 331 332 328 331 331 330 328 328 328 329 329 327 325 327 331 331 331 330 328 326 325 324 324 323 324 324 325 324 325 328 329 330
337 338 337 337 338 341 341 337 335 335 333 331 330 328 326 327 326 327 327 327 328 326 323 324 322 326 330 330 330 328 326 325 325 324 324 324 324 324 325 325 326 327 329
336 338 337 337 338 340 340 341 336 335 334 333 332 331 328 328 330 330 329 327 324 323 323 322 323 322 322 323 324 326 326 327 326 325 322 321 321 324 325 325 325 326 328
335 336 338 338 338 340 339 339 339 338 337 336 334 333 333 329 329 329 328 326 325 323 324 323 324 324 324 327 329 328 328 329 327 326 326 324 321 322 323 325 325 326 326
333 334 336 337 338 339 339 339 338 337 336 335 333 332 331 328 327 328 329 329 329 328 328 328 328 329 328 328 328 328 328 328 328 328 327 326 324 324 324 325 325 324 326
331 332 333 335 337 338 338 339 338 337 336 335 334 333 332 330 329 328 328 328 328 328 328 329 329 329 329 329 329 329 329 329 328 328 328 328 327 325 326 327 328 326 324
331 332 332 333 335 336 338 338 338 337 336 335 335 334 332 331 330 329 329 329 329 329 329 329 330 330 330 331 331 330 330 330 330 330 330 329 329 328 327 327 328 329 328
331 332 332 332 332 334 336 337 338 337 336 336 335 335 334 333 332 332 332 331 331 331 331 331 330 331 331 331 330 330 330 330 329 329 329 329 328 328 328 327 328 329 331
325 324 323 324 326 331 334 336 337 337 336 336 335 334 334 333 333 332 332 332 332 332 331 330 330 330 330 329 329 328 329 328 327 327 327 327 328 329 328 328 327 328 328
323 324 326 325 322 326 333 335 336 336 336 335 334 333 333 332 331 331 331 331 331 330 330 329 328 327 327 326 325 325 325 324 324 324 325 326 327 327 327 327 326 326 326
324 325 327 327 327 328 333 334 334 333 332 332 331 331 331 330 330 331 329 327 324 325 324 322 320 320 320 319 319 319 319 320 320 320 321 323 324 326 326 326 325 325 325
326 327 330 330 330 331 331 331 331 332 329 326 323 321 319 317 317 318 316 314 314 315 314 313 312 313 312 313 313 313 313 314 315 315 320 321 323 322 317 320 323 325 325
324 328 330 330 331 332 332 332 327 323 320 317 314 313 312 312 311 311 311 311 311 311 311 310 310 311 311 310 310 311 311 310 312 312 311 309 310 311 313 313 314 318 321
319 322 327 329 331 331 326 324 321 319 316 314 313 311 310 308 308 308 308 308 308 308 308 307 307 306 306 306 307 307 310 309 310 307 306 307 308 309 311 310 311 313 313
318 319 320 320 320 320 320 319 318 317 316 313 311 310 308 306 304 303 303 303 303 303 303 302 302 302 303 303 303 304 307 306 307 305 305 306 306 305 307 306 305 306 307
318 318 318 318 318 318 318 318 317 314 312 311 310 308 307 305 302 300 300 299 300 299 299 299 299 299 299 301 301 300 301 303 305 306 304 303 302 302 301 302 302 302 304
318 317 316 315 314 314 314 313 312 311 310 308 308 306 304 303 301 298 297 297 297 297 296 296 297 297 298 300 299 299 300 301 302 302 301 301 299 299 299 300 302 301 302
317 315 314 313 312 311 310 310 309 308 307 306 305 303 302 300 299 296 295 295 295 295 295 294 295 296 297 299 297 297 298 301 300 298 298 298 299 299 300 300 301 302 303

GFSSE_925_thetae_024.txt.gz
Theta_e
342 342 345 346 345 344 340 341 339 335 335 332 330 330 330 331 331 330 330 329 331 328 328 331 333 334 337 336 334 332 329 328 327 325 323 318 317 327 331 330 328 332 329
340 342 344 347 345 344 339 338 335 334 333 332 331 330 329 328 326 325 329 331 329 328 329 330 333 335 333 332 333 332 329 328 326 325 323 316 323 319 327 330 328 329 334
339 345 346 345 343 341 340 338 335 334 333 332 331 329 328 329 330 329 330 328 328 328 328 328 330 331 332 332 331 328 331 328 327 325 323 320 324 325 326 324 325 330 334
336 342 346 345 345 340 338 338 334 334 334 331 330 329 330 332 331 330 328 328 328 328 328 326 327 328 328 329 330 330 330 328 326 325 325 324 323 329 329 326 326 330 332
334 340 344 342 345 340 339 337 333 335 334 332 329 329 332 333 334 329 329 326 324 323 325 326 326 325 328 327 327 329 330 328 326 325 325 326 322 325 330 329 327 330 329
335 342 345 343 342 341 340 337 334 335 335 332 330 327 332 334 335 332 329 325 327 326 324 327 326 325 319 318 326 328 328 327 327 325 325 324 324 322 327 329 329 330 329
337 341 341 341 342 340 340 337 337 335 333 330 328 329 333 335 336 334 331 329 328 327 326 327 326 327 327 326 326 324 322 324 323 323 323 322 325 324 324 328 330 329 328
336 340 337 338 341 337 339 338 337 336 332 329 325 332 332 332 334 335 332 330 329 327 327 328 328 330 331 331 330 329 328 325 323 322 323 324 324 326 325 325 328 329 332
337 337 338 333 337 337 339 338 337 334 332 329 327 327 331 330 330 329 328 327 326 326 328 328 325 328 330 332 332 331 329 327 325 324 321 322 323 325 327 326 325 327 330
337 337 337 336 334 335 339 339 335 334 333 331 330 327 324 327 327 325 327 326 327 327 321 320 320 321 326 328 328 327 326 325 325 324 325 324 323 325 326 326 326 326 328
337 337 337 337 338 340 340 337 335 335 334 333 332 329 329 324 329 330 330 329 327 324 322 322 321 321 320 320 320 325 327 327 327 326 326 324 322 323 324 326 326 326 326
335 337 338 337 338 340 341 341 339 337 335 334 333 333 332 330 329 330 329 328 326 325 325 326 326 327 328 327 328 328 328 328 329 328 327 326 326 325 325 325 326 327 327
334 335 337 338 338 339 339 339 340 338 338 337 336 333 331 329 327 327 328 328 328 328 328 328 328 328 328 328 328 328 328 328 328 328 328 328 327 327 327 327 327 327 328
333 334 335 336 338 338 339 339 338 338 336 335 334 333 332 331 329 328 328 328 328 328 328 328 328 329 329 329 329 329 330 329 329 329 329 329 329 329 329 329 329 329 330
331 332 332 334 335 337 338 339 338 337 337 336 335 334 332 331 330 330 330 329 329 330 330 330 330 330 330 331 331 331 330 330 330 329 329 329 329 329 329 329 330 330 330
331 332 332 332 333 335 337 338 338 337 337 335 335 335 334 333 332 332 332 332 332 331 331 330 330 330 330 330 329 328 327 327 327 328 327 327 326 327 327 328 330 331 331
325 325 326 327 330 332 334 337 337 337 337 335 335 334 333 333 332 332 332 332 331 330 330 330 329 327 326 325 325 325 325 324 322 323 323 323 323 324 326 327 327 327 330
323 324 325 325 323 328 332 336 337 336 336 335 334 333 332 331 330 331 330 329 326 326 324 322 317 317 317 316 315 317 317 320 318 319 319 319 320 321 323 325 326 326 325
324 326 327 325 323 326 333 336 335 334 333 331 331 329 328 327 327 324 318 316 315 315 313 312 311 312 312 311 311 311 311 311 311 312 313 314 315 313 312 312 312 315 318
327 330 329 330 330 333 334 332 331 328 322 321 319 315 314 313 314 313 311 311 310 311 310 310 309 309 308 308 307 307 307 306 308 310 309 307 304 305 307 309 310 311 312
329 330 330 330 331 331 331 329 322 318 315 313 312 311 309 309 308 308 309 308 307 307 307 305 304 303 303 303 304 304 303 307 305 305 300 303 302 304 307 308 308 308 307
327 330 331 331 328 328 326 323 319 316 314 312 310 308 307 305 305 304 303 303 302 302 302 301 300 300 301 300 303 301 302 303 304 300 302 303 302 303 301 302 303 301 301
322 322 323 324 323 321 319 318 315 314 313 311 309 307 306 304 301 300 299 299 299 299 299 298 298 298 298 299 300 300 301 302 300 301 301 302 300 298 301 299 298 299 299
318 318 319 319 319 318 318 317 316 312 311 309 308 306 304 302 301 298 297 297 297 296 296 295 296 296 297 298 299 299 298 298 299 300 302 299 298 297 297 297 297 298 300
317 316 316 315 315 314 314 313 311 310 308 307 306 304 302 301 298 297 295 295 295 295 294 294 294 294 295 296 298 297 296 297 296 299 298 296 295 295 296 297 299 298 298
315 314 312 312 311 311 310 310 309 308 306 304 302 301 300 298 296 295 294 294 293 293 293 293 293 292 293 294 294 295 295 295 294 295 296 294 294 294 295 296 296 295 295

GFSSE_925_thetae_027.txt.gz
Theta_e
344 346 346 345 341 340 336 337 335 335 333 331 331 330 331 332 332 332 330 330 330 329 330 333 334 335 337 336 334 333 328 328 326 325 322 319 318 324 332 329 327 331 329
343 343 345 344 341 340 338 337 333 333 331 332 330 330 327 329 329 328 329 331 329 328 328 331 333 333 335 334 335 333 328 328 327 325 324 318 317 321 329 326 325 328 333
342 341 345 344 340 338 339 336 333 332 332 332 329 328 328 330 330 331 330 329 329 328 328 328 330 330 332 332 331 327 329 327 326 326 323 320 323 324 327 330 324 324 332
339 339 345 343 339 339 339 337 333 332 333 332 329 329 329 330 331 330 329 329 327 325 327 327 326 328 329 328 329 326 329 329 327 325 325 325 324 327 330 331 328 328 332
340 338 344 343 342 340 337 337 333 333 332 331 327 330 330 333 332 328 330 325 326 324 322 324 324 323 327 327 326 324 326 328 327 325 324 324 324 322 329 331 329 328 330
341 340 340 342 343 340 339 337 333 334 333 329 327 328 331 332 334 331 329 327 328 326 324 323 321 320 318 317 317 325 328 327 326 325 324 322 323 323 323 328 329 330 330
341 342 344 342 341 340 340 336 335 335 334 326 327 330 332 333 336 333 329 330 329 327 325 326 326 326 327 327 327 327 327 324 322 321 321 321 322 325 326 325 329 330 330
340 341 342 343 341 340 339 337 336 335 332 325 328 332 330 331 333 335 333 330 328 326 327 328 328 329 331 331 331 331 329 327 326 324 322 320 322 324 327 327 326 328 329
338 338 334 340 341 339 338 338 337 335 332 328 325 329 330 330 329 330 330 327 326 328 328 329 328 328 329 331 331 331 330 329 327 325 324 323 321 322 326 328 328 327 327
337 337 336 331 338 336 337 338 337 334 332 329 327 323 325 327 327 327 325 325 326 326 324 321 321 322 323 321 321 322 322 324 326 326 326 324 324 324 327 327 327 328 327
337 337 337 335 332 332 335 338 336 334 334 332 330 327 327 324 323 327 329 329 328 325 322 321 322 323 325 326 326 326 327 328 328 327 328 327 326 325 328 325 325 327 328
337 337 337 337 337 339 340 337 335 335 333 333 331 329 332 329 329 329 330 328 327 327 327 327 327 328 328 328 328 328 328 328 328 328 328 328 327 328 329 328 326 326 327
335 337 337 337 337 339 341 340 339 338 337 336 335 334 332 331 327 327 328 328 327 328 328 328 328 328 328 329 329 329 329 329 329 329 328 328 328 329 330 330 329 328 328
333 335 337 337 337 339 339 339 338 338 337 337 335 333 332 330 329 328 327 327 328 328 328 329 329 329 329 329 330 330 330 330 330 329 329 329 329 329 330 330 330 330 331
332 334 335 336 337 337 339 339 338 339 337 335 333 332 331 330 330 330 330 330 330 330 330 330 330 329 329 330 330 329 327 326 325 326 326 326 325 325 325 328 329 329 331
329 333 335 335 336 337 338 339 338 337 336 335 334 333 333 332 332 332 331 331 331 330 330 329 328 327 325 323 322 322 321 322 321 319 318 320 320 320 321 323 327 329 328
325 329 331 332 333 335 337 337 338 336 336 335 334 333 333 333 332 332 330 328 327 326 325 324 319 318 318 316 315 313 313 313 316 315 312 313 315 316 315 316 316 323 326
323 323 324 327 329 331 332 337 337 336 335 334 333 332 331 330 329 328 324 319 316 315 316 315 312 311 311 310 309 309 309 309 308 307 309 310 309 307 306 306 308 310 312
323 325 325 324 323 328 334 336 335 334 333 331 329 328 327 325 317 320 316 312 312 312 311 310 309 307 305 304 303 302 303 301 303 307 307 304 302 301 302 306 305 307 308
326 327 326 324 324 333 334 331 330 327 325 325 320 319 319 315 314 312 310 309 308 308 307 305 302 301 300 300 299 302 299 303 304 304 300 298 302 299 303 301 299 300 302
329 329 330 332 332 332 329 325 322 315 315 314 313 311 309 308 308 307 305 304 302 302 301 299 299 298 298 298 301 299 299 302 300 300 296 302 298 302 301 298 300 300 297
329 329 330 331 331 329 327 322 318 313 311 310 308 306 305 305 303 302 301 300 299 299 298 297 297 296 297 298 299 299 299 300 300 295 299 297 300 299 296 298 294 295 296
324 325 325 327 327 325 323 318 314 311 309 308 306 305 303 302 300 299 298 297 297 296 295 295 295 295 296 296 296 298 297 298 296 299 296 299 298 295 296 294 295 296 296
319 321 321 321 321 320 319 315 312 311 309 308 306 303 301 300 299 297 296 295 295 294 293 293 293 294 293 295 294 297 296 295 296 296 297 294 295 295 294 294 294 295 297
317 317 317 318 317 316 315 314 311 309 308 306 303 301 299 298 297 295 294 294 293 293 293 292 292 292 292 294 293 293 294 293 294 293 292 292 293 293 293 293 293 295 294
314 313 313 313 312 313 312 310 308 306 304 302 301 299 297 296 295 293 293 292 292 292 292 291 291 291 291 291 291 292 291 292 293 291 291 292 292 291 292 292 293 293 292

GFSSE_925_thetae_030.txt.gz
Theta_e
342 347 345 341 340 339 336 336 337 335 332 333 332 331 335 335 336 332 331 331 329 329 330 334 334 337 338 336 335 332 329 328 326 325 323 319 317 322 332 328 324 330 332
342 347 345 341 342 339 336 333 332 332 331 331 331 329 329 330 330 330 329 330 328 328 329 332 333 335 336 336 334 332 328 329 326 326 325 320 316 322 327 332 325 328 333
342 346 344 340 339 338 339 333 332 331 333 332 329 328 329 330 329 330 329 329 328 329 328 329 331 331 334 332 330 328 326 327 326 326 324 322 323 324 324 331 327 324 327
341 344 344 341 339 338 338 336 332 331 334 332 328 328 329 329 330 330 329 328 327 323 327 325 325 329 329 329 328 328 328 329 327 326 323 324 324 324 328 331 331 329 329
340 342 344 341 338 339 338 338 334 332 333 332 329 329 331 331 332 329 330 327 326 324 322 324 324 325 328 327 327 326 328 329 329 326 324 322 324 323 326 332 331 329 328
338 339 343 341 339 340 338 337 335 333 332 331 328 330 330 333 334 329 329 327 328 326 324 324 324 323 321 321 321 325 327 328 326 322 319 321 321 323 327 325 330 330 330
339 338 341 342 341 341 340 338 336 335 332 331 329 330 331 333 334 333 329 329 329 327 325 325 325 326 327 327 328 329 328 325 324 324 322 321 319 322 328 328 326 330 330
339 341 341 342 342 340 340 337 336 335 333 329 331 334 334 333 334 334 331 330 327 325 325 328 328 328 330 330 331 331 330 329 328 327 325 324 322 319 327 328 329 327 327
340 342 343 343 342 340 339 337 336 335 332 327 331 333 329 329 331 334 332 328 326 325 327 325 326 327 327 328 328 327 327 327 327 327 326 326 323 323 327 328 328 329 329
340 339 339 342 342 341 338 338 337 335 332 328 324 328 326 328 328 328 327 326 326 327 325 321 321 321 322 321 322 322 322 324 327 327 327 327 327 325 330 330 329 329 329
339 337 336 335 339 339 336 338 337 335 333 331 328 325 323 323 321 322 327 328 328 326 325 324 325 325 327 327 327 327 327 327 327 328 328 328 328 327 330 331 330 327 327
339 338 336 334 331 334 335 338 337 335 334 332 330 326 329 327 327 328 329 328 327 327 327 327 327 327 328 328 328 328 328 328 328 328 328 328 328 328 332 332 330 330 328
336 337 337 336 335 334 335 336 336 335 335 334 332 331 331 331 328 327 327 327 327 327 327 328 328 328 328 329 329 329 329 330 329 328 327 328 328 329 332 331 331 330 330
333 336 336 336 336 337 339 340 339 337 336 336 335 334 333 331 327 326 327 327 327 328 328 328 329 329 329 329 329 329 327 326 326 325 323 321 322 323 326 326 327 328 329
326 334 336 336 336 337 338 340 339 338 337 336 336 335 332 330 328 329 329 330 330 330 329 329 329 328 328 325 323 322 320 320 320 318 319 317 318 316 317 322 325 326 328
327 331 335 336 336 337 338 339 338 338 338 336 333 332 331 331 331 331 331 330 329 329 328 325 322 320 318 317 318 316 314 313 313 313 312 311 311 312 313 314 316 317 319
327 330 333 335 336 337 338 338 338 337 336 334 333 333 333 332 332 331 328 324 321 320 320 319 316 313 311 310 309 308 308 308 307 304 306 308 306 305 303 305 310 312 316
326 328 331 334 334 336 337 338 337 335 334 334 333 332 331 329 329 328 322 317 314 316 313 312 310 308 305 303 302 301 301 301 300 304 306 302 301 300 300 303 301 303 305
323 324 324 325 328 331 334 335 335 333 333 330 330 328 325 326 324 322 317 311 310 310 309 306 303 300 299 298 297 299 299 298 303 303 300 298 302 298 302 300 299 298 298
322 324 325 324 323 331 334 331 328 330 325 323 322 321 322 319 315 312 308 306 305 304 302 300 299 297 298 297 298 297 297 299 300 300 297 299 297 297 299 297 297 295 293
327 327 325 323 328 330 327 324 322 317 315 316 316 314 313 309 307 305 303 302 301 300 297 296 296 295 296 295 298 296 297 301 299 298 297 297 295 299 297 295 295 293 293
328 329 330 328 324 325 327 323 319 315 312 311 308 306 305 304 303 302 301 299 298 296 295 294 294 294 295 294 295 297 297 297 299 295 297 295 297 293 294 293 293 292 293
327 329 329 328 326 325 324 319 314 311 307 305 304 303 301 301 300 299 298 297 295 294 293 293 293 292 292 294 296 295 294 294 293 295 293 295 292 294 292 293 292 292 292
324 327 327 326 325 322 321 318 314 308 306 305 303 301 300 299 298 297 295 294 294 293 292 292 292 291 292 293 292 293 294 294 293 293 294 292 292 291 292 292 291 292 291
320 321 322 322 321 319 319 316 310 308 306 303 301 300 298 297 296 295 294 293 292 292 291 291 291 290 291 290 291 291 291 290 291 292 291 289 290 290 290 291 291 291 291
316 317 317 317 316 315 313 311 309 306 304 301 299 298 297 296 295 293 292 291 291 291 290 290 290 290 289 289 289 289 289 289 290 289 288 288 289 289 290 290 290 290 290

GFSSE_925_thetae_033.txt.gz
Theta_e
342 346 342 342 339 339 338 338 338 336 335 334 334 335 336 337 336 332 330 330 329 328 331 333 333 339 339 338 337 334 330 327 324 324 324 320 317 319 331 331 328 328 331
339 346 342 340 341 340 336 336 335 333 333 332 331 332 333 334 333 331 329 329 328 327 330 332 336 337 338 337 335 332 329 330 327 326 325 321 317 321 324 331 331 327 331
341 346 343 341 341 338 335 335 332 332 332 331 330 328 328 328 328 328 329 328 327 328 327 330 332 332 334 333 330 328 327 328 327 326 323 323 323 323 329 328 331 329 329
342 345 343 341 341 338 337 339 334 331 334 331 329 328 329 329 329 329 328 329 329 327 327 325 327 329 329 329 329 328 329 330 329 327 323 323 323 323 329 329 331 331 330
343 343 343 340 339 339 340 337 334 334 334 332 328 329 330 330 331 329 330 328 325 324 323 325 324 324 328 327 327 328 329 329 329 327 325 322 321 323 326 328 333 331 330
341 340 342 339 339 338 338 336 337 337 335 332 329 329 331 332 334 331 330 327 327 325 323 323 322 320 319 319 319 324 326 326 324 321 319 319 318 318 326 328 327 330 330
339 338 343 341 338 339 340 338 338 337 335 332 328 331 331 332 334 330 331 328 328 325 323 324 324 326 327 327 328 329 329 326 325 325 325 324 322 320 325 329 329 328 330
337 337 342 341 339 341 339 338 337 335 335 332 329 332 334 331 334 334 331 329 328 325 325 327 328 328 329 329 329 330 330 329 329 327 327 326 325 323 326 327 329 330 328
338 338 340 342 341 341 340 340 336 335 335 329 331 334 331 330 332 333 333 331 326 324 326 326 325 327 328 328 328 325 323 323 324 325 326 327 327 325 329 330 330 330 330
339 340 341 341 343 341 340 339 336 336 334 328 327 332 328 328 329 331 330 327 325 326 327 324 322 321 323 324 325 326 326 326 326 327 327 327 327 327 330 332 332 332 330
340 341 342 342 343 341 340 339 337 336 334 330 326 325 327 326 325 326 327 327 327 327 326 326 326 326 327 327 327 327 327 327 327 327 327 328 328 328 331 332 332 333 332
342 342 341 340 341 341 340 339 337 337 334 332 329 326 325 325 323 324 326 328 328 327 327 327 327 327 327 328 328 328 328 329 328 328 327 327 327 331 333 334 332 332 332
338 339 339 337 336 338 340 337 337 337 334 333 331 329 329 329 328 327 327 327 327 327 327 327 327 328 328 328 328 328 329 327 326 325 323 321 321 326 327 328 328 328 328
333 336 337 337 335 334 336 335 337 336 335 334 333 331 330 331 329 327 327 327 327 327 328 328 328 328 327 327 326 324 321 320 320 318 318 316 315 317 320 321 324 324 326
327 331 335 337 336 335 335 336 337 337 336 335 334 334 333 332 330 326 327 329 330 329 329 328 327 324 322 321 317 317 316 314 312 311 310 310 310 310 313 316 317 319 320
322 320 329 335 336 336 336 337 339 339 337 336 335 335 333 330 329 330 330 329 326 325 323 322 320 317 314 313 311 309 307 306 305 304 305 306 305 304 305 312 313 315 315
323 324 327 333 335 336 336 337 339 339 337 336 335 331 330 331 330 329 324 321 319 318 316 314 312 308 307 305 304 302 301 301 300 301 304 301 302 300 301 305 307 307 307
324 325 328 331 335 335 336 337 338 335 335 333 331 331 331 330 327 328 324 320 314 313 310 308 306 303 301 300 299 299 299 298 299 304 299 298 300 297 299 299 299 298 300
323 326 328 331 334 334 335 336 335 333 333 331 330 330 328 324 325 323 316 312 308 306 304 302 300 298 297 297 296 297 297 297 303 300 298 298 297 297 298 297 296 295 295
321 323 324 327 331 332 333 333 331 328 326 325 324 322 319 319 319 314 307 304 303 302 301 298 296 295 296 294 294 295 297 298 301 299 295 296 296 297 295 295 293 293 292
321 323 324 323 328 331 329 323 320 317 317 320 318 314 315 313 307 305 303 302 301 300 296 295 294 294 294 293 294 295 297 298 298 298 294 295 295 295 293 292 291 291 291
325 325 324 324 327 326 325 322 320 314 311 310 307 306 305 304 303 303 301 300 298 295 294 293 293 292 292 293 295 295 294 294 297 297 294 293 294 293 292 290 290 290 291
326 327 325 323 323 323 323 320 313 309 305 302 302 302 301 302 301 300 299 297 295 293 293 292 292 291 292 292 293 292 290 292 292 293 294 294 293 291 290 290 290 290 291
326 327 325 323 322 320 319 318 315 307 303 301 301 300 300 299 298 297 296 294 293 292 292 291 291 290 290 290 291 291 291 293 290 290 292 291 290 288 289 289 289 290 289
324 325 324 321 320 318 319 319 315 307 304 301 300 299 298 297 296 295 293 292 291 291 291 290 290 290 289 289 289 289 289 289 290 289 289 288 287 287 288 289 289 288 289
319 321 320 319 317 317 317 315 313 306 302 299 298 298 296 295 294 293 292 291 290 290 290 290 289 289 289 288 288 287 287 288 289 287 286 286 286 287 287 287 288 288 289

GFSSE_925_thetae_036.txt.gz
Theta_e
341 344 344 342 340 337 337 337 338 337 338 335 336 336 337 338 335 332 331 330 329 328 332 332 333 337 339 339 338 334 331 329 326 324 324 323 319 320 327 331 329 327 332
339 343 343 341 339 339 337 337 336 334 333 334 332 335 336 338 334 332 329 328 328 327 330 334 336 338 339 337 336 332 331 330 327 325 325 321 319 322 327 328 331 327 329
340 343 342 340 341 339 335 335 333 332 333 332 330 331 331 332 331 327 328 328 328 328 326 330 332 334 335 333 332 332 329 327 327 326 325 322 323 323 329 330 330 330 329
340 345 341 341 340 339 336 335 333 332 332 331 329 328 328 328 329 328 328 328 329 327 327 325 328 330 330 329 329 328 329 330 329 327 326 323 322 322 327 330 330 331 331
342 344 341 341 339 338 336 336 336 335 334 331 329 329 330 329 330 330 329 327 325 324 322 322 322 324 327 327 327 327 328 328 328 325 323 318 317 318 323 328 328 334 330
342 344 342 340 339 341 338 336 338 337 335 332 329 330 330 331 332 331 330 327 327 323 322 322 319 318 317 317 317 319 324 323 321 321 322 322 321 319 323 328 328 328 329
343 343 342 339 340 339 339 337 338 338 336 333 330 330 331 332 335 331 332 328 328 323 322 323 321 324 325 327 328 329 329 328 328 327 326 326 325 323 327 327 329 328 329
340 341 342 341 340 339 340 339 337 337 336 333 329 332 332 331 333 333 332 329 329 326 325 326 328 328 328 329 329 329 329 328 327 326 326 326 326 325 329 330 328 329 330
338 338 341 342 339 340 341 338 337 336 335 331 329 332 334 330 332 333 332 331 329 327 328 329 329 329 329 329 329 326 324 323 323 325 326 326 326 326 332 333 332 332 331
339 338 339 342 340 340 342 339 338 336 335 330 327 332 330 329 330 333 331 329 327 327 328 329 326 325 325 326 326 327 327 327 327 327 327 327 327 327 330 333 334 334 333
340 340 339 341 342 341 341 340 339 336 335 332 326 330 330 327 327 327 328 328 327 327 327 328 327 327 327 327 327 328 328 328 328 328 327 327 327 330 332 331 331 332 333
339 340 341 341 342 343 342 340 339 337 336 333 329 326 326 324 323 322 324 326 327 327 327 327 327 327 327 327 328 328 328 328 327 326 325 323 323 327 329 329 329 329 330
338 339 340 341 341 342 343 341 339 337 336 333 331 329 327 327 326 327 327 327 327 327 327 327 327 328 328 327 327 326 326 324 323 322 320 319 317 321 322 322 324 325 325
334 338 339 340 340 340 341 340 338 337 336 334 332 330 329 329 329 329 327 326 326 327 328 328 328 327 326 322 320 318 317 316 314 312 311 312 312 312 316 318 319 320 322
329 330 333 337 338 338 339 339 336 336 336 335 333 332 331 331 331 327 326 327 329 329 327 325 324 322 321 317 313 311 309 307 306 305 305 306 306 307 311 315 316 318 316
321 321 323 330 336 337 336 336 335 336 336 336 334 334 333 332 329 329 330 328 326 322 320 321 317 313 311 307 305 302 301 301 300 300 303 302 302 301 307 310 310 310 309
322 322 321 321 330 336 336 335 336 337 337 336 336 335 333 329 330 329 326 322 318 315 313 312 309 305 303 302 301 300 299 298 298 302 299 301 300 299 300 303 304 303 304
321 321 321 323 326 335 336 335 336 339 338 336 335 333 329 331 328 322 322 316 313 311 307 304 302 300 299 298 298 298 297 297 300 299 298 298 298 297 297 297 297 297 298
320 321 324 325 329 333 335 335 336 337 336 334 330 330 329 323 321 320 322 314 307 304 303 301 299 297 297 297 297 297 297 297 301 296 296 296 296 295 295 294 292 292 293
321 323 325 327 330 332 334 334 333 332 329 329 329 325 321 319 318 319 313 305 303 302 301 298 296 295 294 293 295 295 297 297 301 298 297 295 295 294 294 292 291 290 290
319 322 323 327 329 332 331 327 323 323 321 321 320 318 319 313 309 306 304 302 300 300 297 295 294 293 293 292 293 294 296 295 297 297 296 293 294 293 292 291 290 289 289
319 321 322 325 327 328 327 324 321 318 313 314 312 310 308 304 303 303 302 300 298 296 294 293 292 292 292 291 293 292 291 293 294 294 293 294 293 293 292 290 288 288 289
322 322 322 323 325 325 325 321 315 313 307 303 302 300 300 302 302 301 299 297 295 294 292 291 291 291 291 290 292 291 288 289 291 291 292 291 292 290 289 287 287 288 288
323 324 323 322 322 322 321 319 318 308 302 299 299 298 299 299 299 298 296 294 293 292 291 290 290 290 290 289 290 289 289 290 289 288 290 290 289 287 286 286 288 287 287
324 325 323 320 319 318 317 316 311 304 302 298 297 297 297 297 296 295 293 292 291 291 290 290 290 289 289 288 288 288 288 288 289 288 287 287 286 286 286 286 286 287 287
322 322 320 318 316 315 315 312 312 308 300 297 296 296 296 295 294 292 292 291 290 290 290 289 289 289 288 288 287 287 286 287 287 286 285 285 285 285 285 285 286 286 286

GFSSE_925_thetae_039.txt.gz
Theta_e
340 344 342 344 341 338 337 338 338 339 339 337 338 339 338 337 334 332 331 330 328 331 333 331 332 331 340 338 337 332 331 329 325 325 324 322 318 319 326 331 329 327 330
340 343 344 342 340 337 337 339 337 338 336 335 336 336 336 337 334 332 329 328 327 329 331 336 338 339 338 338 335 333 332 329 327 325 324 320 319 323 326 330 329 328 329
341 343 346 342 339 339 336 335 332 331 331 330 331 333 334 335 332 327 328 328 329 327 328 332 334 336 335 334 333 331 331 329 327 326 325 321 321 322 328 330 327 329 327
341 343 346 340 340 338 334 332 330 330 330 331 329 329 329 328 328 328 328 328 328 326 325 326 330 331 332 330 329 329 330 330 328 326 326 324 320 320 322 329 329 331 331
342 342 342 341 340 337 334 333 332 332 332 331 329 329 329 329 329 329 328 327 325 322 321 320 323 327 328 327 327 326 326 325 324 322 320 319 318 316 318 327 329 331 335
342 343 342 342 339 338 336 334 333 335 334 331 329 330 331 330 331 331 328 326 326 321 321 321 319 319 318 317 319 322 325 324 325 325 325 325 325 322 324 326 329 329 329
342 344 343 341 340 340 338 335 336 337 336 332 330 330 330 331 333 331 330 328 328 323 323 323 323 325 325 328 329 329 329 329 330 329 327 326 326 326 330 329 328 330 330
339 342 342 340 340 340 340 337 336 337 336 333 330 331 331 331 335 332 331 329 329 325 325 327 329 329 329 329 329 328 327 326 327 327 325 326 326 326 332 332 332 330 330
340 341 342 343 341 339 339 338 337 337 335 332 329 332 330 331 332 334 332 330 329 326 327 328 329 328 328 329 328 327 326 326 327 327 327 327 327 327 331 333 334 334 333
341 341 341 341 341 342 342 339 337 336 335 331 326 330 330 329 331 334 331 330 327 328 328 329 328 328 327 327 327 327 327 327 327 328 327 327 327 328 331 333 333 332 333
339 340 340 342 342 340 341 341 339 337 335 333 326 329 330 327 327 330 328 327 327 327 327 328 328 328 327 327 327 327 327 328 328 327 327 325 325 329 331 331 330 331 331
339 339 340 341 343 341 341 341 340 338 337 334 328 327 328 327 324 324 325 326 327 327 327 327 327 327 327 327 327 327 327 327 326 324 323 322 321 324 325 324 325 326 327
336 338 339 341 346 345 342 341 340 338 336 334 330 327 325 325 324 324 326 326 327 327 326 326 327 327 327 326 324 321 318 319 319 317 316 315 316 318 319 321 321 322 323
334 336 337 339 344 345 345 343 341 339 336 335 332 329 327 328 328 328 327 326 326 326 327 327 327 325 323 321 319 315 315 313 311 310 308 309 310 311 315 318 319 321 319
330 331 336 339 339 343 345 343 340 339 336 335 332 330 329 329 330 328 326 326 328 328 325 323 322 320 316 312 310 306 304 303 302 302 303 303 304 309 313 315 314 314 313
321 322 323 330 337 339 341 339 339 338 336 336 333 332 331 331 331 327 328 328 327 322 320 319 317 313 310 306 302 301 300 300 299 301 301 302 301 304 309 309 308 308 308
321 321 320 320 325 336 338 336 336 336 336 336 334 333 333 332 329 329 329 325 320 318 315 312 309 304 302 301 300 299 298 297 298 299 299 300 299 298 302 302 302 302 303
320 320 320 320 320 328 336 336 336 336 336 337 336 335 334 331 329 328 322 318 318 314 308 303 302 300 299 298 298 297 296 297 299 298 298 298 297 296 295 294 293 293 297
320 320 320 320 322 325 334 336 336 336 337 337 336 335 332 329 325 321 317 312 310 304 303 301 300 298 296 296 297 296 296 297 297 296 295 296 295 294 294 293 291 291 290
319 319 320 322 325 329 332 335 335 336 336 334 333 330 328 323 320 317 311 305 303 303 301 299 296 295 294 294 295 295 296 297 299 296 296 293 294 294 293 292 291 290 290
318 319 322 324 328 330 332 332 327 328 326 325 326 324 321 320 313 311 303 302 303 302 298 296 295 293 293 292 294 296 295 294 297 298 295 293 293 293 292 290 289 289 290
318 318 321 325 328 329 328 325 322 321 314 318 316 314 312 309 305 303 303 302 300 298 295 294 293 292 291 292 293 293 296 295 294 294 293 292 291 291 290 289 288 288 289
317 318 320 324 326 326 327 325 320 314 310 307 305 305 301 302 301 302 301 300 297 295 293 292 291 291 292 291 291 293 295 294 293 292 292 291 291 289 289 288 287 288 288
319 319 320 322 324 324 324 323 321 312 306 301 300 299 298 299 300 299 298 296 294 293 291 291 290 290 290 291 290 289 289 291 292 292 291 291 289 288 287 287 287 287 287
319 321 321 321 321 321 320 320 314 309 303 299 297 297 296 295 297 296 295 294 292 291 291 290 290 290 289 289 289 289 289 289 289 290 290 290 288 288 287 286 286 287 287
319 322 321 319 317 316 316 314 313 310 300 296 295 295 294 294 293 293 293 292 291 290 290 290 289 289 288 288 287 287 287 288 289 288 288 288 288 287 286 286 286 286 286

GFSSE_925_thetae_042.txt.gz
Theta_e
342 347 344 344 342 340 337 338 339 340 340 341 340 339 339 337 334 333 331 330 327 333 334 330 331 333 340 339 336 333 331 330 326 324 322 320 318 321 324 331 329 326 326
343 346 345 344 341 338 337 340 340 340 338 338 338 338 337 337 334 332 329 329 328 330 334 337 339 338 338 338 335 334 332 330 327 325 324 321 318 325 328 331 326 328 326
344 346 347 342 340 337 336 339 338 336 335 333 337 335 337 336 332 328 329 329 329 327 330 332 334 336 337 336 334 332 331 330 328 326 324 325 324 321 327 331 330 328 327
344 347 347 342 339 338 335 336 335 335 333 331 332 332 332 330 329 330 329 329 327 327 325 328 330 332 332 331 330 329 330 330 328 323 326 324 322 320 322 328 331 331 332
345 346 346 341 339 338 335 333 333 333 332 331 329 329 329 329 328 328 328 328 325 322 322 322 325 328 329 328 326 325 326 323 320 325 325 326 326 322 321 325 329 330 333
344 344 347 341 340 337 335 334 334 334 332 330 330 330 331 331 331 331 328 327 323 321 324 322 320 319 318 319 323 326 326 327 328 329 330 329 328 325 328 328 327 330 330
344 343 345 342 340 338 336 335 335 336 334 331 331 331 333 330 333 330 329 328 326 322 323 324 325 326 326 328 329 328 329 328 330 331 331 331 331 326 332 332 331 329 330
345 344 344 343 340 339 338 336 335 336 336 332 331 331 331 332 333 333 331 329 327 325 326 327 329 330 330 329 329 327 325 324 329 330 331 331 330 327 331 333 333 334 332
344 343 343 344 343 341 340 338 336 336 336 331 330 332 332 331 332 334 332 330 326 326 327 328 329 329 328 329 328 327 327 327 330 331 330 330 329 328 331 334 334 335 335
343 342 342 343 343 343 343 339 337 336 335 331 326 331 330 330 332 333 331 330 327 328 328 329 329 329 328 327 327 327 328 329 331 330 330 329 327 331 333 333 332 332 333
343 342 341 343 343 343 344 342 339 337 335 332 326 330 329 331 334 334 332 327 327 327 327 327 328 327 327 328 327 327 327 329 329 329 329 326 324 327 328 327 327 328 329
341 343 342 343 343 343 343 344 342 340 338 335 330 330 330 329 329 329 328 327 327 327 327 327 327 327 328 329 329 327 326 326 325 324 322 321 320 323 323 323 323 324 325
339 341 342 343 344 344 343 343 342 341 339 337 332 330 330 328 325 326 328 327 329 327 329 328 329 329 325 321 320 319 319 319 318 317 316 314 313 318 320 320 321 323 322
336 339 341 342 343 344 343 343 342 341 339 337 334 329 329 329 329 329 329 328 329 329 330 330 324 322 320 314 313 314 313 312 311 310 310 306 307 313 318 319 319 317 316
333 336 339 341 342 342 343 342 342 341 338 338 334 331 331 331 331 330 328 329 329 328 324 320 322 319 313 311 308 307 306 306 304 307 305 303 304 311 315 314 312 312 312
330 330 333 339 341 341 343 342 340 340 338 338 335 332 332 331 330 329 328 328 328 325 322 316 313 310 308 306 304 303 304 302 303 303 304 305 303 309 309 308 307 306 306
324 323 323 329 337 340 341 341 342 339 339 338 336 334 330 331 330 327 328 327 324 319 311 309 308 305 304 303 303 302 302 301 303 301 302 302 301 300 300 301 299 299 300
324 323 322 320 326 335 339 341 340 339 339 339 336 334 333 332 331 328 327 321 315 310 309 305 304 304 302 301 301 301 300 300 301 301 301 300 299 299 297 294 293 292 293
323 323 322 322 323 330 336 339 340 339 339 339 337 334 333 330 328 327 321 316 306 305 304 302 301 301 300 300 300 300 300 301 300 299 300 298 297 297 297 295 293 292 292
321 322 322 323 325 330 334 337 339 338 339 337 333 328 332 323 327 325 316 311 303 302 301 300 299 298 298 298 299 299 300 301 299 299 299 297 296 296 295 294 293 293 292
321 321 322 323 327 331 333 335 337 334 329 325 324 327 323 321 322 318 309 303 301 300 299 298 298 298 297 297 299 300 300 298 301 300 298 297 296 295 294 293 292 292 292
321 321 323 324 328 331 332 331 331 326 318 319 320 318 314 317 318 314 302 301 300 298 297 297 297 297 296 296 297 298 301 300 299 299 296 296 295 294 293 292 291 291 291
321 322 322 325 329 330 330 330 322 314 310 309 306 310 308 309 307 304 300 299 298 297 296 296 296 296 297 295 294 296 299 300 296 296 296 294 294 293 292 291 291 290 290
321 322 322 325 328 328 325 320 318 321 316 308 305 305 303 303 301 299 298 297 296 296 295 294 294 294 295 295 294 293 293 293 295 296 295 294 293 292 291 291 290 290 290
319 322 322 324 325 323 321 323 323 321 315 305 300 299 298 297 298 296 296 295 295 294 294 293 293 293 293 293 293 293 292 292 292 293 294 294 292 292 291 290 290 289 289
318 323 323 322 322 321 322 322 324 318 307 300 297 296 296 295 295 294 294 294 293 293 293 292 292 292 291 291 291 291 291 291 292 292 293 292 292 291 291 290 289 289 289

GFSSE_925_thetae_045.txt.gz
Theta_e
343 348 346 343 342 341 339 338 342 343 342 342 341 340 339 336 335 333 332 330 330 336 334 333 332 333 340 339 336 333 331 329 326 324 321 318 317 325 326 328 326 329 327
345 347 345 344 342 340 338 338 341 341 340 341 341 340 339 337 335 331 331 328 330 332 336 337 338 333 338 337 336 334 331 330 327 326 323 325 324 321 330 332 331 329 326
347 347 347 343 340 339 340 341 341 339 338 339 339 339 339 337 332 330 330 330 329 329 332 334 337 337 338 337 335 334 331 330 328 324 324 327 325 322 322 329 331 329 330
345 347 347 343 340 337 338 341 340 337 334 335 336 337 337 333 330 329 330 330 327 327 328 330 332 333 332 332 332 330 329 329 323 320 327 324 322 321 317 326 330 332 333
345 346 346 342 338 338 335 338 337 335 333 332 332 331 331 329 328 329 329 328 325 323 322 326 328 328 327 327 326 324 324 320 322 328 328 329 328 327 322 327 327 330 332
344 346 346 341 340 338 334 336 336 334 332 330 331 331 330 331 331 330 329 326 322 324 323 321 322 322 321 320 324 328 328 326 330 331 330 330 331 328 331 331 330 328 330
343 347 347 340 340 337 335 335 336 335 332 331 331 332 332 333 333 332 328 328 322 326 327 327 326 325 324 328 329 330 329 327 329 331 331 331 332 327 331 333 333 334 333
343 345 346 342 340 337 336 336 337 336 333 331 332 333 334 333 334 334 331 329 324 325 326 328 330 330 328 327 327 326 324 323 330 330 331 331 332 328 333 334 335 336 336
342 342 344 345 343 338 338 336 336 337 335 332 331 332 333 332 334 335 332 330 325 326 326 327 327 327 327 328 328 327 327 327 330 331 331 331 330 331 334 334 334 333 334
343 341 343 344 344 343 342 338 336 336 335 328 330 331 331 330 332 334 332 330 326 328 327 329 329 328 327 327 327 328 328 330 330 330 330 330 327 329 330 330 329 330 331
342 341 341 342 343 343 343 341 338 337 335 330 327 330 329 332 335 333 333 329 326 327 327 327 327 327 327 329 328 327 328 329 328 328 328 327 324 326 326 325 325 326 327
342 341 340 342 342 343 344 343 341 340 337 334 329 330 331 330 332 333 331 326 327 326 327 327 327 328 329 330 329 326 325 324 324 323 321 320 318 321 322 322 322 325 325
340 341 341 342 342 341 342 343 342 340 339 336 332 331 330 329 328 327 328 327 328 327 330 330 330 329 324 323 322 322 321 320 320 319 317 314 311 315 318 320 322 321 319
337 339 341 341 342 342 342 341 341 342 339 337 334 331 330 328 326 328 329 329 330 329 330 330 325 321 319 317 317 315 315 314 312 310 311 308 306 316 318 319 316 315 315
333 336 339 340 341 343 343 342 341 340 339 337 336 331 330 330 330 330 329 329 329 329 327 324 320 318 317 315 313 310 308 308 306 307 307 307 307 315 315 313 312 311 310
332 333 336 339 340 342 343 342 342 340 339 337 336 333 331 332 332 331 331 329 326 328 325 319 318 315 313 310 308 306 306 306 304 305 305 306 305 309 309 308 306 305 304
327 331 331 335 338 340 341 342 341 340 339 337 336 333 333 333 332 331 327 326 323 319 317 315 312 310 308 306 306 305 304 303 303 303 304 304 303 301 301 299 297 297 297
327 326 326 325 332 337 339 341 340 341 339 338 337 335 333 333 332 327 323 321 317 316 313 310 308 307 305 304 303 303 303 302 303 302 303 302 301 301 300 298 295 294 294
326 326 326 324 324 329 336 339 340 340 338 338 338 336 334 333 329 323 320 320 313 311 309 306 305 303 303 302 301 301 302 303 302 301 302 300 299 299 299 297 295 294 294
324 325 325 325 325 325 330 337 339 339 338 339 338 336 335 331 324 321 321 312 309 307 305 304 303 301 300 300 301 301 302 302 301 301 301 299 299 297 297 296 295 294 294
322 324 324 325 325 326 330 335 338 339 338 339 338 335 332 326 317 318 314 308 306 305 304 303 301 301 300 299 301 301 302 300 302 301 301 299 299 297 296 295 294 293 293
322 324 323 324 325 328 331 334 336 338 334 330 326 327 322 316 312 311 311 306 303 302 301 300 301 300 299 297 298 301 305 302 301 302 300 298 297 296 295 294 293 293 292
321 323 323 324 325 329 331 334 335 329 320 319 317 313 311 313 314 311 306 303 301 301 300 299 299 299 299 298 296 298 302 304 298 298 298 297 296 296 294 293 293 292 292
320 323 323 324 326 330 332 333 331 323 317 311 310 308 307 305 306 304 302 301 300 299 299 297 297 297 297 297 297 295 295 295 297 297 297 296 296 294 294 293 293 292 291
316 322 324 324 326 331 331 332 327 322 321 309 307 305 304 302 300 300 300 299 298 298 296 296 296 295 295 296 295 295 294 294 294 295 296 296 294 294 293 293 292 292 291
315 319 324 325 327 330 330 326 323 326 313 305 302 301 300 299 298 298 298 297 297 296 295 295 295 294 294 294 293 293 293 293 294 294 294 294 293 293 293 292 292 291 291

GFSSE_925_thetae_048.txt.gz
Theta_e
348 344 342 342 341 340 338 339 342 343 343 342 341 340 338 336 335 333 331 332 335 336 337 338 331 335 340 338 336 332 330 328 325 323 320 321 317 328 328 329 325 330 330
348 345 343 343 342 340 338 339 341 341 342 342 341 340 338 336 333 332 330 329 332 336 337 340 335 333 338 338 336 334 330 328 325 319 322 326 324 322 325 330 330 327 329
348 349 343 343 341 339 338 339 340 339 339 340 340 340 338 336 331 331 330 329 328 332 334 337 338 336 338 337 335 333 329 327 321 321 326 327 325 321 317 322 331 326 330
348 348 345 342 340 337 339 341 339 338 338 339 338 339 337 332 331 330 330 328 327 329 331 333 334 333 332 331 331 329 327 319 318 326 325 324 326 325 323 324 328 331 332
348 348 344 341 339 336 339 339 337 334 334 335 335 337 333 331 329 329 329 324 322 324 327 329 330 329 328 327 326 322 317 319 328 329 329 329 329 328 330 329 326 329 331
347 347 343 340 337 335 333 335 335 334 332 332 331 331 330 329 329 330 325 319 321 323 324 326 327 326 325 324 323 325 325 324 330 330 330 331 331 328 331 333 333 332 330
348 347 342 339 339 335 332 334 335 334 331 331 332 331 332 333 332 331 328 322 324 326 326 325 323 321 320 326 330 329 327 325 330 330 331 331 332 328 334 333 333 336 336
348 346 341 340 339 335 333 333 334 333 332 332 332 333 334 334 334 333 330 325 324 326 328 328 327 326 324 325 325 324 323 325 331 331 330 331 331 332 335 333 333 334 334
347 347 343 340 339 336 335 334 335 334 331 331 333 333 333 332 334 334 331 327 324 325 325 324 325 324 325 326 326 326 327 328 331 330 330 329 328 330 332 331 330 331 332
343 345 343 343 340 337 337 335 335 334 331 328 331 332 331 331 333 335 331 328 325 325 325 327 326 326 326 327 327 327 327 330 328 329 328 327 326 329 328 327 328 328 328
342 343 344 344 342 341 339 337 336 335 333 326 329 330 330 332 333 334 331 328 324 325 326 326 326 327 327 329 328 326 328 327 326 326 325 324 322 324 324 324 324 327 328
342 341 343 344 342 341 341 340 337 336 335 329 325 329 329 332 335 333 333 328 325 326 326 326 327 329 329 329 326 325 323 322 321 321 320 319 318 321 322 322 325 323 322
341 341 340 343 343 341 343 342 340 339 336 334 328 327 329 331 332 333 327 325 326 325 328 329 330 326 326 323 321 320 319 318 318 314 315 314 310 316 320 323 319 319 318
340 341 340 341 342 342 340 341 341 340 338 335 332 331 330 329 328 326 328 328 329 329 330 327 325 325 323 317 315 314 313 312 310 308 309 308 306 313 320 318 316 314 314
337 340 341 341 342 342 341 341 341 340 340 336 335 331 330 328 326 327 329 329 329 329 329 327 323 320 317 315 312 309 307 307 307 306 307 306 307 316 315 313 311 309 309
332 338 340 340 341 342 342 342 341 340 340 337 335 332 330 328 329 330 329 329 329 329 326 322 318 316 313 311 308 306 305 305 304 305 304 306 305 308 309 307 306 305 305
327 332 336 339 340 342 342 342 342 341 338 338 335 334 330 331 331 330 330 330 327 327 321 317 316 311 309 307 305 304 304 303 302 304 304 304 303 302 301 299 297 298 298
327 327 332 336 339 340 342 342 339 341 339 337 336 335 331 333 332 331 329 326 321 316 315 313 309 308 306 304 303 302 302 302 302 302 303 302 301 300 300 299 298 296 297
326 327 327 331 335 338 340 341 340 339 341 337 336 335 332 333 332 330 326 324 317 314 312 310 307 305 303 302 301 301 301 302 303 301 302 301 300 299 299 297 296 295 295
323 327 327 326 325 331 338 341 341 338 340 337 336 336 334 333 332 327 323 319 314 312 309 305 304 302 301 300 300 301 302 302 302 301 301 300 299 299 297 296 295 294 294
321 323 327 326 325 324 326 338 340 340 339 338 337 336 334 333 329 323 320 313 312 308 305 303 302 301 300 298 300 301 302 301 302 301 301 300 299 298 296 295 294 293 293
321 322 322 325 325 324 324 330 338 339 338 338 338 336 334 330 325 319 314 311 308 306 303 301 302 300 299 297 297 299 299 300 300 300 301 299 298 296 296 295 294 293 292
320 321 322 323 325 325 326 331 336 336 335 334 334 332 329 322 319 313 310 309 306 304 301 301 300 300 299 297 296 298 297 298 295 298 300 298 297 296 295 294 294 293 292
318 320 321 323 324 324 327 333 335 331 325 325 325 321 316 316 315 310 308 305 303 302 301 299 298 297 298 297 296 295 295 295 293 292 296 296 296 294 294 294 293 293 292
314 319 320 321 323 324 328 333 332 328 323 319 317 316 315 312 309 306 304 302 301 300 298 297 296 296 296 296 295 295 294 294 294 292 291 293 294 293 293 293 293 292 292
315 314 315 322 324 324 330 333 330 324 320 314 310 310 307 305 302 301 301 300 299 298 297 296 295 294 294 293 293 293 293 293 292 292 290 290 290 291 292 291 291 292 292

GFSSE_925_thetae_051.txt.gz
Theta_e
346 342 341 341 343 342 345 346 345 344 343 342 341 340 337 336 334 332 334 335 336 338 338 334 333 339 339 337 335 329 328 326 322 317 324 323 324 327 330 331 329 330 331
345 343 341 342 341 340 341 342 342 341 341 341 340 338 338 335 334 332 331 333 336 336 339 338 332 337 339 337 336 330 328 324 317 323 326 326 323 325 324 325 325 328 329
343 343 344 344 340 338 338 342 341 341 340 340 341 340 337 334 333 332 330 329 333 335 338 334 336 338 338 337 335 332 328 318 321 325 325 324 324 324 322 321 331 328 331
343 344 344 342 339 337 339 341 340 340 340 339 340 339 335 333 332 330 328 328 330 334 337 337 336 337 334 333 332 328 322 319 326 326 326 325 326 328 327 326 328 331 333
344 344 343 340 338 336 340 339 337 337 338 338 338 337 334 332 330 330 328 327 327 331 333 333 331 331 329 329 326 321 315 328 329 329 329 327 329 331 332 330 325 326 328
345 345 342 339 337 334 337 334 331 333 335 335 337 334 331 329 330 329 326 326 326 325 329 329 329 328 327 325 323 319 318 330 330 328 329 331 331 330 333 332 332 334 333
347 343 341 338 336 331 330 330 331 332 333 332 332 331 330 331 332 328 322 324 325 326 328 328 329 325 325 327 323 324 323 328 330 329 330 331 331 331 334 332 332 335 335
347 342 340 338 337 331 330 330 331 331 332 332 331 333 333 333 333 330 324 322 325 328 329 328 327 324 322 324 322 322 323 327 331 330 330 329 330 333 334 332 333 333 333
346 342 339 339 338 333 332 331 329 329 332 332 332 333 334 335 333 331 328 324 325 324 323 322 322 322 324 325 325 326 327 330 330 329 329 328 328 331 331 330 330 330 330
345 343 340 339 337 334 334 333 331 328 331 332 333 334 332 332 334 331 330 324 324 323 323 323 324 325 326 327 326 326 329 329 328 328 327 326 326 328 327 327 327 330 330
346 344 341 339 337 336 335 334 334 331 326 330 331 332 331 331 334 334 330 324 324 324 325 325 325 326 328 328 326 326 325 323 326 324 324 322 321 324 324 324 327 326 325
344 343 341 340 339 337 337 336 335 334 329 325 329 329 330 332 332 334 331 326 324 324 325 326 327 328 327 328 324 324 321 319 319 320 320 318 316 319 322 325 323 321 321
342 344 343 341 340 339 339 337 336 335 333 326 324 328 329 333 334 332 332 329 325 325 327 328 329 327 323 323 320 317 317 316 316 314 312 312 310 320 324 321 319 318 317
342 340 343 343 341 340 340 340 337 337 335 332 326 323 328 331 334 333 328 324 326 326 329 329 328 325 322 317 316 316 314 312 311 308 308 308 307 318 320 317 315 313 312
340 341 340 343 342 341 341 341 339 338 337 335 333 329 327 330 330 330 327 328 329 328 329 326 324 323 318 315 312 309 306 306 306 305 306 306 307 316 315 312 310 309 309
338 341 340 341 342 341 341 341 339 339 337 336 334 331 329 328 328 325 327 329 329 329 327 324 323 319 316 314 310 306 305 305 303 304 304 305 305 307 309 308 306 305 305
326 339 341 340 341 342 342 340 339 340 338 337 335 333 330 329 327 327 329 328 328 325 325 321 317 315 313 309 306 304 303 303 302 303 303 304 303 302 300 300 300 301 301
325 326 340 340 341 341 341 341 340 340 340 338 335 334 331 329 329 329 329 329 327 326 321 317 314 311 308 306 303 302 302 302 302 302 303 303 302 301 300 299 298 298 298
322 324 332 339 340 341 342 342 341 341 340 338 336 334 332 330 331 330 329 329 325 319 316 314 310 308 305 303 301 301 301 301 303 302 302 302 301 300 299 298 297 295 295
320 321 324 330 339 339 341 341 341 340 340 338 337 334 334 331 332 331 329 325 320 317 314 312 308 304 302 301 301 301 302 301 302 301 301 301 299 299 298 297 295 295 294
320 320 322 326 333 337 340 341 340 338 338 339 337 334 334 331 332 332 328 323 317 316 313 309 304 303 301 300 301 300 301 301 302 301 300 300 299 298 297 296 295 294 294
319 319 320 324 326 335 338 340 340 340 338 339 337 335 335 333 333 332 327 320 315 313 309 305 304 301 299 297 298 299 298 299 300 301 301 301 298 297 296 295 294 294 293
317 319 320 321 324 325 328 338 339 338 337 337 336 335 334 333 332 331 323 316 312 312 307 304 303 302 300 297 296 298 297 298 294 297 300 299 297 296 295 294 293 293 293
314 316 318 320 321 324 323 326 337 336 332 334 335 334 333 332 328 324 318 311 307 306 303 302 301 301 300 298 296 295 295 295 292 292 295 296 295 295 294 293 292 293 292
314 314 315 318 320 322 324 324 329 332 332 331 329 329 324 321 321 315 313 310 307 304 302 301 299 298 298 297 297 295 294 294 294 291 291 292 294 294 292 292 291 291 291
312 312 313 316 319 321 323 326 329 332 330 321 316 315 314 313 313 312 308 305 304 302 300 298 298 297 296 295 294 293 293 293 292 291 289 289 289 291 291 290 290 290 290

GFSSE_925_thetae_054.txt.gz
Theta_e
346 345 345 345 345 345 345 345 345 345 344 342 342 340 336 335 333 335 336 336 338 338 335 334 340 339 337 336 329 327 325 320 316 322 323 324 328 329 330 330 329 330 331
345 344 343 345 344 344 345 344 344 343 342 341 340 339 337 336 334 334 335 338 337 337 336 333 337 339 338 337 334 327 327 317 322 326 326 324 322 326 327 330 325 329 330
344 343 343 343 342 343 343 343 341 341 340 340 339 338 336 336 333 331 332 333 333 335 334 332 336 339 339 337 334 329 321 318 325 324 323 323 325 326 324 325 329 330 330
342 343 343 342 340 340 341 342 340 340 340 341 340 338 335 335 332 330 328 331 333 336 335 334 339 339 338 335 332 325 317 324 325 326 327 325 329 330 327 326 329 331 332
342 343 343 340 338 339 342 341 341 341 340 340 340 337 334 333 331 329 328 329 333 335 335 337 336 334 333 329 327 316 325 328 328 328 327 328 329 332 332 330 329 324 325
343 344 343 340 338 338 341 340 340 340 339 339 339 336 334 331 330 328 327 327 332 333 333 332 330 330 330 330 325 316 329 329 328 328 328 330 330 332 333 331 332 334 334
343 343 342 339 337 339 339 337 336 338 337 337 337 334 331 331 330 327 326 326 327 331 331 331 331 328 327 325 320 321 325 328 329 329 329 331 330 333 333 333 333 335 335
343 342 340 339 336 334 333 329 329 333 335 335 334 331 331 333 332 327 328 327 327 329 330 330 327 321 318 320 321 322 326 328 329 329 329 328 328 332 333 332 333 333 332
343 341 339 337 335 329 328 328 326 329 331 331 331 332 333 332 331 328 325 328 329 330 327 324 323 321 323 324 325 326 327 329 328 328 327 327 327 331 330 330 330 330 332
344 341 339 337 335 330 330 329 326 329 330 330 333 333 333 332 330 330 324 324 325 323 322 321 322 324 325 326 326 327 327 328 327 328 326 326 326 328 328 327 330 330 328
343 341 339 338 336 332 331 331 328 329 331 331 332 332 332 334 333 331 327 322 323 322 323 324 325 326 327 326 326 325 322 324 327 324 322 321 323 325 325 327 326 325 324
343 342 340 339 337 334 333 333 331 327 330 331 332 332 331 331 333 333 329 323 323 324 325 326 326 327 328 326 325 323 320 320 321 320 319 317 316 321 326 324 322 322 321
343 342 341 339 338 335 335 334 334 331 327 329 330 330 330 330 332 334 330 326 324 324 326 327 327 328 324 326 321 318 317 317 316 314 313 311 317 322 323 320 319 317 316
345 344 341 340 338 336 336 335 334 334 331 326 326 328 329 331 333 334 331 331 324 325 326 328 328 324 321 320 316 314 313 313 312 310 308 308 308 323 320 317 314 312 311
342 343 342 340 339 338 337 337 335 335 334 331 325 325 329 330 332 332 332 326 325 325 327 328 327 322 318 315 313 311 309 307 306 306 306 307 311 318 316 312 311 310 309
339 340 342 342 340 339 339 338 338 336 336 335 331 323 326 329 331 333 331 327 328 327 328 328 323 321 317 313 311 308 306 305 304 304 305 305 307 311 310 308 306 305 305
332 339 339 342 342 340 340 339 339 338 337 336 334 331 325 328 330 331 328 328 328 329 328 324 320 317 316 313 308 305 303 303 302 303 304 304 304 303 303 303 302 302 302
323 327 338 340 341 341 340 340 340 339 338 337 335 334 331 329 329 326 326 327 328 328 325 321 317 315 313 309 305 303 302 302 302 302 303 303 302 301 300 299 298 299 300
319 320 326 337 340 341 341 340 340 339 339 338 336 335 333 330 328 327 326 328 326 325 322 320 317 314 309 304 302 301 301 301 302 302 302 302 301 300 299 298 297 296 295
319 319 319 331 338 339 340 340 340 339 339 338 337 335 334 330 329 328 328 327 326 324 320 317 315 310 305 302 300 301 301 302 302 301 301 301 300 299 298 297 296 295 294
318 318 319 319 335 338 339 339 339 339 340 339 338 336 334 332 330 329 329 327 325 323 320 315 312 306 302 300 300 300 301 301 301 301 300 300 299 298 297 296 295 294 294
316 317 318 319 319 336 338 338 338 338 340 340 338 337 334 333 331 330 330 327 324 319 315 313 311 303 301 299 299 299 300 299 300 301 300 300 299 298 296 294 294 293 293
314 316 317 317 319 323 337 338 338 337 336 338 337 336 335 333 332 331 330 329 323 317 315 312 307 304 302 297 298 299 297 298 295 297 299 300 297 295 294 294 293 292 292
313 315 316 317 318 320 330 338 336 335 334 335 336 337 336 332 331 331 330 327 320 316 314 308 303 303 303 300 296 296 296 296 293 293 295 296 295 294 294 293 292 291 291
312 313 313 314 315 319 322 330 335 334 334 335 335 335 335 331 327 329 327 322 316 312 309 304 303 303 301 300 298 295 294 294 293 292 292 292 294 294 293 292 291 290 290
311 312 312 312 314 315 320 322 328 333 333 331 330 328 327 325 323 322 318 314 311 308 305 304 301 300 299 298 296 295 294 293 292 292 290 289 289 291 291 291 290 290 289

GFSSE_925_thetae_057.txt.gz
Theta_e
344 346 344 346 346 346 346 346 346 345 344 343 343 340 337 334 333 335 333 332 331 333 336 340 339 337 337 336 333 327 323 318 320 322 323 326 328 328 330 330 329 331 330
344 345 344 345 345 345 345 345 345 344 343 341 342 340 338 336 336 337 338 337 337 337 335 337 339 338 337 336 333 328 321 319 325 324 323 321 323 326 328 328 327 329 330
344 345 344 344 344 344 344 344 343 342 341 340 339 339 338 336 335 335 336 336 334 332 335 334 339 339 338 336 332 326 319 324 323 322 322 325 327 325 324 330 329 331 329
344 344 344 344 342 344 343 342 342 341 340 339 339 337 337 335 333 331 333 332 333 332 333 335 337 338 339 333 329 319 324 324 326 327 324 328 331 330 326 326 329 330 331
344 343 343 342 342 343 342 341 341 341 341 340 340 337 336 334 332 329 330 331 333 334 333 336 338 338 334 329 323 320 326 328 328 328 328 329 329 332 331 331 330 327 324
343 342 342 340 340 340 340 340 340 341 340 340 339 336 335 333 330 329 329 332 334 333 334 335 334 332 329 328 322 326 328 329 328 328 329 330 330 333 332 332 333 335 334
344 342 341 340 338 340 340 340 340 340 339 339 338 336 333 331 329 328 327 330 332 333 333 332 330 328 326 326 323 325 327 328 328 328 329 329 334 334 334 334 334 334 334
343 343 341 340 338 340 342 339 339 338 338 339 337 335 332 332 328 325 326 326 331 332 332 330 329 328 324 324 325 324 327 329 328 328 327 328 329 333 332 332 332 331 332
343 343 340 339 337 337 339 334 333 335 335 336 335 332 332 331 326 325 327 327 329 331 331 329 325 322 323 324 324 325 327 329 328 328 327 328 327 330 330 329 331 332 331
343 341 339 338 336 333 330 328 328 332 333 334 332 330 331 329 328 324 324 328 330 329 326 325 323 324 325 325 326 327 328 328 327 327 326 327 327 329 327 329 330 329 327
344 341 340 338 336 330 329 328 327 329 329 331 331 330 330 329 329 328 322 323 324 323 323 323 324 325 326 326 326 326 324 326 327 325 323 322 326 326 327 327 325 325 323
343 342 341 338 336 331 330 329 326 328 328 330 333 333 333 333 333 331 327 322 322 322 324 325 326 327 327 326 325 322 321 323 324 321 318 317 321 325 326 323 322 321 320
343 342 341 338 336 333 331 330 328 327 330 330 331 332 331 332 332 333 330 324 324 324 325 326 327 327 327 327 322 321 319 319 318 316 313 314 320 326 322 320 318 317 315
342 343 341 339 337 335 333 332 331 327 328 330 331 331 332 330 330 333 332 327 323 324 326 327 327 326 323 326 318 316 314 313 312 310 309 307 313 323 319 316 314 312 312
342 342 342 340 339 336 335 333 333 331 328 325 328 330 330 330 330 332 333 330 326 324 325 327 327 323 319 318 314 312 310 308 307 306 306 309 320 319 316 313 312 310 309
343 343 342 341 340 338 336 335 334 333 332 330 326 324 328 329 330 332 332 331 328 324 326 327 328 322 317 313 310 309 307 305 305 304 305 307 310 313 312 309 307 306 306
338 342 342 342 341 339 337 336 336 335 334 333 332 329 323 327 329 331 332 331 326 326 326 327 327 319 314 311 310 308 305 304 303 303 304 305 306 306 306 305 304 303 303
322 333 338 341 341 340 338 338 337 336 336 335 335 333 328 322 327 329 332 332 327 327 327 327 323 317 313 311 308 304 303 302 302 302 304 303 303 301 301 300 299 299 299
318 319 328 338 341 340 339 339 338 338 337 336 336 335 332 328 325 328 330 330 327 327 328 325 320 315 312 309 304 302 301 301 301 302 303 302 302 301 299 298 297 296 295
316 317 318 328 337 340 340 339 339 338 338 338 337 336 335 332 329 328 328 326 325 327 325 322 318 312 311 306 302 301 300 301 301 302 302 302 300 299 298 297 296 295 294
316 315 316 317 324 338 338 339 339 338 338 338 338 337 336 334 333 329 328 325 327 326 324 319 313 312 307 302 300 300 300 301 301 300 301 300 299 298 298 296 295 294 294
316 315 315 315 318 331 337 338 338 338 338 339 338 338 336 335 333 330 328 327 327 326 321 317 315 310 303 300 300 299 298 299 300 300 299 299 299 298 297 295 294 294 293
313 315 316 315 315 319 334 337 337 337 336 336 336 337 337 336 333 330 328 328 328 325 321 317 315 313 303 299 299 300 297 298 296 297 299 299 299 297 295 294 293 292 292
311 313 313 314 315 315 321 336 336 335 334 334 335 336 337 336 333 330 329 329 328 324 320 316 312 310 305 301 297 297 297 297 293 293 295 297 296 295 294 293 292 291 291
309 310 311 312 313 315 317 332 336 333 333 333 334 334 335 335 332 330 329 328 326 320 316 315 309 305 304 303 300 295 295 294 294 292 291 292 294 294 293 292 291 290 290
309 310 312 312 312 312 314 321 333 334 333 333 332 331 333 333 331 330 328 326 321 319 314 312 307 304 304 302 300 298 296 294 292 292 290 290 290 292 292 291 290 289 289

GFSSE_925_thetae_060.txt.gz
Theta_e
342 343 344 346 345 345 345 346 346 346 344 344 344 341 338 337 334 333 333 333 334 338 340 339 338 337 337 335 332 327 323 322 322 323 324 327 328 330 330 330 329 330 328
343 344 345 346 345 346 345 345 346 345 343 342 342 341 338 338 337 337 338 338 338 336 336 340 339 337 336 334 333 328 322 323 324 323 321 323 324 326 329 325 326 328 330
344 345 344 346 344 344 344 345 344 343 341 340 341 340 338 338 337 338 338 337 334 333 335 338 339 339 337 335 333 326 328 324 322 321 325 326 326 325 328 328 330 331 328
344 345 344 344 343 344 344 344 343 342 340 339 339 338 337 335 334 335 334 333 331 334 334 336 339 337 336 330 328 328 325 324 327 323 327 329 330 328 326 328 329 331 330
344 345 343 343 344 343 343 342 342 340 339 338 337 336 336 334 332 331 331 331 332 331 333 335 337 338 332 327 324 328 326 327 327 328 329 328 331 330 331 332 333 329 326
345 344 344 343 343 342 341 341 341 339 338 338 338 336 335 334 330 330 331 332 333 331 333 338 337 334 329 326 327 328 328 328 327 328 329 330 332 334 334 333 335 334 335
344 343 343 341 342 340 339 339 339 339 341 338 338 336 335 332 330 329 330 332 333 332 335 335 332 329 327 325 327 327 328 328 327 328 328 333 334 334 334 334 333 334 334
346 343 342 340 339 339 339 340 340 339 339 340 338 337 334 332 329 328 328 331 333 333 333 332 330 328 325 326 325 326 327 328 328 328 328 329 332 332 332 331 331 332 331
347 342 341 341 338 338 339 339 339 339 338 337 337 335 332 330 328 327 327 328 332 332 331 329 327 322 324 327 324 325 328 328 328 327 327 328 328 331 329 331 332 330 328
345 342 340 340 338 337 338 338 337 337 336 336 335 333 331 327 323 325 324 327 330 331 329 323 323 325 328 326 326 326 328 328 327 326 327 326 329 328 329 329 329 326 325
344 343 341 339 337 335 334 331 330 333 334 334 333 331 330 328 326 322 323 327 328 326 324 323 325 327 326 326 326 326 327 327 327 325 323 324 327 327 328 326 325 324 322
342 344 341 339 337 335 330 328 327 328 330 332 331 330 330 329 329 328 321 323 325 325 324 325 327 327 326 325 325 322 323 325 325 322 319 318 324 328 325 323 322 320 318
340 341 343 339 338 335 330 329 327 325 327 328 330 330 330 331 332 332 328 323 324 324 326 328 327 327 326 325 324 321 320 321 319 317 314 317 323 325 321 319 317 316 314
341 341 341 340 338 336 331 330 328 325 327 327 330 332 332 332 333 332 332 327 323 324 326 327 327 327 325 326 320 318 316 315 314 312 310 309 323 323 319 316 314 313 312
340 340 340 342 339 337 333 331 330 328 326 327 328 331 331 331 330 331 332 330 323 324 325 326 327 326 322 325 317 314 313 311 309 307 306 312 323 320 316 314 312 310 309
341 340 342 343 339 338 335 334 332 331 328 325 327 329 330 331 330 329 331 332 329 324 325 326 327 324 319 316 314 311 309 307 305 305 306 314 317 314 313 310 308 307 307
339 342 342 342 341 339 338 336 334 332 331 329 326 326 328 328 329 329 331 332 330 328 325 326 327 323 316 313 310 309 307 305 304 304 305 307 309 309 308 307 305 304 305
322 337 341 343 342 340 339 337 336 334 333 333 331 329 326 325 327 328 331 332 331 329 325 325 326 323 315 312 310 307 304 303 302 303 304 305 305 304 303 302 302 301 301
316 319 332 340 341 341 340 339 337 336 335 334 334 333 332 329 324 327 328 329 331 329 326 326 325 321 314 310 308 304 302 302 301 302 304 304 302 301 300 298 297 296 295
315 316 317 326 335 339 340 338 337 336 336 336 335 335 334 333 330 323 326 328 331 330 326 325 325 317 313 310 304 301 301 301 301 302 303 302 301 300 298 298 297 295 295
314 315 315 316 322 338 339 337 337 336 336 337 336 336 335 335 332 327 324 328 330 330 326 326 319 315 311 306 301 300 300 301 301 301 302 302 300 299 298 297 296 295 294
313 314 314 315 316 329 337 337 337 337 336 337 337 337 337 336 334 332 329 327 328 327 324 324 321 312 307 303 301 299 298 299 300 299 300 300 299 298 297 297 295 294 294
310 312 313 314 314 317 330 335 337 337 336 334 336 336 337 336 335 334 332 328 328 325 325 324 318 316 308 302 301 302 297 299 296 297 299 299 298 298 297 295 294 293 293
309 310 311 312 313 314 324 334 335 335 335 334 335 336 336 336 336 335 333 331 328 325 324 323 319 314 311 304 299 299 299 299 296 293 294 297 297 296 295 294 293 292 291
307 307 309 310 311 313 314 331 334 334 334 334 334 334 333 334 335 334 333 331 328 325 323 322 319 311 310 308 303 297 295 295 294 293 293 292 294 294 293 293 292 291 290
308 308 308 308 310 311 313 316 329 332 333 333 333 333 333 332 333 332 332 330 329 325 323 321 318 313 310 307 304 301 298 296 293 292 291 290 291 293 293 292 291 290 289

GFSSE_925_thetae_063.txt.gz
Theta_e
341 341 345 345 346 344 345 346 346 345 344 345 345 342 339 338 337 336 335 335 337 340 339 339 337 337 336 333 331 329 328 326 325 322 322 326 330 330 331 328 329 328 331
341 346 344 346 345 344 345 345 345 345 344 343 343 343 340 340 338 336 336 334 333 338 340 339 338 337 335 334 329 328 328 323 322 320 322 322 325 329 328 325 326 329 329
343 346 347 344 344 344 345 346 345 344 343 342 341 341 340 340 339 339 339 338 337 336 336 339 338 337 336 332 328 330 327 321 321 324 324 326 325 327 329 327 331 329 328
344 348 349 345 344 344 345 345 344 342 340 340 340 339 339 338 338 338 336 333 332 334 335 338 339 337 335 326 327 328 324 325 322 326 329 330 329 328 328 328 330 331 330
347 345 347 344 343 343 344 343 342 341 339 338 338 337 335 335 334 334 332 332 331 332 333 337 338 336 331 323 326 327 326 327 327 328 328 330 331 331 333 334 333 329 331
346 346 345 343 342 342 342 342 342 340 338 337 336 335 334 334 331 332 332 332 331 331 332 335 338 333 328 324 330 329 327 327 328 328 330 331 333 334 334 335 335 334 335
345 344 344 344 342 342 341 341 340 339 338 337 336 335 334 333 331 332 332 332 331 332 337 336 333 331 328 324 329 328 327 327 327 328 332 333 334 334 334 333 334 334 333
346 344 345 343 342 342 340 339 339 339 338 338 338 337 335 332 330 330 331 332 332 332 335 333 330 329 323 322 327 327 328 327 328 327 328 331 332 332 330 332 332 331 329
346 344 344 343 342 338 339 339 339 339 339 340 338 336 334 331 329 329 330 332 333 333 332 330 329 325 324 324 323 326 328 328 328 327 329 331 330 330 331 331 328 328 327
343 343 342 340 338 338 339 339 339 338 338 338 336 335 332 328 325 327 325 330 332 332 331 328 325 327 328 324 324 326 328 328 327 327 328 328 329 329 330 329 327 325 324
342 343 341 340 339 337 337 338 338 337 336 336 335 334 331 327 326 325 324 327 330 331 327 325 327 329 326 326 326 327 328 327 326 325 324 326 327 330 327 327 324 323 321
341 343 342 341 339 338 337 337 335 335 335 335 334 333 330 328 325 321 323 326 326 324 324 326 328 327 326 325 325 323 324 326 325 322 321 323 327 327 325 323 322 319 317
340 340 340 342 339 338 335 333 330 330 331 333 333 331 329 328 329 327 322 325 327 324 327 328 327 327 326 325 324 321 322 323 322 319 316 317 328 325 322 320 318 316 315
340 340 339 340 339 338 335 331 328 328 328 328 330 330 329 329 330 331 329 323 323 323 325 327 327 327 326 326 322 320 319 318 317 314 313 317 326 323 319 316 315 314 313
340 340 339 339 340 338 336 331 329 328 326 325 327 329 329 330 331 332 332 330 323 324 325 326 326 327 324 325 321 316 315 314 312 310 307 309 324 321 317 315 313 311 311
340 339 339 339 340 339 337 334 331 329 327 325 326 327 331 331 330 331 331 332 328 323 324 326 326 327 322 324 318 314 312 309 307 306 309 321 322 316 314 312 310 309 309
339 341 340 339 339 341 338 336 334 331 330 327 326 327 328 330 331 330 329 330 331 327 324 325 326 325 320 317 313 310 309 307 305 305 308 314 315 312 310 309 307 307 306
319 333 339 340 341 343 339 338 336 334 332 331 328 327 327 328 329 330 329 329 331 330 326 325 326 326 319 315 311 309 307 305 304 304 306 309 309 308 306 305 305 303 303
316 316 323 335 339 341 341 339 338 337 335 333 332 331 328 327 326 328 328 328 331 331 329 325 325 325 320 313 310 308 305 302 302 303 305 305 305 304 302 300 299 297 297
315 315 316 323 333 339 339 338 337 336 336 335 334 333 332 331 329 326 326 327 330 332 330 325 325 323 319 313 307 304 302 301 301 302 304 304 302 301 300 299 297 296 295
314 313 314 315 318 335 338 336 335 336 336 335 335 335 335 334 333 332 328 325 327 329 331 326 324 321 314 309 304 300 300 300 300 301 303 303 301 301 299 298 297 296 295
312 313 313 314 315 323 335 335 336 336 336 336 335 335 335 335 335 334 332 327 324 328 330 328 324 317 311 308 304 302 305 301 300 300 301 302 301 300 298 297 297 295 295
308 310 311 313 314 315 327 335 336 336 335 335 334 334 337 336 336 335 334 331 325 326 329 329 324 322 310 305 304 305 304 308 300 298 299 300 299 299 298 297 296 295 294
306 307 308 310 311 313 315 333 334 334 334 334 333 334 336 336 335 336 335 332 329 325 327 328 324 321 317 309 301 302 301 301 304 300 295 297 298 297 297 296 295 294 293
307 307 307 308 309 311 312 325 331 333 333 333 333 333 334 335 334 334 334 333 332 330 327 327 322 319 317 312 308 300 297 297 296 297 299 294 295 296 295 294 293 292 292
309 309 308 307 307 308 309 311 328 332 333 332 333 333 333 334 331 330 331 331 330 330 328 326 323 319 316 313 312 309 305 298 297 296 294 292 295 293 293 292 292 292 291

GFSSE_925_thetae_066.txt.gz
Theta_e
344 349 344 347 347 346 346 346 346 346 346 346 346 345 343 342 342 342 340 341 340 341 340 338 337 337 335 332 332 331 332 329 324 322 324 330 331 332 331 327 328 328 335
344 349 344 345 346 345 345 346 346 345 344 343 343 343 342 341 339 337 336 336 340 341 340 338 337 336 335 331 330 330 329 322 320 321 321 320 327 329 329 323 328 328 330
344 349 347 345 344 344 344 345 345 345 343 343 343 342 342 341 340 340 339 339 336 338 340 339 338 336 335 330 330 330 326 321 323 323 324 323 324 329 326 328 331 328 328
347 348 348 344 342 345 344 345 345 344 342 342 341 341 340 340 340 339 338 335 335 337 337 338 338 337 331 330 330 329 325 322 326 330 329 328 327 329 329 329 331 330 329
347 348 349 344 343 344 345 345 344 342 340 339 339 338 337 337 338 336 334 332 333 334 336 337 337 332 329 331 330 329 326 325 327 330 331 332 331 333 334 334 330 332 334
347 348 348 344 343 344 344 344 342 340 339 338 337 336 335 334 334 333 331 332 330 333 335 337 337 330 328 331 328 327 326 327 329 331 334 334 336 334 336 336 333 335 335
346 348 349 343 342 343 343 342 342 340 338 337 336 335 334 333 332 332 333 333 330 331 334 338 334 330 328 328 327 327 327 327 330 332 334 335 335 334 333 335 334 333 332
347 347 348 344 342 343 342 341 341 339 338 337 336 335 334 332 332 330 332 333 330 336 336 335 332 330 326 326 327 327 327 328 330 330 332 333 331 331 332 333 331 330 329
347 346 346 347 344 342 341 340 339 339 338 338 336 336 334 332 331 330 331 332 332 335 335 333 332 328 327 324 327 328 328 328 330 330 330 332 329 332 333 331 329 328 327
346 345 346 346 344 343 341 338 338 339 340 339 337 335 333 329 327 328 331 332 332 333 332 330 328 326 326 323 325 328 328 327 330 330 329 330 329 332 331 329 326 325 324
345 344 344 344 343 341 340 341 339 339 337 339 337 334 332 328 327 326 327 331 332 332 330 327 328 327 324 324 325 327 328 329 329 328 328 326 329 330 328 326 324 323 321
343 343 344 343 341 340 339 338 339 337 336 335 336 334 332 328 327 326 326 328 330 330 326 326 328 326 326 327 326 326 329 328 327 326 325 326 330 328 325 324 322 319 318
342 343 343 343 342 340 338 336 336 336 334 334 334 334 332 329 329 326 327 328 329 326 327 327 329 328 328 327 325 326 326 326 324 322 320 322 328 326 323 321 318 317 316
342 342 342 342 342 340 339 336 333 333 333 333 333 333 332 330 331 329 326 327 328 327 328 329 329 329 328 325 324 324 323 322 321 319 318 318 327 324 320 317 316 315 314
342 342 341 341 341 341 340 338 334 332 332 331 331 332 331 330 331 332 331 328 327 327 328 329 329 327 328 324 321 321 319 318 315 315 314 315 326 322 318 316 314 313 313
340 341 341 341 340 341 341 339 336 334 332 331 331 331 331 330 331 333 334 333 329 327 327 328 328 326 325 322 318 316 315 314 313 314 316 320 324 320 316 315 312 311 311
342 342 341 341 340 340 341 340 338 336 334 332 331 331 331 332 333 333 333 333 333 327 327 327 328 325 322 319 316 313 312 312 313 314 316 318 319 316 313 312 310 309 309
329 338 342 341 341 341 340 341 340 338 336 334 333 332 331 331 332 332 332 332 332 332 328 327 326 323 320 316 314 311 310 310 311 312 313 313 313 311 310 309 308 305 305
319 320 328 337 341 341 341 340 340 339 338 336 335 333 332 331 331 331 331 331 331 332 330 327 325 324 320 316 313 310 308 308 309 309 310 311 310 309 308 305 304 301 300
318 318 318 324 334 338 339 338 338 339 338 338 337 336 334 332 332 331 330 330 330 332 331 329 324 322 321 319 311 308 308 306 305 307 308 308 307 306 305 304 301 299 296
316 316 317 317 323 333 339 337 336 336 338 336 338 338 336 334 332 331 331 331 330 330 332 330 325 320 316 316 311 309 306 305 304 305 307 307 305 304 303 303 300 298 297
314 315 316 316 317 322 332 337 337 338 337 337 335 336 337 336 334 332 332 331 330 329 330 330 326 320 319 312 315 316 315 308 304 303 305 305 305 303 301 300 299 297 297
311 312 314 315 315 317 323 330 335 335 336 336 335 335 334 335 335 334 332 332 331 329 328 329 325 320 318 311 313 318 317 319 309 304 303 304 303 302 301 299 297 296 296
310 309 309 310 312 313 317 325 331 332 334 334 335 335 336 334 334 334 333 333 331 328 327 327 324 321 320 313 308 306 306 310 312 308 301 302 301 301 300 298 296 295 294
311 310 309 308 309 311 312 319 328 331 331 332 334 334 335 334 333 331 332 332 331 328 327 326 323 321 319 318 312 307 305 304 302 305 312 300 298 298 298 297 295 294 293
313 312 311 310 309 308 311 313 321 327 330 331 332 333 333 333 331 331 330 329 329 328 326 325 322 320 319 318 312 310 307 306 302 303 303 302 301 296 294 294 293 292 292

GFSSE_925_thetae_069.txt.gz
Theta_e
346 351 348 343 346 345 346 345 344 344 345 345 344 345 344 343 342 342 341 340 340 341 340 337 338 337 334 333 333 333 330 324 320 320 322 330 332 332 324 328 329 335 337
347 350 346 344 347 346 345 346 345 345 345 345 345 344 343 343 342 342 341 339 341 341 339 339 337 335 333 331 331 330 322 319 319 319 321 320 325 329 323 328 328 330 332
348 349 348 345 345 346 345 346 345 344 344 343 343 343 342 341 340 338 338 337 339 341 339 338 337 336 332 331 331 330 327 322 321 324 324 324 327 328 330 328 327 329 329
347 348 348 344 344 346 345 345 345 344 343 343 342 343 342 341 340 339 338 337 338 338 338 339 338 333 332 331 330 329 322 324 330 331 329 328 330 331 330 330 331 326 327
348 347 349 343 343 345 344 345 345 343 342 341 340 340 339 339 340 337 334 333 333 337 337 338 336 329 330 330 332 325 324 327 330 331 332 334 335 335 336 333 334 336 334
347 348 347 343 344 345 344 344 344 342 339 339 338 336 335 336 336 333 333 332 333 335 335 338 334 328 329 330 329 326 327 329 331 332 333 336 337 336 336 334 335 335 336
346 351 348 343 344 344 344 344 342 340 339 338 336 335 334 334 333 334 333 331 331 332 336 337 332 328 331 330 327 327 326 329 331 333 335 335 333 333 335 334 333 332 332
346 349 348 344 343 343 343 342 342 340 338 337 336 335 334 333 332 332 334 330 332 333 337 336 333 329 329 328 327 327 326 329 330 330 333 332 331 333 333 332 330 329 329
346 348 348 346 344 343 343 341 341 340 338 338 336 334 333 331 328 332 334 331 335 336 335 334 331 328 325 324 326 327 327 330 331 330 332 331 332 334 332 331 329 327 326
346 346 346 346 344 345 342 341 339 339 338 338 337 335 334 329 325 331 331 331 332 335 334 332 330 326 324 322 326 328 327 328 331 330 331 327 331 332 330 328 326 325 324
346 345 345 346 344 343 342 341 338 338 339 340 337 335 333 329 326 324 331 331 332 332 332 330 327 326 324 322 325 328 327 330 329 329 330 325 331 330 328 325 324 323 321
345 345 344 343 341 340 339 341 339 339 340 340 338 335 333 329 327 325 328 331 331 331 330 327 326 324 324 327 326 326 329 329 328 328 328 323 330 328 326 324 321 320 318
343 345 344 342 341 339 338 338 338 338 336 336 337 335 333 329 328 327 328 328 331 330 330 328 328 328 328 328 327 327 328 328 327 325 323 323 329 327 324 321 319 318 317
342 343 343 343 341 340 338 336 336 336 336 334 335 335 333 331 330 326 328 328 329 327 328 328 330 329 329 328 326 326 326 325 324 322 321 319 328 325 322 319 317 316 316
343 342 342 343 342 341 339 339 336 334 334 333 333 333 333 331 331 330 327 327 329 328 328 329 330 330 329 327 324 325 324 323 320 318 317 316 327 323 320 318 316 315 315
342 342 342 342 341 342 341 341 339 336 334 333 332 333 332 331 331 332 333 330 328 328 328 329 329 329 328 327 324 322 321 319 317 316 316 319 326 323 319 317 314 313 313
341 341 343 342 341 341 342 341 341 339 336 334 332 332 332 331 331 331 333 333 332 329 328 328 329 328 326 325 322 320 318 317 315 316 317 322 322 320 317 315 313 311 311
339 342 342 342 342 341 341 342 342 341 338 336 334 333 332 331 331 333 333 333 333 332 328 327 328 328 325 323 321 318 316 315 315 315 315 316 319 317 314 312 311 309 309
325 330 338 342 342 342 342 342 343 342 340 339 337 335 334 333 332 333 333 332 332 332 331 328 328 327 324 322 320 317 314 314 314 314 313 313 314 313 311 310 308 306 305
321 322 323 328 337 342 342 340 340 342 342 340 339 337 336 334 333 333 332 332 332 332 331 331 328 327 325 323 320 316 313 312 311 311 311 311 311 311 309 308 306 304 300
319 319 320 321 322 331 336 341 338 339 339 340 340 339 338 336 335 333 333 332 332 332 332 331 330 327 324 324 320 314 313 310 309 308 310 310 309 309 308 306 304 302 300
317 318 318 319 320 321 328 338 338 337 336 337 338 338 339 338 336 335 334 334 333 332 332 331 330 328 324 322 318 316 318 313 309 307 308 309 308 307 306 305 304 301 299
314 315 316 318 318 319 320 326 337 337 338 338 337 336 336 337 338 336 334 334 333 333 332 332 330 329 324 320 318 321 322 322 311 308 306 307 307 306 305 303 302 300 299
312 312 313 314 316 317 318 319 325 333 336 336 336 336 335 336 335 336 336 334 334 333 332 331 331 330 324 321 315 318 318 313 317 311 306 305 306 305 304 302 300 298 297
314 313 312 311 312 313 314 316 320 325 331 332 332 333 335 336 335 333 333 334 333 334 333 331 330 330 324 322 316 314 312 310 308 310 310 304 304 303 303 302 299 297 296
316 315 314 313 311 311 312 314 315 321 327 330 330 331 332 333 335 334 331 330 331 332 331 331 329 328 325 324 318 317 313 314 309 306 310 305 302 300 299 299 298 296 294

GFSSE_925_thetae_072.txt.gz
Theta_e
350 345 346 344 344 345 345 345 345 345 345 345 345 345 343 342 342 339 338 339 340 339 337 337 337 335 334 334 334 332 326 319 317 317 321 329 330 330 328 330 334 336 338
350 347 346 343 345 345 345 344 344 344 344 345 345 344 343 342 342 341 340 340 342 340 339 337 336 334 332 331 330 328 319 317 321 326 325 318 323 327 328 327 325 332 332
350 350 344 343 345 344 345 345 344 345 344 344 343 342 342 341 339 337 335 336 342 339 338 337 336 334 332 331 329 324 319 323 324 324 325 325 323 330 330 329 331 333 332
350 349 345 344 345 344 345 345 345 344 343 341 341 341 341 340 340 339 337 336 337 338 339 338 333 330 329 329 326 320 326 330 331 331 328 331 333 332 330 331 332 330 333
349 347 346 344 346 345 345 345 344 343 341 340 339 339 339 340 340 336 334 332 337 336 339 336 330 329 326 329 323 323 329 331 332 333 333 336 335 337 336 337 337 337 336
347 348 343 343 345 344 344 344 343 342 339 338 337 336 336 337 335 333 332 332 333 335 338 336 330 329 327 327 325 324 330 331 332 332 334 334 335 337 337 336 335 335 334
349 349 342 342 343 344 344 344 343 340 338 337 336 334 334 335 333 331 331 330 332 333 338 335 330 329 329 326 326 324 329 330 333 334 333 330 331 335 335 333 331 331 332
351 347 341 343 344 343 344 344 340 339 338 336 335 333 333 333 334 333 331 330 332 334 337 335 332 330 329 324 326 325 329 330 332 330 331 327 333 334 332 331 330 329 328
349 347 343 344 344 343 343 342 341 339 337 336 335 334 332 331 331 334 331 334 333 334 336 335 331 329 327 322 326 326 329 330 329 332 330 327 332 333 331 329 328 326 326
348 347 345 345 343 344 342 341 340 338 337 337 335 334 332 325 326 332 332 333 336 335 335 333 330 327 323 321 326 326 327 330 329 330 328 325 330 331 329 327 326 325 324
348 346 345 343 344 343 341 341 339 337 337 337 336 334 333 325 319 330 330 331 332 333 333 332 329 326 320 320 325 327 326 330 329 330 329 325 330 330 327 325 323 322 321
346 346 345 344 342 342 342 340 338 337 337 338 337 335 333 329 325 322 330 331 331 331 332 330 327 320 321 321 323 326 329 329 328 328 328 324 330 328 326 323 321 320 319
345 346 345 345 342 343 341 340 338 336 337 338 338 335 333 330 327 325 327 330 330 330 331 328 322 321 328 327 327 324 329 329 327 326 324 322 329 328 325 321 319 318 317
343 344 345 343 341 339 338 340 338 340 338 337 339 336 333 330 328 327 327 323 328 329 329 326 325 322 328 329 327 326 327 327 325 323 322 320 328 327 323 320 318 317 317
342 343 343 343 342 339 339 337 336 337 336 335 334 336 334 331 330 327 327 327 328 329 327 328 329 329 329 329 326 326 326 324 323 320 318 317 323 324 321 319 317 316 316
343 342 342 341 343 342 339 338 336 335 334 334 333 334 334 333 331 330 327 328 328 329 327 329 329 330 329 329 325 324 324 323 320 318 316 316 320 324 321 319 316 316 315
341 343 342 341 342 341 342 341 340 337 335 333 332 332 333 332 331 331 332 329 328 328 328 328 329 329 328 328 326 323 322 320 318 316 317 320 320 323 321 318 315 314 314
341 341 342 342 341 341 340 342 341 340 338 335 334 332 332 332 331 331 331 333 332 331 328 328 328 329 328 327 324 321 319 318 316 315 316 319 321 320 320 317 314 313 312
332 340 341 343 342 341 341 341 342 341 340 338 336 334 332 332 331 331 331 332 334 332 332 328 327 328 328 325 323 321 317 316 315 315 315 316 320 318 316 315 312 311 310
323 324 327 340 342 342 342 340 342 343 340 340 338 336 335 333 332 331 332 333 332 333 332 331 328 327 328 325 322 320 317 314 314 314 314 314 314 314 313 311 310 309 306
319 321 322 323 326 339 342 342 340 340 342 342 341 339 337 335 333 332 332 333 332 332 332 331 330 328 327 325 322 318 315 314 312 311 312 312 312 312 311 310 309 307 305
316 318 318 319 321 322 330 341 341 339 338 339 340 341 340 338 336 334 333 333 332 332 332 332 331 330 328 325 322 314 311 312 311 310 310 310 310 310 310 308 307 305 302
313 314 316 318 318 319 320 324 340 338 336 336 335 337 339 339 339 337 335 334 333 333 332 332 332 330 328 325 324 317 317 317 309 309 309 308 309 309 308 307 306 304 301
313 312 313 314 315 317 318 319 327 338 337 338 338 336 335 335 335 336 338 336 334 334 333 332 332 330 329 324 322 319 320 316 311 307 307 307 308 308 307 306 304 303 300
314 313 312 311 312 314 315 315 317 318 323 335 337 336 336 335 335 335 333 335 336 334 334 333 332 331 330 326 321 318 317 317 312 309 304 305 306 307 306 305 303 302 299
316 314 314 312 311 311 311 312 313 315 318 324 330 331 330 331 333 335 335 332 331 331 332 332 332 331 330 328 324 319 318 317 313 309 309 303 303 304 304 303 301 299 298

GFSSE_925_thetae_075.txt.gz
Theta_e
347 347 345 345 345 345 345 344 344 344 344 345 344 344 342 341 338 337 340 341 338 337 336 336 335 334 334 334 331 321 317 317 320 318 324 328 331 333 335 333 336 337 338
346 347 345 344 345 345 345 345 344 344 344 344 344 343 342 342 342 342 340 341 340 339 337 336 334 333 331 330 326 318 319 324 325 323 316 317 324 331 328 324 331 332 332
345 347 345 343 344 344 344 343 343 343 344 343 342 343 342 341 338 336 340 342 341 338 337 336 334 332 330 329 319 321 323 324 325 326 328 324 327 332 332 329 332 333 333
345 347 343 344 344 344 344 343 343 344 343 341 339 339 338 338 338 337 338 338 338 340 338 334 331 330 328 322 322 329 330 330 332 329 329 334 332 332 334 335 334 336 335
346 346 345 344 344 344 344 344 343 342 340 340 339 339 339 340 338 335 334 336 336 339 335 330 328 328 324 319 327 330 330 331 333 334 335 335 336 338 338 337 336 337 337
346 344 345 344 345 344 344 343 342 342 340 338 337 337 337 337 335 333 328 330 334 338 336 330 328 327 322 321 327 330 331 332 333 332 334 334 336 337 336 334 333 334 335
346 344 344 345 344 344 343 343 342 340 339 337 335 334 335 335 332 328 331 331 333 337 337 332 329 327 322 322 327 329 330 334 333 332 329 328 335 334 332 331 329 331 331
347 342 343 344 343 343 343 343 340 338 337 335 333 333 335 334 331 333 329 332 333 338 336 335 331 328 323 324 324 329 329 332 330 329 327 328 333 333 330 329 328 328 328
346 341 341 343 343 342 343 342 339 338 337 335 333 333 328 330 332 330 332 333 334 337 336 333 331 328 322 323 324 329 330 330 331 329 328 327 332 332 329 328 327 327 326
344 340 341 344 343 342 343 340 339 337 335 335 334 334 328 326 332 332 334 333 332 334 335 332 330 327 321 321 324 328 330 329 331 329 328 326 331 331 328 327 325 325 323
345 342 341 342 343 342 341 340 338 337 336 336 334 333 332 323 331 331 332 334 334 333 333 332 330 327 319 320 325 325 330 329 329 329 327 326 331 329 327 325 324 323 321
347 345 343 340 342 341 340 340 338 337 336 336 335 334 331 324 320 330 329 331 332 332 332 332 330 324 318 318 323 324 329 329 329 328 327 325 330 328 326 323 321 320 320
346 345 343 341 340 341 340 339 338 337 336 336 336 335 333 328 326 322 330 330 330 330 331 331 328 318 320 323 322 323 329 329 327 327 326 324 327 327 325 321 320 319 319
345 345 344 342 341 341 341 340 339 337 336 337 336 336 333 332 327 327 326 328 330 330 330 330 325 318 327 328 327 325 327 327 326 326 324 322 324 327 324 321 319 318 318
341 344 344 343 342 342 341 340 338 338 337 338 338 338 332 332 327 327 326 326 324 326 327 326 323 320 327 328 328 326 326 325 324 323 322 320 321 325 323 320 319 318 317
340 341 343 343 341 338 338 338 337 338 339 337 336 336 334 333 329 329 327 327 326 328 326 327 328 329 329 329 328 325 326 324 323 321 318 317 317 322 322 320 318 318 317
341 341 340 343 342 341 338 337 336 335 336 335 334 335 335 333 331 330 328 326 327 328 329 327 328 329 329 329 328 325 324 323 322 320 317 316 318 321 321 321 318 317 316
341 342 342 340 341 342 341 339 338 337 334 334 333 332 333 333 332 331 331 328 327 328 328 327 328 329 329 328 328 326 323 322 321 319 316 317 319 320 321 320 318 316 315
339 340 342 341 340 339 341 341 341 340 337 336 334 333 332 332 332 331 330 331 331 329 329 327 327 328 329 328 327 326 321 320 318 316 316 316 319 321 320 319 317 314 314
329 339 341 341 342 341 338 339 341 341 339 338 337 335 334 332 332 332 331 330 331 333 332 330 328 327 327 328 326 324 322 318 316 315 315 316 317 319 319 317 316 314 310
319 323 336 335 342 342 341 340 338 341 340 339 338 338 336 334 333 332 331 330 331 332 333 332 331 328 327 327 326 321 320 317 315 315 315 314 314 315 317 316 313 311 310
316 317 319 320 326 341 341 341 341 339 341 341 340 340 338 336 334 333 332 331 331 332 332 332 332 330 328 327 324 316 312 313 314 313 313 313 312 313 313 312 311 310 309
313 313 314 316 317 318 328 341 341 341 339 338 338 339 340 339 338 334 332 332 332 332 332 332 331 331 329 328 326 321 313 314 310 312 312 311 311 311 312 312 310 309 307
312 312 312 313 315 316 317 318 336 339 338 338 335 333 330 334 337 338 337 335 332 332 332 332 332 331 330 327 324 323 322 318 311 311 309 309 309 309 310 310 309 307 306
314 313 312 311 312 313 314 314 315 328 335 335 336 336 337 336 334 332 332 333 334 335 333 333 332 331 330 328 326 324 319 319 313 309 310 307 307 308 309 309 308 307 304
315 314 314 312 312 311 311 311 312 313 314 315 321 332 337 335 335 333 334 333 333 332 333 334 333 332 331 330 328 325 322 319 317 310 308 305 305 304 305 306 304 303 300

GFSSE_925_thetae_078.txt.gz
Theta_e
345 345 346 345 346 346 345 345 346 346 346 344 341 340 338 337 341 341 341 339 337 336 337 336 335 336 335 333 330 328 329 329 328 326 329 332 334 336 336 336 337 337 336
344 345 345 345 345 344 344 345 345 344 344 344 344 343 342 342 341 341 341 339 339 336 335 335 334 332 330 329 327 328 328 324 318 318 320 327 329 330 329 332 332 332 330
346 344 345 345 344 344 344 343 344 344 343 343 343 343 342 342 341 340 342 341 338 337 336 335 332 330 328 327 328 328 325 325 327 329 324 325 330 332 331 325 331 334 333
346 346 345 345 345 344 344 343 343 343 342 341 339 338 337 337 338 337 338 340 340 337 336 333 328 324 322 327 331 330 331 330 328 332 334 330 334 336 336 336 337 336 334
347 346 345 345 345 344 343 343 343 342 341 338 338 337 338 339 336 333 335 336 341 334 332 327 321 317 321 329 330 331 331 333 333 334 335 334 337 338 337 335 337 336 336
347 344 344 344 344 343 343 343 341 341 340 338 337 338 337 337 335 330 330 334 339 335 330 328 323 318 325 329 330 330 332 332 332 333 334 336 336 335 334 333 334 334 333
345 342 344 344 343 343 343 341 341 340 338 337 336 336 335 335 330 327 328 333 338 337 332 329 327 319 321 328 329 330 333 333 332 330 331 334 334 333 331 331 331 331 331
343 344 344 344 344 343 342 341 341 338 337 336 334 334 335 333 331 329 331 332 336 338 334 332 330 322 322 327 329 329 333 331 329 327 328 331 332 331 330 329 328 328 328
342 344 345 344 343 343 342 341 338 337 336 334 331 334 334 330 332 328 330 331 335 337 335 332 331 325 320 323 329 329 331 330 329 328 327 329 331 330 329 328 327 327 326
343 342 345 344 343 343 343 340 338 337 336 334 333 332 327 330 330 332 332 335 336 336 334 332 331 327 318 323 328 329 329 330 330 328 327 327 330 330 329 327 326 325 323
345 343 342 343 342 342 342 339 337 336 335 334 333 331 323 329 331 334 333 333 334 335 334 331 330 327 317 323 325 329 329 330 330 328 327 327 330 329 327 325 324 323 322
345 343 343 343 342 342 341 339 337 336 335 335 334 333 331 319 331 333 333 333 333 333 333 331 330 327 318 320 324 327 329 328 328 328 327 326 329 329 326 324 322 321 321
342 343 343 342 342 341 340 339 337 337 336 336 335 334 331 323 325 330 329 331 332 331 331 331 330 326 318 319 323 324 327 328 328 328 327 326 327 328 326 323 321 320 320
344 343 341 340 342 341 340 339 338 337 336 336 336 335 334 327 321 327 326 329 330 330 329 330 330 325 319 322 322 323 327 328 327 327 326 325 324 328 325 322 320 319 320
345 344 343 341 342 341 340 339 338 337 336 336 336 336 335 330 328 327 325 326 328 328 327 329 329 323 320 327 327 326 325 326 327 326 325 323 322 323 325 323 321 319 319
344 344 343 343 341 341 340 340 339 338 336 335 336 336 336 332 331 328 327 326 325 325 323 324 324 323 319 327 328 327 325 325 325 324 323 321 320 321 322 323 321 320 319
341 343 343 343 342 342 341 341 339 337 337 337 336 336 337 333 332 328 328 327 326 326 326 325 326 327 328 328 328 327 325 325 323 322 320 319 319 319 320 322 321 320 319
341 340 340 342 341 338 340 340 338 336 336 338 336 335 335 334 333 330 329 329 327 327 328 328 327 327 328 328 329 328 327 323 323 322 320 318 317 317 320 321 321 320 319
340 341 341 340 340 341 338 337 336 335 334 335 334 333 333 335 334 331 331 330 329 327 327 328 328 327 328 328 328 328 327 324 322 322 320 318 316 317 319 320 320 318 318
337 339 340 341 340 339 341 340 339 339 337 334 334 333 332 332 332 332 332 331 330 330 327 327 327 327 327 327 328 327 326 324 321 319 319 317 316 317 319 320 320 319 316
324 335 339 341 340 340 340 339 339 340 340 338 336 336 335 334 332 331 331 331 330 330 330 329 330 328 327 326 327 325 324 323 321 318 316 316 315 316 318 320 320 318 316
316 325 335 338 339 340 341 340 339 338 340 340 339 338 336 335 334 332 332 332 331 330 330 331 332 331 330 328 325 318 317 319 320 320 316 314 314 315 315 318 319 317 315
313 314 317 319 322 336 340 340 340 339 338 339 340 339 339 337 336 333 332 332 331 330 330 331 332 331 330 328 326 324 313 315 312 316 316 314 312 313 313 314 316 316 314
312 312 312 313 314 316 319 330 340 340 339 339 338 337 337 337 338 338 337 333 331 331 330 331 331 331 330 328 325 324 322 317 313 314 312 312 312 310 311 311 312 313 311
313 312 312 312 312 312 312 314 320 337 338 338 336 336 336 334 333 333 334 334 334 333 334 332 331 330 330 329 328 326 323 319 314 312 317 311 309 308 308 309 309 310 310
314 314 311 311 312 311 311 311 312 314 320 325 324 324 328 333 335 335 333 332 332 331 331 332 332 331 331 331 328 327 325 321 319 314 310 308 308 306 307 307 308 309 309

GFSSE_925_thetae_081.txt.gz
Theta_e
346 347 345 347 346 343 340 343 343 342 340 338 337 337 338 341 341 340 339 337 337 337 337 337 336 335 334 332 331 331 330 331 331 331 332 334 336 337 338 336 335 334 333
347 346 345 346 347 346 345 345 345 345 342 342 343 342 341 342 342 340 339 338 336 336 335 334 332 331 330 330 331 330 327 319 317 323 326 327 328 332 333 332 330 331 331
347 346 345 345 345 345 345 346 346 345 344 343 343 343 342 342 341 341 341 338 336 336 335 332 330 329 329 330 330 330 328 329 325 323 324 327 330 331 326 328 332 333 332
347 346 345 345 344 345 344 344 343 343 342 342 342 342 341 340 339 340 341 339 337 336 333 329 328 329 331 332 332 330 327 328 333 330 329 334 335 336 337 338 336 335 334
345 345 345 344 344 344 343 343 343 342 341 339 338 337 340 340 337 335 339 341 334 330 326 319 320 329 332 332 331 331 331 332 334 334 336 338 337 338 336 336 336 336 337
346 345 345 344 344 344 342 342 342 341 338 339 338 340 339 337 335 332 334 340 334 329 328 320 318 327 329 330 330 330 332 332 333 334 336 336 334 333 333 334 334 333 335
346 344 344 344 343 342 342 342 341 340 339 338 338 338 335 336 332 325 331 338 337 331 329 325 318 327 329 329 330 331 332 332 333 334 334 333 333 332 332 331 330 331 331
347 344 344 344 343 342 342 341 341 340 338 337 336 336 334 334 326 325 329 335 338 334 331 330 320 321 329 329 329 331 332 331 328 328 328 331 331 331 330 329 329 328 329
346 345 344 344 343 343 341 341 341 338 337 336 335 334 334 328 330 330 329 334 338 336 333 331 327 320 324 328 328 331 330 329 328 327 327 329 330 331 329 328 328 327 326
345 345 344 343 343 342 341 341 339 337 336 334 328 331 331 331 331 330 329 332 337 336 334 332 330 323 323 325 328 329 330 329 328 328 327 327 328 330 329 327 326 325 324
346 347 345 343 343 342 341 339 337 336 335 333 329 326 322 330 330 331 332 335 336 336 334 332 331 327 319 324 326 328 329 330 329 328 328 327 329 330 328 326 324 323 322
345 344 348 344 342 342 342 339 337 336 335 334 333 330 319 329 331 333 333 334 334 335 334 332 330 328 322 321 324 327 328 329 329 328 327 328 329 329 327 324 322 322 321
344 343 348 344 342 341 342 339 337 336 335 335 334 332 329 323 331 334 333 333 332 332 332 332 331 329 324 317 323 325 327 327 328 328 327 327 328 329 325 323 321 321 321
343 342 343 342 342 342 342 339 337 336 336 335 334 333 331 326 326 330 331 330 332 331 331 330 331 330 322 318 319 323 325 326 328 328 327 327 326 328 327 324 322 321 321
342 341 342 343 342 342 341 339 338 337 336 335 335 334 333 332 321 323 326 325 328 330 329 328 329 329 323 319 323 323 323 324 326 326 327 326 325 325 325 324 322 321 320
342 341 341 341 342 342 340 339 339 338 337 336 335 335 335 334 329 326 325 324 327 327 327 326 325 327 323 319 326 327 326 325 325 325 326 325 324 324 323 324 323 322 320
343 343 343 341 340 342 341 340 339 338 337 336 335 335 335 335 332 330 328 327 327 325 325 324 324 325 325 320 324 327 327 326 325 325 324 324 322 322 321 322 324 322 321
343 344 343 342 342 341 341 340 340 339 338 336 336 336 336 336 334 332 330 328 328 326 326 325 326 326 327 327 328 328 328 327 325 324 322 321 320 320 320 319 321 323 321
341 341 343 342 342 341 341 341 340 341 338 336 337 337 335 336 336 333 332 329 329 328 326 327 327 327 327 327 327 328 328 328 326 323 322 321 320 319 318 317 319 320 320
339 340 340 340 340 340 337 338 339 339 336 334 335 336 335 334 334 334 333 331 329 329 328 326 327 328 327 326 327 327 328 327 326 324 322 321 320 318 317 317 319 320 320
337 338 339 340 340 339 339 338 337 339 338 336 334 335 333 332 332 333 333 332 330 330 330 329 327 327 327 326 325 326 326 326 325 324 322 320 319 317 316 316 318 319 320
324 333 337 339 340 339 339 339 339 339 339 339 337 334 333 333 333 332 332 331 331 331 330 330 329 327 327 327 325 320 321 323 325 325 324 321 318 315 315 315 317 319 320
315 317 329 337 339 339 338 339 338 338 338 339 340 339 337 334 333 333 332 332 331 330 330 330 330 330 329 329 328 325 317 319 314 321 320 319 317 314 313 313 315 318 320
312 313 314 316 320 325 334 338 339 339 338 338 338 339 339 338 338 337 336 334 332 331 330 330 330 329 329 328 327 325 325 320 317 318 317 316 318 318 317 313 312 312 315
312 312 312 312 312 313 314 319 332 338 339 339 339 338 337 337 336 336 336 336 335 335 332 331 331 330 329 328 328 327 325 321 317 314 321 317 313 313 312 310 309 309 310
313 311 311 311 311 311 311 312 313 318 327 334 335 336 335 334 334 334 334 334 333 333 332 332 332 332 331 330 328 327 326 322 318 316 314 317 312 313 315 311 309 309 308

GFSSE_925_thetae_084.txt.gz
Theta_e
345 346 347 347 340 339 341 341 340 339 338 340 343 342 339 337 336 339 338 338 337 338 338 338 337 335 334 333 332 332 332 333 333 331 334 333 337 337 337 334 332 331 330
345 346 346 347 344 339 343 344 341 340 339 338 341 342 341 340 339 339 338 337 336 336 334 333 332 331 332 332 329 328 325 321 323 324 327 327 333 334 332 329 327 331 332
347 345 346 347 346 343 345 345 343 341 343 343 342 342 342 342 340 341 337 336 336 335 332 331 330 331 332 332 332 330 325 320 320 321 323 324 327 328 330 332 333 333 333
347 346 346 347 345 344 345 345 346 344 343 343 342 342 341 341 341 341 338 336 336 333 330 329 330 331 332 330 326 326 330 331 325 332 335 334 336 338 337 336 336 336 334
347 345 346 346 344 345 345 345 343 342 342 341 340 339 339 340 340 340 340 335 331 326 321 328 331 333 331 331 330 331 331 333 331 337 337 337 337 336 337 336 335 336 334
346 345 345 344 345 345 343 343 342 341 340 337 337 338 339 337 339 337 341 333 329 327 319 323 327 330 330 329 331 331 331 333 334 335 335 333 333 334 333 333 332 334 336
346 344 345 344 344 344 342 341 341 341 338 338 337 338 337 335 333 334 340 337 330 329 323 321 327 329 330 330 330 331 331 333 334 334 333 331 332 332 331 330 330 330 331
344 344 344 344 344 343 341 341 341 340 339 339 339 337 337 336 328 329 337 339 334 330 329 321 325 328 329 329 330 331 331 330 331 329 329 330 331 331 330 329 329 328 328
345 343 343 343 344 342 341 341 340 339 337 336 336 335 333 331 327 326 333 338 336 333 332 328 320 324 328 328 329 332 329 327 327 327 328 329 329 330 329 328 327 326 326
345 345 344 344 342 342 341 341 340 338 337 336 335 334 330 331 331 333 332 337 337 336 333 331 326 321 325 327 328 330 330 328 328 327 328 327 328 330 328 327 325 324 324
346 346 344 343 342 342 341 341 339 337 336 334 326 326 324 329 327 330 329 334 337 336 334 332 330 325 323 325 327 328 328 329 328 328 328 328 330 329 326 324 322 323 322
342 343 347 343 342 342 341 341 338 336 335 334 329 323 322 329 329 329 330 334 335 335 334 332 331 328 320 322 326 327 328 329 329 328 327 328 330 330 325 322 319 321 321
341 342 343 345 343 341 341 340 337 335 335 334 333 329 319 329 332 332 334 334 334 335 334 332 331 330 326 318 322 325 327 327 327 328 327 327 329 330 326 323 320 320 321
343 341 342 345 343 342 341 339 337 336 335 334 334 333 329 321 330 333 332 332 332 331 331 331 331 330 328 319 317 322 324 326 327 327 327 327 327 330 328 324 322 320 321
343 342 343 343 343 342 342 340 338 336 335 335 334 334 333 329 321 328 330 331 329 331 330 329 328 329 329 322 318 319 321 323 325 326 326 327 327 326 329 326 324 322 321
342 342 344 345 342 341 342 341 338 337 336 336 335 334 334 333 332 320 322 325 324 326 328 327 326 326 328 326 318 324 325 326 325 325 325 326 326 325 325 327 326 324 322
341 341 340 340 342 341 341 341 339 338 337 336 336 335 334 334 333 330 325 325 325 326 326 327 326 325 324 323 318 323 327 327 327 325 324 324 325 324 323 325 326 325 323
340 341 341 341 342 341 342 341 339 339 338 337 336 335 335 335 334 334 329 329 327 327 326 326 325 325 325 326 327 326 327 327 328 327 326 324 323 323 322 321 322 323 324
339 340 341 341 340 340 340 341 340 339 339 338 337 336 335 335 335 335 333 332 330 328 327 326 326 326 327 326 326 327 327 327 327 328 327 324 322 321 320 320 320 320 321
340 341 342 341 341 341 340 340 341 340 339 339 338 336 336 336 335 335 335 333 332 329 328 327 326 326 327 327 327 326 326 327 327 327 327 326 323 321 319 319 319 319 320
337 338 339 342 341 341 340 337 338 339 339 340 339 337 335 336 336 335 334 334 333 331 329 328 327 326 326 326 326 326 326 327 327 326 326 326 324 322 319 318 317 319 319
333 337 338 338 339 339 340 339 337 338 339 338 336 335 333 334 335 332 332 333 333 332 330 328 328 327 327 326 325 321 322 325 326 326 325 325 324 323 321 317 316 316 317
316 329 333 337 338 339 338 339 338 337 337 337 338 338 337 333 332 331 331 331 331 331 330 330 329 328 328 327 326 326 320 322 317 324 324 324 323 321 318 315 313 314 315
312 315 319 328 335 337 338 338 337 337 337 338 338 338 338 338 337 336 333 332 331 331 330 330 330 329 328 328 327 326 325 324 321 321 321 320 318 320 319 316 314 312 311
311 311 313 316 317 320 322 331 336 337 338 338 337 337 337 336 337 337 337 336 335 334 334 332 331 329 328 328 327 327 325 323 321 316 322 320 318 318 316 318 314 310 309
311 310 310 311 311 311 312 312 314 317 325 331 334 335 336 336 336 335 335 334 334 333 333 334 333 332 331 330 329 328 326 323 319 316 315 316 317 318 316 316 315 311 309

GFSSE_925_thetae_087.txt.gz
Theta_e
345 347 343 344 346 345 340 339 340 343 344 344 344 341 338 339 339 338 338 337 337 339 340 339 338 336 335 335 334 334 334 333 331 334 335 336 337 337 334 329 328 330 331
345 348 347 342 345 346 346 342 339 339 343 344 345 342 341 339 338 338 337 337 336 336 335 334 334 335 332 330 328 329 327 322 326 326 328 333 333 330 327 326 330 333 331
347 349 348 343 345 346 346 343 339 339 339 342 342 343 342 340 339 337 337 336 335 334 333 332 333 333 333 332 331 329 323 319 320 320 322 330 333 335 334 333 333 334 332
347 349 349 346 345 345 345 344 340 341 342 340 341 342 342 341 341 338 337 336 333 331 331 332 332 332 331 330 330 331 326 327 334 334 334 338 338 335 337 338 338 335 334
348 348 348 346 345 344 345 345 343 343 342 342 341 340 341 341 342 339 338 334 329 328 331 333 333 333 331 330 331 331 332 334 335 336 336 335 335 337 336 335 337 334 336
348 348 347 345 343 344 345 345 343 342 341 340 339 338 339 339 340 341 333 330 326 320 329 333 332 330 329 333 332 331 333 335 334 333 333 333 334 333 332 331 334 334 335
347 347 347 345 344 344 346 343 342 342 338 338 336 339 338 336 335 341 336 330 329 322 323 329 329 329 329 330 330 331 333 334 334 332 332 333 332 331 331 330 330 330 330
347 346 346 344 345 344 342 342 341 338 340 338 338 337 338 335 331 336 339 333 330 328 323 328 328 329 329 330 331 331 331 331 329 328 329 331 329 330 330 329 328 328 328
345 345 346 345 344 343 342 341 341 339 340 339 337 336 334 334 326 332 339 337 332 332 327 324 328 328 329 329 331 330 328 327 327 327 328 330 330 330 329 327 326 326 326
344 345 343 344 345 343 342 342 340 339 337 336 336 335 333 328 326 328 338 337 336 333 332 327 323 325 328 328 330 331 329 328 328 327 327 330 331 330 328 326 325 324 323
345 345 344 344 344 342 342 341 340 338 337 335 334 331 329 324 327 327 334 337 337 336 332 331 327 321 323 327 328 328 328 328 328 327 327 328 331 329 325 321 319 320 321
343 342 343 344 342 342 341 341 339 337 335 334 326 323 322 329 327 328 330 336 335 336 334 332 330 327 320 323 326 327 328 328 328 328 328 328 330 330 325 322 318 318 318
342 342 342 346 342 342 341 341 338 336 335 334 330 322 321 328 328 328 331 334 334 335 334 332 331 329 327 320 322 325 327 327 327 327 328 327 328 331 327 324 320 319 318
340 341 342 342 343 342 341 340 338 336 335 334 333 330 320 327 330 332 334 334 334 334 334 332 331 330 329 326 318 320 323 325 326 327 327 327 327 330 330 325 322 320 321
340 340 341 341 342 343 341 340 338 336 335 334 334 333 331 322 326 331 332 332 332 331 331 330 329 328 329 328 320 318 319 322 323 325 326 325 327 327 329 328 325 323 322
340 340 341 341 341 343 341 340 338 337 336 335 334 334 333 332 328 323 329 330 329 326 328 329 327 325 326 328 326 319 323 324 326 325 325 325 325 326 326 329 328 325 323
339 340 341 341 341 343 342 341 340 337 336 335 335 335 334 333 333 332 322 322 324 324 326 326 326 326 324 324 323 318 322 326 326 327 326 325 324 325 325 324 329 327 325
337 338 340 340 343 343 341 341 341 338 337 337 336 336 335 334 334 333 332 326 326 326 326 326 326 325 325 324 325 326 326 326 327 327 328 327 325 324 324 323 323 326 326
336 337 337 339 338 340 341 341 341 339 338 338 337 337 336 335 334 334 334 332 330 328 327 327 326 326 325 326 326 326 326 326 326 327 327 327 327 325 323 322 321 322 322
335 336 338 339 339 339 339 340 341 340 339 338 338 338 337 335 335 335 334 334 332 331 329 327 327 326 326 326 327 327 327 327 327 328 327 327 327 326 324 321 319 320 321
336 338 336 336 337 338 339 339 340 340 340 339 338 339 338 336 335 335 335 335 334 333 332 329 327 327 326 326 325 326 327 327 329 328 328 327 326 326 325 322 319 318 318
330 335 335 338 339 339 339 339 338 339 339 340 340 339 339 338 335 335 335 335 334 334 332 331 328 326 326 326 326 323 328 327 327 327 326 325 326 325 323 321 319 316 316
313 326 335 337 338 339 339 339 338 336 336 337 338 338 337 335 334 333 334 333 331 332 332 331 330 327 326 327 326 326 324 326 321 325 325 324 323 323 321 319 319 316 314
313 313 322 332 336 337 337 337 338 337 336 337 337 337 337 338 338 335 333 331 331 331 330 330 329 329 328 327 326 326 325 326 325 326 323 323 324 322 321 319 317 315 313
310 310 314 319 329 335 337 337 337 337 337 336 336 336 336 336 336 337 336 335 333 332 332 331 331 329 328 327 327 327 326 324 322 319 322 322 320 320 318 317 317 315 313
311 310 311 315 317 318 322 328 333 335 335 335 335 336 336 336 336 335 335 335 335 335 334 334 333 331 329 329 328 328 326 324 320 318 318 318 319 319 318 315 315 314 310

GFSSE_925_thetae_090.txt.gz
Theta_e
348 348 344 345 342 340 337 337 341 344 344 343 342 341 340 340 339 340 340 341 342 342 341 340 339 338 337 335 335 335 334 335 334 336 337 337 335 334 325 330 330 329 336
348 348 344 345 343 344 344 345 345 345 344 342 342 341 340 339 339 339 338 338 337 337 337 337 335 333 331 331 331 331 328 325 324 331 332 328 327 333 332 330 331 329 331
348 348 345 345 345 344 344 344 344 343 343 342 342 341 341 339 338 337 337 336 335 335 335 336 335 333 332 331 330 328 321 319 319 329 336 337 337 337 338 337 335 334 332
347 349 346 345 345 345 344 343 340 340 342 342 341 342 342 339 338 338 336 333 333 333 334 334 333 333 333 334 332 327 333 334 334 338 338 337 337 339 338 338 336 335 337
348 349 347 344 345 345 344 340 340 341 340 340 340 341 341 341 339 339 336 331 331 333 334 334 334 333 330 332 333 332 335 336 336 337 336 335 334 334 335 339 338 337 337
347 349 349 345 344 345 344 342 343 342 342 341 339 340 340 343 340 338 329 322 323 331 334 334 332 333 334 334 333 333 334 334 335 335 334 333 331 332 332 333 333 334 335
346 348 348 345 344 344 345 345 343 342 341 339 338 338 339 339 342 333 330 326 320 328 331 331 330 329 333 331 332 333 335 335 334 333 332 331 331 331 330 329 330 330 331
346 349 349 346 343 344 345 343 341 341 338 338 337 337 337 337 341 338 331 330 324 325 329 330 330 329 331 331 331 331 331 330 331 331 331 330 330 330 328 327 327 328 328
347 348 348 347 346 345 344 341 341 339 338 339 337 334 333 331 334 341 335 331 331 325 328 329 330 329 329 331 330 328 327 329 331 331 330 330 330 330 328 326 325 326 325
345 346 346 347 347 346 345 341 339 341 339 338 337 336 332 330 326 339 339 335 333 330 323 322 326 328 328 329 330 328 327 330 331 331 331 330 331 329 327 325 324 324 324
345 345 345 347 346 346 344 344 340 339 338 337 336 334 331 330 327 333 340 337 336 333 331 327 322 324 327 327 328 328 329 331 331 331 331 328 331 329 324 320 320 320 321
345 345 346 346 346 345 344 343 341 339 338 337 334 333 330 331 332 331 338 335 336 336 333 332 329 323 324 328 329 328 330 330 330 331 331 328 331 330 325 322 319 318 319
344 344 346 345 345 344 343 342 341 339 337 335 331 328 329 332 331 331 335 336 335 335 336 334 333 332 330 324 326 328 328 329 329 329 330 327 328 331 328 324 321 320 319
342 343 342 344 345 344 343 342 340 339 337 335 333 327 328 331 332 331 333 335 337 336 337 336 334 333 332 329 323 323 325 327 327 328 329 327 327 329 331 327 324 321 321
342 342 343 342 344 344 343 341 340 339 337 336 334 331 327 329 331 333 334 334 335 335 334 334 333 332 332 331 327 322 322 324 325 325 327 327 325 327 328 330 327 324 322
341 341 343 343 344 344 343 342 341 339 338 336 335 334 332 329 329 331 333 333 333 332 332 332 330 329 329 330 329 324 323 325 327 327 327 327 325 325 327 329 329 327 325
341 342 341 342 341 343 343 342 341 340 338 337 336 336 334 333 332 331 329 330 330 330 329 330 330 328 327 327 327 326 322 325 327 328 328 327 327 325 325 326 329 329 327
341 341 342 342 343 343 343 342 342 341 339 338 337 336 335 334 334 332 332 328 328 329 330 330 330 329 328 328 327 328 328 327 328 328 328 327 327 327 327 324 324 325 328
339 340 341 342 342 342 343 341 342 341 340 339 338 338 337 335 334 334 333 332 329 329 329 330 330 329 329 329 329 329 329 329 329 328 328 328 327 327 327 326 324 322 323
339 340 340 338 342 341 342 340 339 341 340 340 339 339 338 337 336 335 335 334 333 331 331 330 330 330 329 329 329 328 329 330 329 329 329 328 327 325 325 325 325 324 322
338 339 339 337 339 339 339 340 341 340 340 339 339 339 339 338 337 336 336 335 334 333 332 331 330 329 330 329 329 330 330 330 329 330 329 328 327 324 324 322 322 323 323
336 338 339 336 334 337 339 338 337 338 338 339 339 338 338 338 338 337 336 335 334 333 332 331 330 330 329 329 330 330 332 331 330 329 327 326 324 322 321 321 320 320 320
316 331 335 335 325 330 335 335 335 336 336 336 337 337 338 337 337 337 335 335 334 333 333 332 331 330 330 330 328 330 329 332 328 326 325 324 321 320 320 320 318 318 316
314 314 319 333 334 329 324 335 336 336 337 336 336 338 338 337 336 335 335 333 333 333 331 332 332 331 330 331 329 327 329 328 329 327 324 323 323 320 321 317 315 316 316
314 312 313 318 331 334 335 328 336 337 337 337 336 336 336 336 337 336 337 334 332 331 331 331 331 330 330 331 331 330 327 324 323 323 325 326 321 320 318 318 317 317 315
313 313 311 313 319 327 330 332 336 336 337 336 335 335 336 336 336 334 334 334 335 334 332 331 331 330 330 330 330 330 328 327 326 323 323 322 323 319 316 315 314 315 312

GFSSE_925_thetae_093.txt.gz
Theta_e
349 348 344 345 344 346 344 342 345 344 345 344 342 341 340 340 342 342 343 344 343 343 341 340 339 337 336 335 334 336 335 336 336 335 328 326 331 334 332 329 329 334 337
348 347 345 346 343 340 339 339 342 344 343 342 342 341 339 339 339 340 340 340 340 339 338 336 334 332 332 332 332 332 323 328 330 332 336 335 337 338 335 331 329 331 333
347 346 348 345 343 339 341 344 344 342 342 341 342 340 339 338 338 338 337 337 337 337 336 334 333 332 331 330 330 326 318 330 337 338 336 338 338 339 337 336 336 337 336
346 346 347 344 344 344 345 345 343 342 342 340 341 341 338 338 338 336 335 335 335 336 335 334 335 335 335 332 331 333 333 337 337 337 335 334 334 338 339 338 338 339 338
346 345 347 345 344 344 344 342 341 342 341 340 339 340 339 339 338 335 333 333 335 334 335 335 334 335 335 333 335 335 335 335 335 334 334 332 331 334 336 336 337 337 337
347 345 346 345 345 344 343 339 340 340 341 340 340 340 340 340 339 333 328 332 332 334 335 335 335 335 335 334 334 334 334 335 334 332 332 331 331 331 331 333 333 334 335
348 348 346 345 344 345 341 341 343 341 340 339 339 339 343 341 333 329 322 328 333 334 334 334 335 334 332 333 334 334 335 332 332 331 330 330 331 329 328 328 329 331 332
347 349 347 345 344 344 344 343 342 342 339 337 336 338 338 343 335 330 328 323 331 334 334 333 331 334 331 332 332 332 329 331 330 331 331 330 330 329 327 326 327 327 327
347 348 347 347 346 345 345 343 341 339 338 338 335 330 330 339 341 333 331 328 325 330 329 328 328 330 330 329 327 327 328 331 332 331 331 331 330 329 326 324 322 321 321
347 348 346 346 346 346 346 341 340 339 338 337 334 334 332 327 340 338 334 332 327 323 325 327 328 328 329 330 327 327 328 332 332 332 332 330 330 329 324 323 322 323 322
345 348 345 345 346 346 345 343 340 340 339 337 336 335 330 331 334 338 339 334 332 329 324 322 323 326 327 328 328 327 331 331 331 332 332 327 330 328 323 320 320 319 320
345 345 345 347 346 345 345 343 343 341 339 338 337 334 332 329 329 340 338 335 335 333 331 329 324 320 327 329 328 326 331 330 330 331 333 327 330 329 325 322 320 318 319
344 345 344 346 346 345 344 343 342 340 339 338 334 333 330 332 332 337 338 335 335 335 335 333 330 332 329 326 327 329 329 329 329 329 331 327 328 332 329 325 322 320 319
344 345 344 346 346 344 344 342 341 340 338 336 332 328 330 332 331 331 336 338 335 336 336 335 335 334 333 330 325 324 326 327 328 328 330 328 326 328 332 328 325 322 321
344 343 345 344 346 344 342 342 341 340 338 337 334 328 328 331 332 331 333 335 336 336 336 335 334 333 333 332 329 323 322 324 326 326 327 328 326 325 327 331 328 325 323
343 343 344 343 344 343 342 342 340 339 338 338 336 333 329 328 331 333 334 334 334 334 333 333 332 330 330 331 330 327 323 324 326 327 328 328 327 325 325 327 331 329 326
342 342 341 343 343 344 342 342 341 339 338 338 337 336 334 332 331 331 331 332 332 331 330 331 331 329 328 327 328 327 324 324 327 328 329 329 328 328 326 325 327 330 329
341 342 342 342 343 342 342 342 341 340 339 339 338 337 337 335 334 334 333 330 330 330 330 331 330 330 328 329 328 329 328 326 327 328 329 329 328 328 328 327 325 327 328
340 341 342 341 342 342 341 341 341 341 340 339 338 338 338 336 335 335 334 332 329 330 331 331 331 330 331 331 330 330 330 330 330 330 330 329 329 328 328 328 327 325 324
339 340 341 342 343 342 343 341 340 339 340 339 338 338 338 337 337 336 335 335 333 331 331 332 332 331 331 331 330 329 330 330 331 331 331 330 329 328 327 327 327 326 325
338 339 340 341 341 341 340 341 340 339 339 340 339 340 340 338 338 337 337 336 336 334 333 333 332 332 332 331 330 331 331 331 331 331 331 330 329 327 326 325 324 324 325
338 339 339 338 340 341 341 341 340 340 340 340 339 340 340 340 339 338 338 337 337 336 335 334 333 332 331 331 331 332 333 333 332 330 330 329 328 325 324 323 322 322 322
337 338 338 335 337 339 340 338 338 338 337 338 339 339 338 338 339 339 338 337 337 336 335 334 333 331 332 331 330 331 332 333 330 328 326 325 324 322 321 319 319 319 318
321 330 337 337 336 335 337 338 336 335 334 333 331 329 336 337 336 336 336 336 336 336 335 335 334 333 332 333 331 330 331 331 332 331 327 325 322 319 319 318 316 315 316
318 318 321 328 334 334 332 331 334 331 331 330 328 334 336 336 334 334 332 333 333 334 334 334 334 333 333 332 333 331 329 329 327 327 328 327 324 319 317 317 317 315 315
319 317 318 320 327 333 334 328 325 325 327 331 332 331 329 329 337 336 336 334 334 333 332 332 332 333 332 332 332 332 330 328 326 325 325 324 325 320 316 313 313 311 311

GFSSE_925_thetae_099.txt.gz
Theta_e
347 346 346 346 343 346 346 344 344 342 341 340 340 343 344 344 344 344 343 343 340 339 338 337 335 335 337 339 338 336 335 337 335 335 335 333 335 334 333 331 333 337 339
346 347 346 347 346 344 344 343 342 340 339 338 339 342 343 344 345 344 342 341 339 337 335 333 333 333 333 332 330 334 335 336 334 334 334 336 337 338 338 336 333 336 338
346 347 347 346 344 342 343 342 340 338 338 337 338 339 341 342 342 340 339 337 335 334 332 332 332 331 328 333 336 335 335 336 335 333 337 339 338 339 339 336 335 334 335
346 346 346 346 345 343 343 342 338 338 337 336 337 337 337 337 338 338 337 336 335 334 334 333 334 330 332 336 335 334 333 331 332 331 331 335 336 337 338 338 338 338 338
346 346 346 346 341 341 341 341 338 338 334 335 335 335 335 335 336 336 335 334 334 335 334 335 335 334 335 334 334 333 333 330 329 325 323 326 331 335 336 336 335 334 334
346 344 344 341 340 343 342 341 338 338 336 334 336 334 333 334 335 334 334 332 330 332 335 335 336 335 334 333 332 332 331 330 328 319 321 326 328 329 330 332 332 333 333
346 344 340 341 343 343 342 341 338 337 338 336 338 337 333 333 333 334 333 332 335 336 335 335 335 333 333 333 331 330 330 330 326 319 322 325 328 328 327 328 329 329 330
345 344 343 344 343 342 339 339 338 338 338 340 339 336 333 332 334 334 332 332 333 335 334 334 332 333 333 331 330 330 331 331 330 321 320 322 327 327 326 326 326 326 326
343 342 343 344 342 339 340 339 338 337 337 338 342 337 330 324 322 329 331 333 331 330 333 330 329 329 328 326 330 331 331 331 331 325 322 322 327 327 326 325 325 325 325
343 344 344 343 341 340 341 341 339 337 336 335 339 340 335 330 324 320 325 325 326 327 328 328 327 325 324 324 330 331 331 331 331 331 324 323 326 327 325 325 325 324 324
344 343 344 344 342 342 341 340 338 337 334 329 330 339 338 335 332 329 322 320 323 325 325 325 326 326 325 324 330 331 331 331 332 331 328 325 325 325 322 320 321 321 323
345 344 343 344 344 343 341 339 337 336 333 334 332 328 335 337 336 334 332 327 322 320 320 321 323 323 326 325 329 330 330 331 330 329 329 325 327 326 323 321 320 320 320
345 345 343 344 344 343 341 339 338 337 335 336 334 327 327 335 336 336 333 333 332 330 328 324 319 327 327 328 328 329 328 329 329 329 329 327 325 328 327 324 322 320 320
345 345 344 343 345 344 340 339 339 338 337 337 330 332 332 332 337 336 333 332 333 332 332 331 332 331 330 328 325 325 326 327 327 328 328 328 326 326 328 327 325 322 321
345 345 344 344 345 344 340 340 338 338 339 337 332 332 331 329 334 337 335 333 333 333 333 333 335 334 332 331 328 324 322 324 325 326 326 327 327 325 325 328 327 325 324
344 345 346 345 344 343 341 338 337 338 339 335 330 329 331 331 330 334 335 335 334 334 334 334 335 333 332 332 331 330 326 322 323 325 325 327 328 327 326 326 331 329 327
343 343 344 345 345 343 342 339 338 338 336 335 333 327 328 331 331 330 333 336 336 336 335 335 333 331 330 329 330 329 328 324 324 325 327 328 328 328 328 327 325 330 330
341 343 344 343 344 343 342 339 338 339 337 336 336 333 326 328 330 332 333 335 334 333 332 332 331 330 329 327 327 327 326 325 323 326 327 328 328 328 328 328 328 326 327
340 341 343 343 343 343 341 340 338 338 337 337 336 336 334 329 329 330 332 332 333 332 331 330 330 330 329 328 328 328 328 329 329 328 328 329 329 329 328 328 328 327 326
342 340 341 341 343 343 342 340 339 338 337 337 337 336 336 335 334 332 332 331 330 329 330 330 330 330 330 330 330 330 329 329 330 330 330 330 330 330 329 328 326 326 326
341 341 341 342 341 341 342 341 340 339 338 338 338 338 337 336 335 335 334 333 333 329 329 330 330 331 330 330 330 330 330 329 329 329 330 330 330 329 328 326 325 325 324
341 341 340 340 340 342 340 341 341 340 340 338 339 338 338 337 336 335 335 335 334 332 331 331 331 331 331 331 330 329 327 330 331 331 330 330 330 328 326 325 324 323 322
339 340 340 339 340 340 341 340 340 339 339 339 339 338 337 336 336 336 335 335 336 335 334 334 333 332 332 331 331 330 326 327 327 329 329 326 325 324 323 322 321 320 320
338 338 339 339 337 340 338 339 338 338 337 337 338 336 335 334 335 335 336 335 335 335 335 334 334 334 333 331 331 330 330 330 327 328 325 322 321 321 320 320 319 318 317
337 338 339 340 340 339 340 338 337 335 335 335 334 332 330 328 329 328 329 333 332 331 331 330 329 330 330 332 331 330 330 329 329 326 327 321 319 318 318 317 317 317 317
334 336 337 336 339 339 337 336 335 333 331 332 332 331 330 330 329 329 330 330 330 329 327 327 327 326 327 328 331 330 329 329 328 326 324 323 322 315 314 313 314 314 314

GFSSE_925_thetae_102.txt.gz
Theta_e
344 346 346 345 343 345 345 343 342 340 340 343 345 345 344 343 344 343 343 341 339 339 337 336 337 341 339 339 339 338 337 337 335 332 333 336 337 335 335 336 338 339 340
345 346 345 343 346 344 343 342 340 337 338 343 345 344 344 344 344 343 342 340 338 336 335 335 336 338 338 337 335 336 337 335 335 337 338 338 338 337 336 332 336 338 338
346 346 345 345 345 343 341 339 339 336 336 340 345 344 344 343 342 341 338 336 335 334 333 332 333 335 338 338 339 338 335 332 334 336 336 338 338 338 338 334 335 336 337
346 347 345 345 343 342 341 338 337 337 336 337 342 341 342 341 340 338 336 334 333 333 333 332 335 336 335 335 337 332 332 331 329 334 335 335 336 339 339 338 339 339 337
346 346 346 342 343 342 339 337 336 336 336 336 336 338 338 339 337 336 335 334 334 334 334 335 336 334 334 333 333 331 329 327 320 323 326 330 334 335 335 334 334 334 333
346 346 345 343 342 342 338 338 334 335 336 337 335 335 336 336 335 334 334 334 333 334 336 337 334 334 332 331 331 330 329 320 315 318 323 327 329 330 332 331 331 332 332
346 346 345 340 341 340 338 338 334 335 337 337 335 335 335 334 334 333 331 332 335 334 335 336 334 332 331 330 330 329 329 319 317 319 322 326 328 328 328 329 329 329 329
346 345 340 342 342 341 338 337 337 335 337 336 334 334 334 334 334 333 335 336 334 335 335 333 333 333 330 330 330 330 331 325 319 319 321 325 327 327 327 327 327 327 327
344 342 341 343 342 341 339 337 338 338 339 336 331 331 333 333 333 333 333 334 334 334 333 332 332 332 329 330 330 330 331 330 324 322 322 324 327 327 326 326 326 326 326
342 341 344 343 342 339 338 337 337 339 341 339 332 325 322 330 332 333 330 329 332 329 328 329 329 325 328 330 330 330 331 330 329 325 323 324 327 327 325 325 325 325 325
344 344 344 343 339 339 339 338 337 336 336 341 337 330 325 320 323 325 326 326 326 328 326 325 324 323 325 330 331 331 331 331 331 330 325 325 325 324 321 320 322 324 324
344 344 343 341 340 341 340 338 337 335 333 337 339 336 333 329 324 320 322 324 325 325 325 325 325 324 323 328 330 330 330 331 330 329 327 325 326 324 322 321 320 320 321
345 344 343 341 341 341 340 338 336 332 328 328 330 335 335 334 332 330 325 322 321 320 319 321 321 325 327 327 329 329 328 329 329 329 328 326 325 326 325 323 321 320 320
345 344 344 342 343 340 339 337 336 332 334 335 330 329 337 335 335 333 332 331 329 327 325 321 323 327 326 326 326 326 327 327 327 328 328 327 326 325 326 326 324 322 321
344 344 344 343 343 340 339 337 336 335 336 333 329 327 329 336 336 334 332 331 331 330 330 331 331 331 330 328 325 323 324 325 326 326 326 326 326 325 326 327 327 325 323
344 344 343 343 343 341 339 338 338 337 337 335 330 332 332 329 333 336 335 333 332 332 331 333 334 334 332 331 331 329 324 322 323 325 325 326 327 327 326 331 330 328 327
344 343 343 343 343 342 339 338 337 338 338 336 332 330 331 331 331 332 335 335 334 334 334 333 334 332 332 331 330 330 329 326 322 323 325 327 328 328 327 327 329 331 330
343 343 343 343 343 342 339 338 336 338 338 335 330 328 330 331 330 329 332 334 335 335 335 335 334 331 329 328 327 328 328 326 324 323 326 327 327 328 328 327 327 327 329
342 342 343 343 343 342 340 338 337 338 338 333 333 330 326 329 330 331 330 332 336 334 334 332 331 330 330 329 327 327 327 327 326 325 324 326 327 328 328 328 328 327 327
341 341 342 344 344 343 342 339 338 337 337 334 335 335 332 327 328 330 331 332 332 331 331 330 329 329 329 329 328 328 329 328 328 329 329 329 329 329 329 328 327 326 326
340 341 342 343 342 343 341 339 338 338 337 336 335 336 336 335 331 330 329 330 330 330 330 330 329 330 330 329 329 329 329 329 329 328 329 330 330 330 329 328 326 325 325
340 339 340 341 341 342 342 340 339 338 338 337 336 337 335 336 335 335 334 333 332 332 329 329 329 330 330 330 330 328 325 328 330 329 329 329 329 329 327 326 325 324 323
339 340 341 339 340 341 341 340 340 340 338 338 337 337 338 336 336 335 334 334 334 334 333 330 330 330 330 330 330 330 325 327 325 327 327 328 327 324 323 322 322 321 321
339 340 339 339 339 340 340 341 339 339 339 338 338 338 337 337 337 335 335 334 334 335 334 331 332 332 331 331 330 330 329 329 328 327 322 321 319 320 320 319 318 319 318
338 339 339 339 339 339 340 340 338 339 338 337 337 337 336 335 334 333 333 332 334 333 332 332 331 330 329 330 330 330 329 329 329 326 326 319 317 317 317 317 318 319 317
335 337 338 339 339 339 339 337 337 337 335 335 334 333 332 329 329 328 327 327 329 331 330 329 328 327 327 326 326 325 327 328 326 326 324 323 321 315 316 316 316 317 316

GFSSE_925_thetae_105.txt.gz
Theta_e
344 344 345 345 345 345 343 342 342 341 343 343 344 344 343 343 343 344 342 341 339 339 339 340 339 338 339 340 338 338 336 336 336 337 337 334 335 338 338 337 337 339 339
344 346 345 345 344 344 342 340 339 341 344 346 343 344 344 344 345 344 342 340 337 336 336 339 337 339 339 339 338 337 337 337 338 338 338 336 335 334 336 336 337 338 339
346 346 345 344 344 342 341 340 335 342 344 345 345 344 344 345 343 341 338 336 335 335 336 337 339 339 339 339 338 336 334 335 336 338 336 337 338 338 339 335 336 338 338
346 346 344 345 343 341 340 339 338 341 344 343 345 344 343 342 340 338 336 334 333 333 334 338 339 337 337 332 333 331 330 333 334 334 335 336 336 337 337 337 337 336 335
347 345 345 344 342 340 339 337 336 337 342 343 342 342 341 340 338 336 334 334 333 333 337 338 336 335 333 332 330 327 326 322 328 328 331 333 333 332 332 333 333 332 331
346 344 345 343 341 338 337 337 336 337 339 340 340 340 338 338 336 335 334 334 332 336 337 336 334 332 332 331 329 323 315 314 315 319 324 327 330 331 331 330 329 329 328
346 345 342 342 341 336 335 336 336 336 337 338 337 338 337 335 334 334 334 330 331 337 337 336 332 331 331 329 328 323 316 316 317 320 324 326 328 329 329 328 328 329 328
346 344 342 342 341 337 335 334 334 335 335 335 335 336 335 334 334 334 332 333 334 337 336 333 331 330 330 329 330 327 321 319 318 319 322 325 328 328 327 327 328 328 327
345 343 341 341 339 337 336 332 336 335 333 332 333 333 333 332 334 335 335 334 336 337 334 332 331 329 330 329 330 330 328 323 321 322 322 324 327 328 327 326 327 327 326
344 343 342 341 340 337 338 334 337 337 331 329 331 332 333 332 334 336 334 334 334 334 332 332 331 329 330 330 330 330 330 329 326 323 323 324 326 327 326 326 326 326 326
344 340 343 342 340 337 338 337 338 339 333 327 323 330 332 331 330 333 332 332 328 330 330 330 327 327 329 330 330 330 330 330 329 325 324 324 325 324 323 324 324 325 325
343 342 343 342 340 338 338 338 339 341 337 331 323 320 326 327 327 326 326 327 327 326 325 324 323 324 329 330 329 330 330 330 329 327 326 325 326 324 322 321 320 322 324
342 344 343 342 339 339 339 338 337 337 340 337 330 325 320 321 324 324 325 325 326 326 326 325 324 323 325 329 329 328 329 330 329 328 327 326 326 326 324 322 321 320 320
343 343 343 340 339 339 339 338 335 334 335 338 336 332 329 326 324 322 321 322 321 322 322 323 322 326 326 327 328 326 327 328 328 328 328 327 326 327 326 325 324 322 321
343 343 343 339 341 340 338 337 335 329 329 331 335 335 334 332 331 330 327 326 325 325 323 320 324 326 326 326 324 324 323 325 326 327 327 326 326 327 327 327 326 325 324
343 343 343 340 341 340 338 336 334 331 333 332 330 331 335 334 333 332 331 330 330 329 329 330 330 331 332 330 328 327 325 321 323 324 325 325 326 326 326 330 330 328 327
343 343 343 342 341 340 337 336 335 333 335 332 327 326 328 330 334 334 334 333 332 331 331 332 333 333 333 332 331 331 330 327 322 322 323 324 326 327 327 326 331 330 330
343 343 343 342 342 339 338 337 337 336 336 332 330 331 331 330 330 332 334 334 333 333 333 333 333 333 332 331 329 328 329 328 326 323 323 325 327 327 328 327 327 327 327
342 342 342 342 342 340 339 338 337 336 337 335 332 330 330 330 330 330 331 332 333 334 334 334 334 333 330 328 328 327 326 326 326 324 323 324 325 327 327 328 327 327 327
341 340 342 342 342 341 339 338 337 337 338 338 334 330 329 329 330 330 330 330 330 334 335 334 333 331 329 329 328 328 327 328 328 327 328 327 327 328 328 328 328 327 326
338 340 341 341 342 341 339 339 337 337 338 337 334 329 327 326 327 328 330 331 333 334 332 332 329 329 329 329 329 329 329 329 329 329 328 328 329 329 329 329 328 327 325
338 338 340 340 341 340 339 339 338 338 337 336 332 330 335 329 331 329 328 329 330 330 329 329 329 329 329 329 329 327 325 327 328 328 329 328 328 329 328 328 326 326 324
337 338 339 340 339 340 340 339 338 338 337 336 335 334 335 334 334 333 332 333 332 332 331 329 328 329 329 329 329 329 325 326 325 325 324 326 328 328 326 324 324 324 322
336 336 338 338 339 339 338 339 338 337 337 336 337 336 336 337 335 335 334 334 333 333 333 332 329 329 330 330 330 330 329 328 327 327 323 322 320 322 321 321 321 321 320
335 337 337 338 338 339 338 339 338 338 336 336 337 337 337 337 336 336 335 334 333 334 334 333 332 330 330 330 329 329 329 329 328 327 326 321 319 318 321 319 318 319 319
334 336 338 337 338 338 339 339 338 338 337 337 337 337 337 335 335 334 334 333 332 332 333 332 330 328 327 326 326 327 326 326 326 326 325 323 320 317 317 317 316 316 316

GFSSE_925_thetae_108.txt.gz
Theta_e
344 344 346 346 345 343 338 337 341 341 342 344 345 345 344 343 343 343 340 339 338 339 339 338 339 339 339 338 337 338 338 338 337 334 332 336 338 340 339 338 337 338 338
343 345 346 346 343 341 342 338 339 340 339 341 343 344 344 345 345 343 341 339 339 340 338 338 340 341 339 338 338 338 337 337 337 336 333 328 330 336 338 337 338 337 337
344 346 346 345 343 340 341 336 343 343 340 341 342 344 345 345 343 341 338 337 336 338 337 338 340 340 339 337 336 337 336 337 336 337 337 338 338 338 338 337 337 337 336
345 345 345 344 342 341 339 335 344 345 344 343 343 344 344 342 341 338 336 335 335 337 337 339 338 337 337 336 332 331 334 334 336 335 333 333 333 334 334 336 336 334 333
346 345 345 343 341 339 336 334 344 344 344 344 344 343 341 340 338 336 335 334 335 335 337 337 337 333 330 329 328 325 327 328 331 329 330 330 331 332 333 331 330 329 329
346 344 344 342 339 338 333 334 343 343 344 343 342 341 339 338 336 335 334 332 334 336 336 335 332 331 329 326 318 315 315 315 316 319 325 329 331 331 330 330 329 329 328
346 344 344 341 338 334 336 335 340 342 342 342 340 339 338 337 335 334 334 331 336 336 336 332 331 330 328 323 316 316 316 316 317 320 324 328 329 330 329 329 329 328 327
345 345 342 340 337 337 336 335 335 340 340 340 339 338 337 336 334 333 334 335 336 336 335 331 330 330 328 327 320 318 318 318 319 321 323 326 329 328 328 328 328 327 327
345 343 342 340 335 335 336 335 334 335 337 338 337 335 334 333 333 334 333 336 336 336 335 330 330 330 328 329 327 324 322 321 321 323 324 326 328 329 328 328 327 327 326
344 342 342 340 337 333 334 334 333 332 333 335 333 332 331 333 334 334 333 335 337 336 334 330 329 329 329 329 329 329 327 326 323 323 324 326 329 329 328 327 327 327 326
343 342 341 339 338 334 333 336 333 329 332 332 331 330 331 335 336 335 334 336 336 334 332 331 328 329 329 329 330 330 329 328 325 324 325 326 328 327 325 325 326 326 325
343 341 341 339 338 336 334 338 335 331 330 331 332 330 330 334 335 332 332 332 332 331 331 330 326 328 329 330 330 330 330 329 327 326 326 326 328 326 322 321 321 323 324
342 342 341 340 337 338 337 339 338 332 328 327 329 329 327 328 331 330 330 328 328 328 326 324 324 325 328 328 329 329 329 329 328 327 327 327 328 327 324 323 322 321 322
341 342 342 341 338 337 339 339 340 336 329 324 324 327 327 327 326 326 326 327 326 325 325 324 324 323 325 327 327 327 327 328 328 328 327 326 327 328 326 325 324 323 322
339 339 342 341 339 338 337 337 338 339 335 329 324 322 321 323 324 324 324 324 324 323 322 323 321 325 326 326 326 325 323 325 326 327 327 326 326 327 328 327 326 325 324
340 339 342 341 338 338 338 337 336 335 337 335 330 328 325 322 321 320 320 320 321 321 322 321 322 326 329 328 328 325 324 322 323 324 325 325 325 326 327 330 330 328 327
337 333 342 341 338 338 338 337 335 334 335 336 336 334 332 331 330 329 329 328 329 328 329 330 331 332 333 332 331 330 330 329 325 321 322 324 325 326 327 326 330 329 329
339 342 342 341 340 339 338 337 335 329 328 330 331 332 334 334 333 332 332 332 331 331 331 331 332 333 333 331 331 329 328 328 327 326 322 323 325 327 327 327 327 327 327
340 342 342 341 340 340 339 337 335 330 333 333 331 326 327 329 331 332 333 332 333 332 332 333 333 333 333 331 329 327 327 326 325 325 324 323 323 325 326 327 327 327 326
342 342 342 341 340 340 339 337 335 334 333 334 330 328 330 330 330 330 330 331 333 333 333 333 333 333 332 329 328 328 327 327 327 327 326 327 326 326 328 328 328 327 327
339 341 342 341 341 339 338 337 336 336 335 335 334 331 330 330 330 330 330 330 331 331 332 334 334 333 330 328 328 328 328 329 328 328 328 328 328 328 328 328 328 327 327
337 339 340 341 341 340 338 338 337 336 336 336 337 336 331 329 329 329 329 329 330 330 332 333 332 329 328 328 328 327 326 326 327 327 328 328 327 327 328 328 327 327 326
337 337 338 338 339 339 338 337 337 336 335 336 336 335 330 327 327 328 328 329 330 331 332 330 329 328 328 329 328 328 326 327 325 325 324 327 327 327 328 327 326 325 325
336 336 334 333 337 338 338 337 332 332 336 335 334 333 331 330 330 332 329 329 330 330 329 328 327 327 328 329 329 329 329 329 327 327 323 322 324 325 325 324 323 322 323
333 335 336 336 337 337 336 332 326 331 336 335 335 335 333 333 334 333 332 332 332 332 332 332 331 331 330 330 328 327 328 328 327 326 326 323 322 322 321 321 321 320 320
331 332 329 333 334 337 336 336 334 334 334 334 333 334 335 336 336 334 334 334 328 330 333 333 331 331 329 329 329 327 326 326 325 326 325 325 323 322 321 321 320 319 317

GFSSE_925_thetae_111.txt.gz
Theta_e
345 346 345 345 346 345 344 342 335 343 344 343 344 344 343 343 340 339 339 336 339 339 341 340 339 339 337 339 340 339 339 336 332 335 336 339 339 340 339 337 337 337 336
345 347 346 346 346 344 342 342 338 340 344 343 343 346 344 343 343 340 339 339 338 336 340 339 339 338 339 340 339 338 338 336 334 332 331 333 336 337 338 337 337 337 334
346 348 347 345 344 342 341 340 337 338 342 343 343 344 344 344 342 341 339 339 337 338 341 341 340 337 338 339 339 337 336 336 336 336 337 339 340 338 338 336 335 335 331
347 348 348 343 340 338 331 339 339 339 341 342 343 343 343 343 341 339 337 337 336 337 339 340 339 337 335 335 336 336 336 335 332 332 332 333 334 335 334 333 333 330 329
347 347 347 342 339 333 334 343 341 339 340 342 342 343 343 341 339 337 335 337 336 336 337 336 337 334 329 327 327 330 333 333 329 328 331 332 331 333 332 330 329 329 328
347 347 344 342 339 330 342 344 344 341 342 343 343 342 341 339 337 336 334 334 336 335 337 336 330 327 322 319 319 320 320 319 320 325 330 330 331 331 330 329 329 329 328
347 346 344 341 338 330 343 344 344 344 343 343 342 340 339 337 336 335 333 335 336 336 333 335 330 325 317 316 316 317 318 318 321 327 329 330 330 330 330 329 329 328 328
346 345 344 340 338 330 341 343 344 344 343 341 341 339 337 336 335 334 333 336 336 333 333 334 329 327 319 317 318 318 319 320 321 326 328 329 329 330 329 329 328 328 327
345 345 343 341 337 333 332 342 342 342 341 340 339 338 336 333 333 334 336 336 336 334 332 332 329 328 325 322 321 321 321 322 322 326 328 329 329 330 329 328 328 327 326
344 344 342 340 340 339 334 337 341 341 340 339 338 336 333 332 334 335 336 335 335 333 330 330 329 329 329 328 327 326 324 323 323 324 329 329 330 329 329 328 328 327 326
343 342 340 339 339 338 337 334 336 339 338 337 336 333 332 334 335 334 337 336 335 333 329 329 329 329 329 329 329 328 327 324 324 324 329 328 330 329 326 327 327 326 325
342 342 340 338 337 336 335 333 334 335 336 335 333 332 333 334 334 335 335 336 335 333 330 328 329 329 329 329 329 329 328 327 326 325 328 328 329 326 322 321 322 323 324
342 341 340 338 336 336 335 333 332 333 333 332 330 331 335 336 335 334 335 335 334 332 331 327 328 328 329 329 329 329 329 328 327 327 326 328 329 327 324 323 322 321 322
341 341 341 339 336 337 337 335 332 330 331 331 330 330 335 335 333 333 332 333 331 330 328 324 324 327 328 328 328 327 327 328 328 327 327 327 329 328 326 325 324 323 323
340 341 340 339 338 336 338 336 334 331 329 330 331 329 331 333 332 330 328 327 327 325 324 324 323 323 325 327 327 326 324 325 325 326 327 326 327 328 328 327 326 325 325
339 341 341 339 338 337 337 339 336 332 327 326 329 329 327 326 326 325 326 325 324 324 323 323 321 324 325 326 326 324 323 322 323 324 325 325 325 326 328 330 330 329 327
339 341 341 339 337 336 337 338 339 338 331 325 322 323 324 324 324 323 323 322 320 319 320 321 321 326 330 331 331 329 330 329 326 322 321 324 324 325 327 327 329 329 329
339 341 341 340 338 337 336 335 336 336 336 333 328 325 323 321 320 320 320 322 325 327 328 329 330 332 332 331 331 330 329 328 328 327 323 322 323 325 327 327 327 327 326
339 340 340 339 339 338 337 337 335 334 334 335 335 333 331 330 329 329 328 329 330 330 330 330 331 332 332 332 330 328 327 327 326 325 325 324 322 324 326 326 327 327 327
337 340 341 339 339 338 337 337 336 334 331 330 331 332 332 333 333 333 332 332 332 332 332 332 332 333 333 331 328 328 328 327 326 326 326 324 325 325 324 327 327 327 327
339 340 341 341 339 338 337 336 334 332 329 331 331 331 329 329 331 332 332 333 333 333 333 332 332 332 332 330 327 328 328 328 328 327 327 327 327 327 328 328 327 327 326
338 340 341 340 340 339 337 337 335 333 331 332 333 330 327 328 330 330 329 330 331 332 332 332 333 332 329 328 328 327 330 327 327 327 327 327 327 326 327 328 328 328 327
336 338 341 341 340 339 338 336 336 334 334 333 334 333 332 330 329 330 329 329 331 331 330 330 332 330 328 328 328 329 329 329 326 326 325 326 326 326 326 327 327 326 325
330 334 337 338 336 338 336 336 336 335 335 334 334 335 335 334 329 329 328 328 328 328 330 330 330 328 328 328 328 329 329 329 328 329 323 322 323 324 325 325 324 324 324
334 334 336 335 333 333 336 336 335 334 334 335 334 335 333 332 329 327 327 328 328 330 330 330 329 328 329 329 329 328 327 327 327 327 327 323 324 324 324 323 323 322 323
332 335 334 328 329 329 331 335 334 329 330 333 334 334 332 331 330 331 331 329 331 331 326 325 331 330 329 329 329 328 328 326 325 325 325 325 324 323 322 322 322 323 322

GFSSE_925_thetae_114.txt.gz
Theta_e
345 348 344 344 341 336 336 344 344 343 343 343 342 343 344 343 341 342 340 340 341 341 340 342 339 338 341 342 339 337 338 337 337 338 338 339 340 340 339 338 336 334 333
345 348 345 344 344 340 333 339 345 344 343 343 344 343 344 343 340 337 338 340 341 342 340 338 339 341 342 341 340 337 334 329 331 333 334 336 338 338 338 335 333 332 331
345 347 347 344 345 341 337 332 342 343 343 343 344 344 344 343 341 338 340 337 338 340 340 340 340 341 340 341 339 338 337 337 337 339 339 338 339 337 335 333 331 330 330
346 347 347 344 344 343 339 333 337 342 343 343 344 344 344 343 340 338 338 336 341 341 340 339 339 338 340 340 340 336 333 333 332 333 333 332 333 334 332 331 330 330 330
346 347 347 344 344 343 339 333 337 341 342 343 344 343 343 341 340 338 337 337 337 339 338 338 335 335 336 336 336 334 333 329 328 329 330 331 330 331 331 330 330 330 330
346 346 346 344 343 339 336 336 338 341 342 343 343 344 342 340 338 336 336 337 336 337 336 336 334 330 326 327 327 328 324 324 328 329 329 330 330 331 330 330 329 329 329
346 347 346 343 339 339 341 340 339 341 342 343 343 342 341 338 336 336 336 336 336 336 334 334 327 320 316 316 316 317 319 326 328 329 330 330 330 330 330 329 329 329 328
346 346 346 342 337 341 343 341 340 341 342 343 342 341 339 336 335 335 335 335 336 336 335 333 325 319 317 317 318 319 320 327 328 330 330 330 330 330 330 329 328 328 328
346 346 346 343 338 343 344 344 341 342 342 342 341 340 337 335 333 334 337 336 333 335 334 330 323 320 319 320 320 321 322 327 328 329 329 329 330 330 330 329 328 327 327
345 345 344 341 337 342 343 344 344 343 342 341 340 338 335 334 331 335 337 336 332 334 332 330 327 325 323 323 323 322 322 327 328 330 329 329 331 330 330 329 328 327 326
344 344 343 340 337 336 344 343 343 342 341 339 339 336 333 332 335 338 339 335 331 331 331 329 329 328 328 327 327 325 327 328 328 329 329 329 330 330 329 329 328 327 326
343 343 342 339 337 335 339 342 342 341 340 339 337 335 330 331 334 338 337 335 332 330 329 329 328 329 331 331 329 329 329 329 329 330 329 329 330 329 326 326 326 326 326
342 342 341 339 338 335 333 341 341 339 339 337 337 331 330 332 334 337 336 335 335 331 331 330 329 330 330 330 331 331 330 329 329 329 328 328 330 328 324 323 323 324 323
341 342 340 338 337 333 332 332 336 339 338 334 332 331 333 335 333 335 335 337 334 333 332 330 330 330 330 330 329 329 330 330 330 329 328 327 329 328 326 325 324 324 323
332 341 339 338 335 333 332 330 330 331 332 331 330 333 335 336 334 336 336 336 334 333 331 328 327 328 329 329 328 328 326 329 329 329 329 326 327 329 328 327 326 325 325
336 340 340 338 334 336 334 332 329 329 329 330 329 332 336 334 333 333 333 333 332 331 328 327 326 326 327 328 328 326 324 324 326 328 329 329 325 327 329 330 330 329 327
339 340 341 340 336 337 337 336 332 329 329 329 329 330 333 333 332 331 331 330 329 328 327 326 325 327 329 331 331 329 329 328 325 325 325 327 328 325 326 328 331 330 330
334 340 341 340 338 336 337 336 335 331 328 329 329 330 330 330 330 329 329 328 327 326 326 326 326 329 333 333 333 332 330 329 329 327 325 325 327 328 328 327 327 327 328
327 335 340 340 339 338 337 337 335 336 332 328 327 328 329 328 328 328 326 326 327 329 331 331 332 333 334 333 332 330 329 328 328 326 325 325 325 326 328 328 327 327 327
328 332 340 340 339 339 338 338 337 338 337 336 331 328 327 327 327 327 328 330 331 332 332 332 332 333 333 332 329 329 329 329 328 327 327 325 325 325 326 327 328 328 326
333 337 338 340 339 338 337 336 335 336 335 336 336 335 334 332 332 332 333 333 334 334 334 334 334 334 333 331 330 330 330 330 329 329 328 327 328 328 328 328 329 328 328
336 337 339 339 339 338 337 336 336 336 335 334 334 333 333 334 335 335 335 334 334 334 334 333 333 332 333 331 331 331 332 331 328 326 327 326 326 327 327 327 327 327 327
333 336 338 339 339 338 337 336 336 335 333 334 334 333 331 331 330 332 333 333 333 333 333 333 333 334 333 330 328 331 333 333 331 328 325 325 326 326 325 326 326 327 327
333 337 338 339 338 338 338 337 336 335 334 332 334 334 330 328 328 330 330 329 330 331 331 330 331 332 330 329 328 328 331 331 332 331 326 323 324 324 325 326 326 324 324
333 332 336 337 338 338 337 336 336 336 336 335 335 334 332 331 331 329 328 330 329 329 330 330 331 330 329 330 331 330 329 330 328 328 328 325 325 325 324 324 323 322 323
331 330 329 334 335 335 335 336 334 334 335 334 334 334 333 332 329 328 328 327 327 329 330 328 326 329 329 329 331 330 330 328 328 327 326 325 325 324 323 322 321 322 322

GFSSE_925_thetae_117.txt.gz
Theta_e
345 349 346 345 342 344 344 344 343 342 344 346 346 345 344 342 343 343 343 342 342 341 342 338 339 340 338 339 341 340 339 338 337 338 339 339 339 340 337 333 331 331 332
346 348 345 345 342 343 346 344 343 342 344 345 345 345 344 344 344 343 344 344 340 341 341 340 343 342 342 338 338 336 332 333 335 336 337 337 337 337 335 331 331 332 332
347 347 346 344 341 340 347 344 343 343 344 344 344 346 345 344 344 343 343 343 340 340 339 343 342 343 341 339 338 338 337 339 339 338 337 337 335 333 332 332 331 331 331
347 347 345 343 339 336 342 347 345 344 343 343 344 344 343 340 338 342 340 341 339 338 342 341 340 339 338 338 337 335 334 333 332 335 332 332 331 332 331 331 331 331 331
348 347 347 344 341 337 334 343 346 345 343 344 344 343 342 341 339 338 338 340 340 338 337 339 338 338 338 337 333 331 327 328 329 331 331 330 330 331 332 331 330 331 331
348 347 347 344 345 340 335 336 343 345 343 345 344 343 341 341 338 337 337 340 339 338 334 336 336 336 333 334 333 327 327 329 329 330 330 330 331 331 331 330 330 329 329
347 347 347 343 345 343 337 335 341 343 343 344 344 342 341 340 337 336 338 336 337 337 335 334 330 324 325 321 318 320 327 329 330 331 331 331 331 331 331 330 330 329 329
347 348 347 344 344 343 340 333 339 342 343 343 343 342 341 338 337 336 337 335 335 332 329 326 323 317 315 316 318 324 328 329 330 331 331 331 331 331 330 329 329 329 329
346 346 346 345 344 340 339 337 340 342 343 342 342 341 339 336 337 336 336 335 335 333 327 322 319 317 318 319 320 325 328 329 330 330 330 331 331 331 329 329 328 328 328
346 344 345 344 342 342 344 340 342 342 342 342 341 339 337 335 336 336 335 335 335 333 326 321 319 320 320 321 321 323 328 329 330 330 330 331 331 331 330 329 328 327 327
345 344 344 343 340 340 345 343 341 342 342 341 340 339 336 335 336 337 338 334 335 330 328 325 323 323 324 323 322 327 328 329 330 330 330 330 331 330 329 329 328 327 326
344 343 343 341 337 339 343 343 342 341 342 340 339 337 332 332 337 339 337 333 334 332 332 329 327 327 329 328 327 329 329 329 330 330 329 329 331 329 328 327 326 326 325
333 343 343 341 336 338 341 343 342 342 340 338 337 335 328 331 337 338 334 332 333 332 333 330 328 332 332 331 331 330 329 329 330 330 328 329 330 329 326 324 324 323 324
334 336 338 340 336 336 339 341 341 340 339 338 337 331 329 332 337 337 334 333 333 332 332 331 331 331 331 330 330 330 330 330 330 330 326 326 329 329 326 325 325 324 324
336 334 334 338 336 333 337 340 341 340 338 338 337 328 330 333 335 335 334 333 333 333 331 331 330 330 330 329 329 328 329 330 330 330 331 325 327 328 328 327 326 326 325
330 336 333 337 336 333 332 338 339 339 337 334 332 331 333 334 334 335 334 336 334 333 331 329 328 329 329 329 328 327 325 327 327 329 330 329 325 327 328 329 329 328 327
324 338 338 338 335 332 331 330 333 337 336 331 330 333 333 334 334 335 335 335 334 332 329 328 327 327 328 329 330 328 326 326 325 326 327 328 328 325 326 329 332 331 330
326 336 335 334 334 333 331 330 329 330 330 330 330 333 334 333 333 333 333 333 331 329 328 326 326 327 331 333 333 332 331 330 329 328 326 326 328 329 328 326 327 328 329
325 332 337 336 335 336 335 332 329 328 329 329 329 331 333 332 332 331 330 329 328 327 326 326 327 330 333 333 332 332 330 329 329 328 327 326 326 327 328 329 328 327 327
328 325 334 337 336 337 336 334 332 328 328 329 330 330 331 330 330 329 328 327 327 329 331 332 332 333 333 333 332 330 330 330 330 328 328 327 326 326 327 328 329 328 327
327 327 334 338 337 337 336 336 336 333 329 327 327 328 329 328 328 327 327 329 330 332 332 333 333 334 334 333 332 331 331 330 331 330 330 329 329 328 328 328 329 329 329
328 327 329 336 337 337 336 337 337 338 336 333 331 328 327 327 328 329 331 332 333 334 333 334 334 335 335 334 332 331 334 332 330 329 328 328 328 328 328 329 328 328 328
324 327 327 332 337 337 337 337 337 336 336 336 336 335 333 333 333 333 333 333 334 334 334 335 334 334 334 333 331 332 333 335 332 330 327 325 326 326 326 326 326 326 327
325 325 330 330 336 338 337 336 335 336 335 335 335 334 334 334 335 335 334 334 334 334 334 334 334 334 335 332 329 329 331 332 332 332 328 325 324 324 326 326 326 326 324
328 325 331 332 335 338 337 337 337 336 335 333 334 334 333 332 332 333 333 331 331 332 333 333 332 333 332 330 331 332 330 330 330 329 331 327 325 325 324 324 323 323 321
328 330 331 332 333 337 336 335 336 336 336 334 335 334 333 331 330 330 330 331 331 330 330 329 328 328 329 330 331 331 331 330 329 327 327 327 327 325 323 323 322 322 321

GFSSE_925_thetae_120.txt.gz
Theta_e
350 345 346 343 342 346 346 342 342 347 347 346 345 345 343 341 343 343 342 342 342 339 338 339 338 339 342 342 342 341 341 339 338 338 338 338 338 336 333 332 332 332 332
350 345 345 344 343 346 345 343 342 346 346 346 345 345 343 344 344 343 343 343 344 340 340 343 340 339 340 339 339 338 336 336 336 337 335 334 334 333 332 332 331 333 332
350 347 345 344 342 345 346 343 342 344 345 345 344 344 344 344 344 344 343 341 342 341 343 343 341 338 338 338 338 339 339 338 337 334 332 332 331 332 332 331 332 332 331
348 348 348 345 342 346 344 344 342 343 345 344 344 344 344 344 344 343 341 341 338 343 342 341 340 338 337 335 336 335 332 331 335 332 330 330 331 332 332 332 332 331 331
347 346 347 345 344 345 344 343 342 343 344 343 345 344 343 342 342 343 341 337 339 340 339 338 336 335 336 334 332 328 329 330 330 330 329 330 332 332 332 331 331 330 331
347 345 345 344 343 343 346 344 343 343 343 343 344 342 339 339 339 341 340 338 338 337 338 337 336 336 335 329 322 328 329 330 329 330 330 330 331 331 331 330 330 330 330
347 346 344 342 341 341 343 345 345 343 343 343 343 341 340 340 339 338 339 338 336 330 335 336 337 330 330 325 325 328 329 330 330 331 330 331 331 331 331 330 330 330 329
348 347 346 343 342 341 340 342 343 344 343 344 342 341 340 339 338 337 339 337 336 331 326 324 323 320 317 317 327 329 330 331 331 331 329 330 331 331 330 329 329 329 328
347 347 346 344 343 342 338 339 342 343 343 344 342 340 340 337 336 338 336 335 334 327 323 318 315 315 317 320 327 329 330 330 330 330 328 330 331 331 330 329 329 328 328
347 347 346 344 343 343 340 336 339 342 343 343 341 341 340 336 336 336 335 333 329 324 318 316 317 318 319 321 326 328 330 330 330 330 328 330 331 331 330 329 328 328 327
347 347 345 344 344 342 340 337 340 342 342 342 341 340 337 336 336 336 335 335 330 322 319 319 319 320 321 322 327 328 329 330 329 328 327 330 331 330 330 329 328 327 327
343 345 344 345 342 342 343 340 342 342 342 341 340 338 334 336 336 335 335 335 331 325 322 321 322 324 322 323 328 329 328 330 330 328 326 329 331 330 327 325 326 326 326
340 344 344 344 342 341 342 342 342 342 341 340 338 337 334 335 337 337 334 334 331 330 327 326 327 330 330 327 331 329 329 329 330 328 324 327 329 328 325 324 323 324 324
327 330 342 340 341 340 343 342 342 341 340 338 338 333 332 336 337 334 333 334 332 331 329 327 330 332 332 331 331 330 329 329 330 330 323 325 326 327 326 325 324 324 323
323 324 334 336 330 334 342 342 341 340 339 338 337 330 330 337 336 333 332 331 330 333 329 328 330 331 330 330 329 329 330 330 330 330 329 324 325 326 326 326 325 325 325
324 321 328 334 332 328 340 342 341 340 338 338 335 330 328 336 334 332 332 333 331 332 331 331 330 330 329 329 328 328 327 328 329 329 330 329 324 326 327 328 328 328 327
324 321 321 328 331 328 330 341 340 339 338 337 335 330 329 335 336 334 332 331 333 333 331 329 328 328 328 328 328 327 325 324 325 326 328 329 329 325 326 328 331 331 330
323 320 324 329 332 329 329 339 339 338 337 336 333 332 333 334 334 334 332 334 334 332 329 327 326 326 328 329 332 331 330 330 329 326 326 325 327 328 328 326 327 329 330
323 320 320 330 331 328 331 334 337 338 335 332 332 331 332 334 334 333 333 334 332 329 328 326 326 327 331 333 333 332 331 330 329 329 328 326 326 327 328 329 329 327 327
320 323 321 323 334 332 330 330 331 332 331 330 333 332 330 333 333 333 332 331 329 327 326 325 326 329 332 333 333 331 331 330 329 329 328 327 326 326 326 327 328 328 328
325 329 325 327 332 333 331 330 329 329 330 329 331 332 333 333 332 330 330 329 327 327 329 330 332 333 333 333 332 331 330 330 330 330 329 329 329 326 326 327 329 329 329
327 328 326 325 332 332 333 331 328 329 329 329 330 332 332 331 330 329 328 327 328 330 331 332 332 333 333 333 332 331 329 330 330 330 329 328 328 328 328 328 329 329 328
329 328 326 327 333 336 333 332 329 328 328 329 330 330 330 329 329 327 327 328 331 333 333 333 334 334 334 333 332 331 328 329 330 328 328 326 326 326 326 326 326 326 326
326 327 326 327 330 336 334 333 334 333 331 330 328 328 328 327 327 330 331 331 333 333 333 334 334 334 335 332 331 330 330 330 328 328 327 326 326 325 325 325 326 326 325
325 327 328 328 327 330 333 335 335 334 334 334 333 331 329 330 330 332 332 333 333 334 334 334 334 334 334 331 330 331 330 329 329 327 326 325 325 325 324 324 324 323 322
326 325 327 328 326 328 332 335 335 335 334 335 334 334 333 335 334 334 334 333 334 333 333 333 333 331 330 329 330 331 330 329 329 327 325 324 325 325 324 323 323 322 321